<?xml version='1.0' encoding='UTF-8'?><gpx version="1.1" creator="JPX - https://github.com/jenetics/jpx" xmlns="http://www.topografix.com/GPX/1/1"><trk><trkseg><trkpt lat="43.3440365" lon="11.9209796"><ele>320.0</ele><time>2026-04-19T13:32:40.123Z</time></trkpt><trkpt lat="43.3439754" lon="11.9210708"><ele>320.0</ele><time>2026-04-19T13:32:44.923Z</time></trkpt><trkpt lat="43.3439119" lon="11.9211311"><ele>320.0</ele><time>2026-04-19T13:32:49.181Z</time></trkpt><trkpt lat="43.343847" lon="11.9211659"><ele>320.0</ele><time>2026-04-19T13:32:53.122Z</time></trkpt><trkpt lat="43.3437739" lon="11.921179"><ele>320.0</ele><time>2026-04-19T13:32:57.122Z</time></trkpt><trkpt lat="43.3437108" lon="11.9211905"><ele>320.0</ele><time>2026-04-19T13:33:18.122Z</time></trkpt><trkpt lat="43.3436299" lon="11.9211972"><ele>320.42857142857144</ele><time>2026-04-19T13:33:23.122Z</time></trkpt><trkpt lat="43.3435795" lon="11.921259"><ele>320.8571428571429</ele><time>2026-04-19T13:33:26.122Z</time></trkpt><trkpt lat="43.3435491" lon="11.9213534"><ele>321.28571428571433</ele><time>2026-04-19T13:33:31.122Z</time></trkpt><trkpt lat="43.3436109" lon="11.9212945"><ele>321.7142857142857</ele><time>2026-04-19T13:34:22.121Z</time></trkpt><trkpt lat="43.3436962" lon="11.9212779"><ele>322.14285714285717</ele><time>2026-04-19T13:34:25.121Z</time></trkpt><trkpt lat="43.343762" lon="11.9212704"><ele>322.5714285714286</ele><time>2026-04-19T13:34:27.121Z</time></trkpt><trkpt lat="43.3438252" lon="11.9212933"><ele>323.0</ele><time>2026-04-19T13:34:29.121Z</time></trkpt><trkpt lat="43.3438718" lon="11.9213698"><ele>323.0</ele><time>2026-04-19T13:34:32.122Z</time></trkpt><trkpt lat="43.3439103" lon="11.9214621"><ele>323.0</ele><time>2026-04-19T13:34:35.122Z</time></trkpt><trkpt lat="43.3439384" lon="11.921551"><ele>323.0</ele><time>2026-04-19T13:34:38.122Z</time></trkpt><trkpt lat="43.3439714" lon="11.9216376"><ele>323.0</ele><time>2026-04-19T13:34:41.121Z</time></trkpt><trkpt lat="43.3440165" lon="11.9217276"><ele>323.0</ele><time>2026-04-19T13:34:45.122Z</time></trkpt><trkpt lat="43.3440594" lon="11.9218345"><ele>323.0</ele><time>2026-04-19T13:34:49.121Z</time></trkpt><trkpt lat="43.3440866" lon="11.9219211"><ele>323.00000000000006</ele><time>2026-04-19T13:34:52.122Z</time></trkpt><trkpt lat="43.3441182" lon="11.9220115"><ele>323.0</ele><time>2026-04-19T13:34:55.122Z</time></trkpt><trkpt lat="43.3441507" lon="11.9220955"><ele>323.0</ele><time>2026-04-19T13:34:58.122Z</time></trkpt><trkpt lat="43.344186" lon="11.9221832"><ele>323.0</ele><time>2026-04-19T13:35:01.122Z</time></trkpt><trkpt lat="43.3442261" lon="11.922269"><ele>323.0</ele><time>2026-04-19T13:35:04.122Z</time></trkpt><trkpt lat="43.3442665" lon="11.9223534"><ele>323.00000000000006</ele><time>2026-04-19T13:35:07.121Z</time></trkpt><trkpt lat="43.3442977" lon="11.9224381"><ele>323.0</ele><time>2026-04-19T13:35:10.122Z</time></trkpt><trkpt lat="43.344339" lon="11.9225223"><ele>322.5</ele><time>2026-04-19T13:35:13.121Z</time></trkpt><trkpt lat="43.3443851" lon="11.9226203"><ele>322.0</ele><time>2026-04-19T13:35:16.122Z</time></trkpt><trkpt lat="43.344437" lon="11.9227212"><ele>321.5</ele><time>2026-04-19T13:35:19.122Z</time></trkpt><trkpt lat="43.3444844" lon="11.9228103"><ele>321.0</ele><time>2026-04-19T13:35:22.121Z</time></trkpt><trkpt lat="43.3445416" lon="11.9229011"><ele>320.5</ele><time>2026-04-19T13:35:25.122Z</time></trkpt><trkpt lat="43.344595" lon="11.9229961"><ele>320.0</ele><time>2026-04-19T13:35:28.121Z</time></trkpt><trkpt lat="43.3446545" lon="11.9230921"><ele>320.0</ele><time>2026-04-19T13:35:31.121Z</time></trkpt><trkpt lat="43.3446979" lon="11.9231553"><ele>320.0</ele><time>2026-04-19T13:35:33.122Z</time></trkpt><trkpt lat="43.3447495" lon="11.9232607"><ele>320.0</ele><time>2026-04-19T13:35:36.122Z</time></trkpt><trkpt lat="43.3447926" lon="11.9233352"><ele>320.0</ele><time>2026-04-19T13:35:38.121Z</time></trkpt><trkpt lat="43.34484" lon="11.9234071"><ele>320.0</ele><time>2026-04-19T13:35:40.121Z</time></trkpt><trkpt lat="43.3448828" lon="11.9234814"><ele>320.0</ele><time>2026-04-19T13:35:42.122Z</time></trkpt><trkpt lat="43.3449257" lon="11.9235487"><ele>320.0</ele><time>2026-04-19T13:35:44.122Z</time></trkpt><trkpt lat="43.3449816" lon="11.9236487"><ele>319.6666666666667</ele><time>2026-04-19T13:35:47.121Z</time></trkpt><trkpt lat="43.3450145" lon="11.92374"><ele>319.33333333333337</ele><time>2026-04-19T13:35:49.122Z</time></trkpt><trkpt lat="43.3450676" lon="11.9238231"><ele>319.0</ele><time>2026-04-19T13:35:51.122Z</time></trkpt><trkpt lat="43.3451267" lon="11.9239029"><ele>318.6666666666667</ele><time>2026-04-19T13:35:53.122Z</time></trkpt><trkpt lat="43.345193" lon="11.923978"><ele>318.3333333333333</ele><time>2026-04-19T13:35:55.122Z</time></trkpt><trkpt lat="43.3452585" lon="11.9240565"><ele>318.0</ele><time>2026-04-19T13:35:57.122Z</time></trkpt><trkpt lat="43.3453243" lon="11.9241416"><ele>318.0</ele><time>2026-04-19T13:35:59.121Z</time></trkpt><trkpt lat="43.3453971" lon="11.9242289"><ele>318.0</ele><time>2026-04-19T13:36:01.122Z</time></trkpt><trkpt lat="43.3454757" lon="11.924324"><ele>318.0</ele><time>2026-04-19T13:36:03.121Z</time></trkpt><trkpt lat="43.3455567" lon="11.9244126"><ele>318.0</ele><time>2026-04-19T13:36:05.121Z</time></trkpt><trkpt lat="43.345642" lon="11.9244947"><ele>318.0</ele><time>2026-04-19T13:36:07.122Z</time></trkpt><trkpt lat="43.345727" lon="11.9245789"><ele>317.8</ele><time>2026-04-19T13:36:09.121Z</time></trkpt><trkpt lat="43.3458076" lon="11.9246729"><ele>317.6</ele><time>2026-04-19T13:36:11.122Z</time></trkpt><trkpt lat="43.3458781" lon="11.9247592"><ele>317.4</ele><time>2026-04-19T13:36:13.121Z</time></trkpt><trkpt lat="43.3459586" lon="11.9248169"><ele>317.2</ele><time>2026-04-19T13:36:15.121Z</time></trkpt><trkpt lat="43.3460513" lon="11.9248744"><ele>317.0</ele><time>2026-04-19T13:36:17.121Z</time></trkpt><trkpt lat="43.3461322" lon="11.9249321"><ele>317.0</ele><time>2026-04-19T13:36:19.122Z</time></trkpt><trkpt lat="43.3462221" lon="11.9249841"><ele>317.0</ele><time>2026-04-19T13:36:21.121Z</time></trkpt><trkpt lat="43.346316" lon="11.9250376"><ele>317.0</ele><time>2026-04-19T13:36:23.121Z</time></trkpt><trkpt lat="43.3464146" lon="11.9251153"><ele>317.0</ele><time>2026-04-19T13:36:25.121Z</time></trkpt><trkpt lat="43.3465161" lon="11.9251906"><ele>317.0</ele><time>2026-04-19T13:36:27.122Z</time></trkpt><trkpt lat="43.3466162" lon="11.9252514"><ele>316.4</ele><time>2026-04-19T13:36:29.122Z</time></trkpt><trkpt lat="43.3467144" lon="11.9253117"><ele>315.79999999999995</ele><time>2026-04-19T13:36:31.122Z</time></trkpt><trkpt lat="43.346814" lon="11.9253744"><ele>315.2</ele><time>2026-04-19T13:36:33.122Z</time></trkpt><trkpt lat="43.3468696" lon="11.9254154"><ele>314.59999999999997</ele><time>2026-04-19T13:36:34.122Z</time></trkpt><trkpt lat="43.3469293" lon="11.9254541"><ele>314.0</ele><time>2026-04-19T13:36:35.122Z</time></trkpt><trkpt lat="43.3470489" lon="11.9255065"><ele>314.0</ele><time>2026-04-19T13:36:37.122Z</time></trkpt><trkpt lat="43.3471718" lon="11.9255382"><ele>314.0</ele><time>2026-04-19T13:36:39.121Z</time></trkpt><trkpt lat="43.3472935" lon="11.9255543"><ele>314.0</ele><time>2026-04-19T13:36:41.122Z</time></trkpt><trkpt lat="43.3474071" lon="11.9255714"><ele>314.0</ele><time>2026-04-19T13:36:43.122Z</time></trkpt><trkpt lat="43.3475245" lon="11.925549"><ele>315.2</ele><time>2026-04-19T13:36:45.122Z</time></trkpt><trkpt lat="43.3475812" lon="11.9255026"><ele>316.4</ele><time>2026-04-19T13:36:46.122Z</time></trkpt><trkpt lat="43.3476297" lon="11.9254433"><ele>317.6</ele><time>2026-04-19T13:36:47.121Z</time></trkpt><trkpt lat="43.3477172" lon="11.9253245"><ele>318.8</ele><time>2026-04-19T13:36:49.121Z</time></trkpt><trkpt lat="43.3477983" lon="11.9252242"><ele>320.0</ele><time>2026-04-19T13:36:51.121Z</time></trkpt><trkpt lat="43.347887" lon="11.9251364"><ele>320.0</ele><time>2026-04-19T13:36:53.122Z</time></trkpt><trkpt lat="43.3479958" lon="11.9250854"><ele>320.0</ele><time>2026-04-19T13:36:55.122Z</time></trkpt><trkpt lat="43.3481063" lon="11.9250522"><ele>320.0</ele><time>2026-04-19T13:36:57.122Z</time></trkpt><trkpt lat="43.3482183" lon="11.9250182"><ele>320.0</ele><time>2026-04-19T13:36:59.122Z</time></trkpt><trkpt lat="43.3483247" lon="11.9249942"><ele>320.0</ele><time>2026-04-19T13:37:01.121Z</time></trkpt><trkpt lat="43.3484282" lon="11.9250058"><ele>320.0</ele><time>2026-04-19T13:37:03.121Z</time></trkpt><trkpt lat="43.3485182" lon="11.9250722"><ele>320.0</ele><time>2026-04-19T13:37:05.121Z</time></trkpt><trkpt lat="43.3485968" lon="11.9251805"><ele>320.0</ele><time>2026-04-19T13:37:07.121Z</time></trkpt><trkpt lat="43.348641" lon="11.9253227"><ele>320.0</ele><time>2026-04-19T13:37:09.121Z</time></trkpt><trkpt lat="43.3486733" lon="11.9254629"><ele>320.0</ele><time>2026-04-19T13:37:11.122Z</time></trkpt><trkpt lat="43.3487314" lon="11.9255931"><ele>320.0</ele><time>2026-04-19T13:37:13.121Z</time></trkpt><trkpt lat="43.3488015" lon="11.9257149"><ele>320.0</ele><time>2026-04-19T13:37:15.122Z</time></trkpt><trkpt lat="43.3488934" lon="11.9258052"><ele>320.0</ele><time>2026-04-19T13:37:17.122Z</time></trkpt><trkpt lat="43.3489955" lon="11.9258732"><ele>319.4</ele><time>2026-04-19T13:37:19.122Z</time></trkpt><trkpt lat="43.3491025" lon="11.9259132"><ele>318.8</ele><time>2026-04-19T13:37:21.121Z</time></trkpt><trkpt lat="43.3492003" lon="11.9259203"><ele>318.2</ele><time>2026-04-19T13:37:23.122Z</time></trkpt><trkpt lat="43.3492891" lon="11.9259118"><ele>317.6</ele><time>2026-04-19T13:37:25.122Z</time></trkpt><trkpt lat="43.3493736" lon="11.9258981"><ele>317.0</ele><time>2026-04-19T13:37:27.121Z</time></trkpt><trkpt lat="43.3494544" lon="11.9258691"><ele>319.6666666666667</ele><time>2026-04-19T13:37:29.121Z</time></trkpt><trkpt lat="43.3495427" lon="11.9258392"><ele>322.33333333333337</ele><time>2026-04-19T13:37:31.121Z</time></trkpt><trkpt lat="43.3496168" lon="11.9257923"><ele>325.0</ele><time>2026-04-19T13:37:33.121Z</time></trkpt><trkpt lat="43.3496963" lon="11.9257624"><ele>327.6666666666667</ele><time>2026-04-19T13:37:35.121Z</time></trkpt><trkpt lat="43.3497679" lon="11.9257287"><ele>330.3333333333333</ele><time>2026-04-19T13:37:37.121Z</time></trkpt><trkpt lat="43.3498493" lon="11.9256877"><ele>333.0</ele><time>2026-04-19T13:37:39.122Z</time></trkpt><trkpt lat="43.3499268" lon="11.925647"><ele>333.0</ele><time>2026-04-19T13:37:41.122Z</time></trkpt><trkpt lat="43.3500011" lon="11.9256061"><ele>333.0</ele><time>2026-04-19T13:37:43.122Z</time></trkpt><trkpt lat="43.3500721" lon="11.92556"><ele>333.0</ele><time>2026-04-19T13:37:45.121Z</time></trkpt><trkpt lat="43.3501403" lon="11.9255096"><ele>333.0</ele><time>2026-04-19T13:37:47.122Z</time></trkpt><trkpt lat="43.350208" lon="11.9254538"><ele>333.0</ele><time>2026-04-19T13:37:49.121Z</time></trkpt><trkpt lat="43.3502656" lon="11.9253868"><ele>333.0</ele><time>2026-04-19T13:37:51.122Z</time></trkpt><trkpt lat="43.3503247" lon="11.9253292"><ele>333.0</ele><time>2026-04-19T13:37:53.121Z</time></trkpt><trkpt lat="43.3503923" lon="11.9252853"><ele>333.0</ele><time>2026-04-19T13:37:55.122Z</time></trkpt><trkpt lat="43.3504573" lon="11.9252419"><ele>333.0</ele><time>2026-04-19T13:37:57.122Z</time></trkpt><trkpt lat="43.3505223" lon="11.9252002"><ele>333.0</ele><time>2026-04-19T13:37:59.121Z</time></trkpt><trkpt lat="43.35059" lon="11.9251635"><ele>333.0</ele><time>2026-04-19T13:38:01.122Z</time></trkpt><trkpt lat="43.3506598" lon="11.9251469"><ele>333.0</ele><time>2026-04-19T13:38:03.122Z</time></trkpt><trkpt lat="43.3507361" lon="11.9251355"><ele>333.0</ele><time>2026-04-19T13:38:05.122Z</time></trkpt><trkpt lat="43.3508111" lon="11.9251253"><ele>334.2857142857143</ele><time>2026-04-19T13:38:07.122Z</time></trkpt><trkpt lat="43.3508802" lon="11.9251323"><ele>335.57142857142856</ele><time>2026-04-19T13:38:09.121Z</time></trkpt><trkpt lat="43.3509542" lon="11.9251402"><ele>336.85714285714283</ele><time>2026-04-19T13:38:11.122Z</time></trkpt><trkpt lat="43.3510224" lon="11.9251579"><ele>338.1428571428571</ele><time>2026-04-19T13:38:13.121Z</time></trkpt><trkpt lat="43.3510929" lon="11.9251843"><ele>339.42857142857144</ele><time>2026-04-19T13:38:15.122Z</time></trkpt><trkpt lat="43.3511672" lon="11.9252386"><ele>340.71428571428567</ele><time>2026-04-19T13:38:17.122Z</time></trkpt><trkpt lat="43.3512111" lon="11.9253294"><ele>342.0</ele><time>2026-04-19T13:38:19.121Z</time></trkpt><trkpt lat="43.3512141" lon="11.9254341"><ele>342.0</ele><time>2026-04-19T13:38:21.121Z</time></trkpt><trkpt lat="43.3511856" lon="11.925548"><ele>342.0</ele><time>2026-04-19T13:38:23.122Z</time></trkpt><trkpt lat="43.3511514" lon="11.9256443"><ele>342.0</ele><time>2026-04-19T13:38:25.122Z</time></trkpt><trkpt lat="43.3511132" lon="11.9257482"><ele>342.0</ele><time>2026-04-19T13:38:27.122Z</time></trkpt><trkpt lat="43.3510851" lon="11.9258453"><ele>342.0</ele><time>2026-04-19T13:38:29.122Z</time></trkpt><trkpt lat="43.3510586" lon="11.9259397"><ele>342.0</ele><time>2026-04-19T13:38:31.121Z</time></trkpt><trkpt lat="43.3510242" lon="11.9260413"><ele>342.5</ele><time>2026-04-19T13:38:33.121Z</time></trkpt><trkpt lat="43.3509893" lon="11.9261383"><ele>343.0</ele><time>2026-04-19T13:38:35.122Z</time></trkpt><trkpt lat="43.3509572" lon="11.9262392"><ele>343.5</ele><time>2026-04-19T13:38:37.122Z</time></trkpt><trkpt lat="43.3509285" lon="11.9263405"><ele>344.0</ele><time>2026-04-19T13:38:39.122Z</time></trkpt><trkpt lat="43.3509032" lon="11.9264379"><ele>344.5</ele><time>2026-04-19T13:38:41.122Z</time></trkpt><trkpt lat="43.3508827" lon="11.9265355"><ele>345.0</ele><time>2026-04-19T13:38:43.122Z</time></trkpt><trkpt lat="43.350872" lon="11.9266425"><ele>346.0</ele><time>2026-04-19T13:38:45.121Z</time></trkpt><trkpt lat="43.3508609" lon="11.9267508"><ele>347.0</ele><time>2026-04-19T13:38:47.122Z</time></trkpt><trkpt lat="43.3508485" lon="11.926866"><ele>348.0</ele><time>2026-04-19T13:38:49.122Z</time></trkpt><trkpt lat="43.3508337" lon="11.9269724"><ele>349.0</ele><time>2026-04-19T13:38:51.122Z</time></trkpt><trkpt lat="43.3508209" lon="11.9270812"><ele>350.0</ele><time>2026-04-19T13:38:53.122Z</time></trkpt><trkpt lat="43.3508038" lon="11.9271864"><ele>351.0</ele><time>2026-04-19T13:38:55.121Z</time></trkpt><trkpt lat="43.3507901" lon="11.9272957"><ele>351.0</ele><time>2026-04-19T13:38:57.121Z</time></trkpt><trkpt lat="43.3507845" lon="11.9274048"><ele>351.0</ele><time>2026-04-19T13:38:59.121Z</time></trkpt><trkpt lat="43.350765" lon="11.9275114"><ele>351.0</ele><time>2026-04-19T13:39:01.122Z</time></trkpt><trkpt lat="43.3507586" lon="11.9276186"><ele>351.0</ele><time>2026-04-19T13:39:03.121Z</time></trkpt><trkpt lat="43.3507536" lon="11.9277234"><ele>351.0</ele><time>2026-04-19T13:39:05.122Z</time></trkpt><trkpt lat="43.3507571" lon="11.9278252"><ele>351.0</ele><time>2026-04-19T13:39:07.121Z</time></trkpt><trkpt lat="43.3507791" lon="11.9279156"><ele>351.00000000000006</ele><time>2026-04-19T13:39:09.122Z</time></trkpt><trkpt lat="43.3508181" lon="11.9280049"><ele>351.0</ele><time>2026-04-19T13:39:11.122Z</time></trkpt><trkpt lat="43.3508651" lon="11.9280862"><ele>351.0</ele><time>2026-04-19T13:39:13.122Z</time></trkpt><trkpt lat="43.3509206" lon="11.9281545"><ele>351.0</ele><time>2026-04-19T13:39:15.121Z</time></trkpt><trkpt lat="43.3509754" lon="11.9282128"><ele>351.0</ele><time>2026-04-19T13:39:17.122Z</time></trkpt><trkpt lat="43.3510298" lon="11.9282646"><ele>351.00000000000006</ele><time>2026-04-19T13:39:19.122Z</time></trkpt><trkpt lat="43.3510861" lon="11.9283153"><ele>351.0</ele><time>2026-04-19T13:39:21.122Z</time></trkpt><trkpt lat="43.3511469" lon="11.9283593"><ele>349.1666666666667</ele><time>2026-04-19T13:39:23.121Z</time></trkpt><trkpt lat="43.3512151" lon="11.9283996"><ele>347.3333333333333</ele><time>2026-04-19T13:39:25.121Z</time></trkpt><trkpt lat="43.3512867" lon="11.9284254"><ele>345.5</ele><time>2026-04-19T13:39:27.121Z</time></trkpt><trkpt lat="43.3513559" lon="11.9284536"><ele>343.66666666666663</ele><time>2026-04-19T13:39:29.121Z</time></trkpt><trkpt lat="43.3514268" lon="11.928475"><ele>341.8333333333333</ele><time>2026-04-19T13:39:31.121Z</time></trkpt><trkpt lat="43.3514937" lon="11.9284976"><ele>340.0</ele><time>2026-04-19T13:39:33.122Z</time></trkpt><trkpt lat="43.3515887" lon="11.9285327"><ele>340.0</ele><time>2026-04-19T13:39:36.121Z</time></trkpt><trkpt lat="43.3516604" lon="11.9285497"><ele>340.0</ele><time>2026-04-19T13:39:38.122Z</time></trkpt><trkpt lat="43.3517329" lon="11.928553"><ele>340.0</ele><time>2026-04-19T13:39:40.122Z</time></trkpt><trkpt lat="43.3518078" lon="11.9285707"><ele>340.0</ele><time>2026-04-19T13:39:42.122Z</time></trkpt><trkpt lat="43.3518849" lon="11.928585"><ele>340.0</ele><time>2026-04-19T13:39:44.121Z</time></trkpt><trkpt lat="43.3519624" lon="11.9286087"><ele>340.0</ele><time>2026-04-19T13:39:46.121Z</time></trkpt><trkpt lat="43.3520369" lon="11.9286275"><ele>340.0</ele><time>2026-04-19T13:39:48.122Z</time></trkpt><trkpt lat="43.3521175" lon="11.9286467"><ele>340.0</ele><time>2026-04-19T13:39:50.121Z</time></trkpt><trkpt lat="43.3521962" lon="11.9286573"><ele>340.0</ele><time>2026-04-19T13:39:52.122Z</time></trkpt><trkpt lat="43.3522796" lon="11.9286555"><ele>340.0</ele><time>2026-04-19T13:39:54.122Z</time></trkpt><trkpt lat="43.3523648" lon="11.9286634"><ele>340.0</ele><time>2026-04-19T13:39:56.122Z</time></trkpt><trkpt lat="43.35245" lon="11.928678"><ele>340.0</ele><time>2026-04-19T13:39:58.121Z</time></trkpt><trkpt lat="43.3525413" lon="11.9286753"><ele>341.66666666666663</ele><time>2026-04-19T13:40:00.122Z</time></trkpt><trkpt lat="43.3526197" lon="11.9286856"><ele>343.3333333333333</ele><time>2026-04-19T13:40:02.122Z</time></trkpt><trkpt lat="43.3527004" lon="11.9286772"><ele>345.0</ele><time>2026-04-19T13:40:04.122Z</time></trkpt><trkpt lat="43.3527825" lon="11.928675"><ele>346.6666666666667</ele><time>2026-04-19T13:40:06.122Z</time></trkpt><trkpt lat="43.3528616" lon="11.9286819"><ele>348.33333333333337</ele><time>2026-04-19T13:40:08.122Z</time></trkpt><trkpt lat="43.3529246" lon="11.9287452"><ele>350.0</ele><time>2026-04-19T13:40:10.121Z</time></trkpt><trkpt lat="43.352988" lon="11.9288228"><ele>354.4</ele><time>2026-04-19T13:40:12.121Z</time></trkpt><trkpt lat="43.3530434" lon="11.9289332"><ele>358.8</ele><time>2026-04-19T13:40:14.122Z</time></trkpt><trkpt lat="43.3530806" lon="11.9290419"><ele>363.20000000000005</ele><time>2026-04-19T13:40:16.122Z</time></trkpt><trkpt lat="43.3531112" lon="11.9291622"><ele>367.6</ele><time>2026-04-19T13:40:18.121Z</time></trkpt><trkpt lat="43.3531438" lon="11.9292758"><ele>372.0</ele><time>2026-04-19T13:40:20.121Z</time></trkpt><trkpt lat="43.3531657" lon="11.9293906"><ele>372.6</ele><time>2026-04-19T13:40:22.122Z</time></trkpt><trkpt lat="43.3531458" lon="11.9295112"><ele>373.20000000000005</ele><time>2026-04-19T13:40:24.121Z</time></trkpt><trkpt lat="43.3531166" lon="11.9296266"><ele>373.8</ele><time>2026-04-19T13:40:26.122Z</time></trkpt><trkpt lat="43.353087" lon="11.9297536"><ele>374.4</ele><time>2026-04-19T13:40:28.122Z</time></trkpt><trkpt lat="43.3530593" lon="11.9298799"><ele>375.0</ele><time>2026-04-19T13:40:30.122Z</time></trkpt><trkpt lat="43.3530326" lon="11.9300085"><ele>371.1666666666667</ele><time>2026-04-19T13:40:32.122Z</time></trkpt><trkpt lat="43.3530014" lon="11.9301145"><ele>367.3333333333333</ele><time>2026-04-19T13:40:34.122Z</time></trkpt><trkpt lat="43.3529778" lon="11.9302233"><ele>363.5</ele><time>2026-04-19T13:40:36.121Z</time></trkpt><trkpt lat="43.3529681" lon="11.9303323"><ele>359.66666666666663</ele><time>2026-04-19T13:40:38.122Z</time></trkpt><trkpt lat="43.3529681" lon="11.9304475"><ele>355.8333333333333</ele><time>2026-04-19T13:40:40.122Z</time></trkpt><trkpt lat="43.3529701" lon="11.9305699"><ele>352.0</ele><time>2026-04-19T13:40:42.121Z</time></trkpt><trkpt lat="43.3529626" lon="11.9306976"><ele>352.0</ele><time>2026-04-19T13:40:44.121Z</time></trkpt><trkpt lat="43.3529551" lon="11.930832"><ele>352.0</ele><time>2026-04-19T13:40:46.121Z</time></trkpt><trkpt lat="43.3529457" lon="11.9309468"><ele>352.0</ele><time>2026-04-19T13:40:48.122Z</time></trkpt><trkpt lat="43.3529438" lon="11.9310523"><ele>352.0</ele><time>2026-04-19T13:40:50.122Z</time></trkpt><trkpt lat="43.3529398" lon="11.9311466"><ele>352.0</ele><time>2026-04-19T13:40:52.122Z</time></trkpt><trkpt lat="43.3529366" lon="11.9312596"><ele>352.0</ele><time>2026-04-19T13:40:54.121Z</time></trkpt><trkpt lat="43.3529267" lon="11.9313828"><ele>351.8333333333333</ele><time>2026-04-19T13:40:56.122Z</time></trkpt><trkpt lat="43.3529163" lon="11.9314988"><ele>351.66666666666663</ele><time>2026-04-19T13:40:58.122Z</time></trkpt><trkpt lat="43.3529128" lon="11.9316075"><ele>351.5</ele><time>2026-04-19T13:41:00.121Z</time></trkpt><trkpt lat="43.3529051" lon="11.9317151"><ele>351.3333333333333</ele><time>2026-04-19T13:41:02.122Z</time></trkpt><trkpt lat="43.3529069" lon="11.9318274"><ele>351.1666666666667</ele><time>2026-04-19T13:41:04.121Z</time></trkpt><trkpt lat="43.3529068" lon="11.9319291"><ele>351.0</ele><time>2026-04-19T13:41:06.122Z</time></trkpt><trkpt lat="43.3528999" lon="11.9320391"><ele>352.0</ele><time>2026-04-19T13:41:08.122Z</time></trkpt><trkpt lat="43.3528917" lon="11.9321476"><ele>353.0</ele><time>2026-04-19T13:41:10.121Z</time></trkpt><trkpt lat="43.3528774" lon="11.9322512"><ele>354.0</ele><time>2026-04-19T13:41:12.122Z</time></trkpt><trkpt lat="43.3528665" lon="11.9323571"><ele>355.0</ele><time>2026-04-19T13:41:14.122Z</time></trkpt><trkpt lat="43.3528466" lon="11.9324598"><ele>356.0</ele><time>2026-04-19T13:41:16.122Z</time></trkpt><trkpt lat="43.3528133" lon="11.9325511"><ele>357.0</ele><time>2026-04-19T13:41:18.122Z</time></trkpt><trkpt lat="43.3527699" lon="11.9326307"><ele>358.2857142857143</ele><time>2026-04-19T13:41:20.122Z</time></trkpt><trkpt lat="43.3527233" lon="11.9327043"><ele>359.57142857142856</ele><time>2026-04-19T13:41:22.122Z</time></trkpt><trkpt lat="43.3526778" lon="11.9327752"><ele>360.8571428571429</ele><time>2026-04-19T13:41:24.122Z</time></trkpt><trkpt lat="43.3526415" lon="11.932862"><ele>362.1428571428571</ele><time>2026-04-19T13:41:26.121Z</time></trkpt><trkpt lat="43.3526231" lon="11.932958"><ele>363.42857142857144</ele><time>2026-04-19T13:41:28.122Z</time></trkpt><trkpt lat="43.3526138" lon="11.9330603"><ele>364.7142857142857</ele><time>2026-04-19T13:41:30.122Z</time></trkpt><trkpt lat="43.3526199" lon="11.9331693"><ele>366.0</ele><time>2026-04-19T13:41:32.121Z</time></trkpt><trkpt lat="43.3526357" lon="11.9332751"><ele>366.0</ele><time>2026-04-19T13:41:34.122Z</time></trkpt><trkpt lat="43.3526498" lon="11.9333753"><ele>366.0</ele><time>2026-04-19T13:41:36.122Z</time></trkpt><trkpt lat="43.352665" lon="11.9334802"><ele>366.0</ele><time>2026-04-19T13:41:38.122Z</time></trkpt><trkpt lat="43.3526805" lon="11.9335818"><ele>366.0</ele><time>2026-04-19T13:41:40.121Z</time></trkpt><trkpt lat="43.3527035" lon="11.9336815"><ele>366.0</ele><time>2026-04-19T13:41:42.121Z</time></trkpt><trkpt lat="43.3527422" lon="11.9337663"><ele>366.0</ele><time>2026-04-19T13:41:44.122Z</time></trkpt><trkpt lat="43.3527929" lon="11.9338428"><ele>366.7142857142857</ele><time>2026-04-19T13:41:46.122Z</time></trkpt><trkpt lat="43.3528481" lon="11.9338978"><ele>367.42857142857144</ele><time>2026-04-19T13:41:48.122Z</time></trkpt><trkpt lat="43.3529058" lon="11.9339351"><ele>368.1428571428571</ele><time>2026-04-19T13:41:50.122Z</time></trkpt><trkpt lat="43.3529745" lon="11.93397"><ele>368.8571428571429</ele><time>2026-04-19T13:41:52.122Z</time></trkpt><trkpt lat="43.3530422" lon="11.9339973"><ele>369.57142857142856</ele><time>2026-04-19T13:41:54.122Z</time></trkpt><trkpt lat="43.3531115" lon="11.934009"><ele>370.2857142857143</ele><time>2026-04-19T13:41:56.122Z</time></trkpt><trkpt lat="43.3531836" lon="11.9340197"><ele>371.0</ele><time>2026-04-19T13:41:58.121Z</time></trkpt><trkpt lat="43.3532566" lon="11.9340338"><ele>371.0</ele><time>2026-04-19T13:42:00.122Z</time></trkpt><trkpt lat="43.3533298" lon="11.9340452"><ele>371.0</ele><time>2026-04-19T13:42:02.122Z</time></trkpt><trkpt lat="43.3534271" lon="11.9340693"><ele>371.0</ele><time>2026-04-19T13:42:05.122Z</time></trkpt><trkpt lat="43.3534986" lon="11.934087"><ele>371.0</ele><time>2026-04-19T13:42:07.122Z</time></trkpt><trkpt lat="43.3535702" lon="11.9341017"><ele>371.0</ele><time>2026-04-19T13:42:09.121Z</time></trkpt><trkpt lat="43.3536407" lon="11.9341112"><ele>371.0</ele><time>2026-04-19T13:42:11.122Z</time></trkpt><trkpt lat="43.3537108" lon="11.934114"><ele>371.0</ele><time>2026-04-19T13:42:13.122Z</time></trkpt><trkpt lat="43.353784" lon="11.9341303"><ele>371.0</ele><time>2026-04-19T13:42:15.122Z</time></trkpt><trkpt lat="43.353861" lon="11.934141"><ele>371.0</ele><time>2026-04-19T13:42:17.122Z</time></trkpt><trkpt lat="43.353937" lon="11.9341586"><ele>371.0</ele><time>2026-04-19T13:42:19.121Z</time></trkpt><trkpt lat="43.3540008" lon="11.9341711"><ele>371.0</ele><time>2026-04-19T13:42:21.122Z</time></trkpt><trkpt lat="43.3540781" lon="11.9341893"><ele>371.0</ele><time>2026-04-19T13:42:23.122Z</time></trkpt><trkpt lat="43.3541497" lon="11.9342034"><ele>371.0</ele><time>2026-04-19T13:42:25.121Z</time></trkpt><trkpt lat="43.3542272" lon="11.9342179"><ele>372.14285714285717</ele><time>2026-04-19T13:42:27.121Z</time></trkpt><trkpt lat="43.354302" lon="11.9342355"><ele>373.2857142857143</ele><time>2026-04-19T13:42:29.121Z</time></trkpt><trkpt lat="43.35438" lon="11.9342612"><ele>374.42857142857144</ele><time>2026-04-19T13:42:31.121Z</time></trkpt><trkpt lat="43.3544543" lon="11.9342851"><ele>375.57142857142856</ele><time>2026-04-19T13:42:33.121Z</time></trkpt><trkpt lat="43.3545273" lon="11.9342983"><ele>376.7142857142857</ele><time>2026-04-19T13:42:35.122Z</time></trkpt><trkpt lat="43.3545889" lon="11.9343378"><ele>377.8571428571429</ele><time>2026-04-19T13:42:37.122Z</time></trkpt><trkpt lat="43.3546352" lon="11.9344035"><ele>379.0</ele><time>2026-04-19T13:42:39.122Z</time></trkpt><trkpt lat="43.3546561" lon="11.9345283"><ele>379.0</ele><time>2026-04-19T13:42:42.121Z</time></trkpt><trkpt lat="43.3546342" lon="11.9346282"><ele>379.0</ele><time>2026-04-19T13:42:44.121Z</time></trkpt><trkpt lat="43.3545474" lon="11.9347038"><ele>379.0</ele><time>2026-04-19T13:42:46.12Z</time></trkpt><trkpt lat="43.3544719" lon="11.9347722"><ele>379.0</ele><time>2026-04-19T13:42:48.121Z</time></trkpt><trkpt lat="43.3544085" lon="11.9348402"><ele>379.0</ele><time>2026-04-19T13:42:50.121Z</time></trkpt><trkpt lat="43.3543491" lon="11.9348996"><ele>379.0</ele><time>2026-04-19T13:42:52.12Z</time></trkpt><trkpt lat="43.3542852" lon="11.9349666"><ele>379.00000000000006</ele><time>2026-04-19T13:42:54.121Z</time></trkpt><trkpt lat="43.3542292" lon="11.9350406"><ele>379.0</ele><time>2026-04-19T13:42:56.121Z</time></trkpt><trkpt lat="43.354178" lon="11.9351214"><ele>379.0</ele><time>2026-04-19T13:42:58.121Z</time></trkpt><trkpt lat="43.3541478" lon="11.9352029"><ele>379.0</ele><time>2026-04-19T13:43:00.121Z</time></trkpt><trkpt lat="43.3541279" lon="11.9352994"><ele>379.0</ele><time>2026-04-19T13:43:02.121Z</time></trkpt><trkpt lat="43.3541312" lon="11.9354006"><ele>379.00000000000006</ele><time>2026-04-19T13:43:04.121Z</time></trkpt><trkpt lat="43.3541482" lon="11.9355048"><ele>379.0</ele><time>2026-04-19T13:43:06.12Z</time></trkpt><trkpt lat="43.3541792" lon="11.9356012"><ele>379.66666666666663</ele><time>2026-04-19T13:43:08.121Z</time></trkpt><trkpt lat="43.3542175" lon="11.9356958"><ele>380.3333333333333</ele><time>2026-04-19T13:43:10.121Z</time></trkpt><trkpt lat="43.3542493" lon="11.9357938"><ele>381.0</ele><time>2026-04-19T13:43:12.12Z</time></trkpt><trkpt lat="43.3542833" lon="11.9358924"><ele>381.6666666666667</ele><time>2026-04-19T13:43:14.121Z</time></trkpt><trkpt lat="43.3543218" lon="11.9359923"><ele>382.33333333333337</ele><time>2026-04-19T13:43:16.12Z</time></trkpt><trkpt lat="43.3543411" lon="11.9360905"><ele>383.0</ele><time>2026-04-19T13:43:18.121Z</time></trkpt><trkpt lat="43.3543522" lon="11.9361957"><ele>383.33333333333337</ele><time>2026-04-19T13:43:20.12Z</time></trkpt><trkpt lat="43.3543471" lon="11.9362951"><ele>383.6666666666667</ele><time>2026-04-19T13:43:22.12Z</time></trkpt><trkpt lat="43.3543399" lon="11.9363863"><ele>384.0</ele><time>2026-04-19T13:43:24.121Z</time></trkpt><trkpt lat="43.354325" lon="11.9364875"><ele>384.33333333333337</ele><time>2026-04-19T13:43:26.121Z</time></trkpt><trkpt lat="43.354309" lon="11.9366033"><ele>384.6666666666667</ele><time>2026-04-19T13:43:28.12Z</time></trkpt><trkpt lat="43.3542807" lon="11.9367158"><ele>385.0</ele><time>2026-04-19T13:43:30.12Z</time></trkpt><trkpt lat="43.3542694" lon="11.9368203"><ele>385.00000000000006</ele><time>2026-04-19T13:43:32.121Z</time></trkpt><trkpt lat="43.3542705" lon="11.9369226"><ele>385.0</ele><time>2026-04-19T13:43:34.12Z</time></trkpt><trkpt lat="43.354266" lon="11.9370325"><ele>385.0</ele><time>2026-04-19T13:43:36.121Z</time></trkpt><trkpt lat="43.3542669" lon="11.9371422"><ele>385.0</ele><time>2026-04-19T13:43:38.121Z</time></trkpt><trkpt lat="43.3542657" lon="11.9372477"><ele>385.00000000000006</ele><time>2026-04-19T13:43:40.121Z</time></trkpt><trkpt lat="43.3542766" lon="11.9373539"><ele>385.0</ele><time>2026-04-19T13:43:42.121Z</time></trkpt><trkpt lat="43.3542988" lon="11.9374577"><ele>385.00000000000006</ele><time>2026-04-19T13:43:44.12Z</time></trkpt><trkpt lat="43.3543386" lon="11.9375511"><ele>385.0</ele><time>2026-04-19T13:43:46.121Z</time></trkpt><trkpt lat="43.3543898" lon="11.93764"><ele>385.0</ele><time>2026-04-19T13:43:48.121Z</time></trkpt><trkpt lat="43.3544458" lon="11.9377197"><ele>385.0</ele><time>2026-04-19T13:43:50.121Z</time></trkpt><trkpt lat="43.354505" lon="11.9377822"><ele>385.00000000000006</ele><time>2026-04-19T13:43:52.12Z</time></trkpt><trkpt lat="43.3545749" lon="11.9378155"><ele>385.0</ele><time>2026-04-19T13:43:54.121Z</time></trkpt><trkpt lat="43.3546481" lon="11.9378226"><ele>385.57142857142856</ele><time>2026-04-19T13:43:56.121Z</time></trkpt><trkpt lat="43.354718" lon="11.9378072"><ele>386.1428571428571</ele><time>2026-04-19T13:43:58.12Z</time></trkpt><trkpt lat="43.3547959" lon="11.9377705"><ele>386.7142857142857</ele><time>2026-04-19T13:44:00.12Z</time></trkpt><trkpt lat="43.3548633" lon="11.9377223"><ele>387.2857142857143</ele><time>2026-04-19T13:44:02.12Z</time></trkpt><trkpt lat="43.3549369" lon="11.937698"><ele>387.85714285714283</ele><time>2026-04-19T13:44:04.121Z</time></trkpt><trkpt lat="43.3550004" lon="11.9376763"><ele>388.42857142857144</ele><time>2026-04-19T13:44:06.12Z</time></trkpt><trkpt lat="43.3550705" lon="11.9376601"><ele>389.0</ele><time>2026-04-19T13:44:08.121Z</time></trkpt><trkpt lat="43.3551397" lon="11.9376423"><ele>388.99999999999994</ele><time>2026-04-19T13:44:10.121Z</time></trkpt><trkpt lat="43.3552103" lon="11.9376208"><ele>389.0</ele><time>2026-04-19T13:44:12.121Z</time></trkpt><trkpt lat="43.3552823" lon="11.9376058"><ele>389.0</ele><time>2026-04-19T13:44:14.121Z</time></trkpt><trkpt lat="43.3553472" lon="11.9375911"><ele>389.0</ele><time>2026-04-19T13:44:16.12Z</time></trkpt><trkpt lat="43.3554112" lon="11.9375781"><ele>388.99999999999994</ele><time>2026-04-19T13:44:18.121Z</time></trkpt><trkpt lat="43.3555074" lon="11.9375948"><ele>389.0</ele><time>2026-04-19T13:44:21.121Z</time></trkpt><trkpt lat="43.3555825" lon="11.9376271"><ele>392.8571428571429</ele><time>2026-04-19T13:44:23.121Z</time></trkpt><trkpt lat="43.3556398" lon="11.9376881"><ele>396.71428571428567</ele><time>2026-04-19T13:44:25.12Z</time></trkpt><trkpt lat="43.3556874" lon="11.9377555"><ele>400.57142857142856</ele><time>2026-04-19T13:44:27.121Z</time></trkpt><trkpt lat="43.3557306" lon="11.9378635"><ele>404.42857142857144</ele><time>2026-04-19T13:44:30.121Z</time></trkpt><trkpt lat="43.3557406" lon="11.9379593"><ele>408.28571428571433</ele><time>2026-04-19T13:44:32.12Z</time></trkpt><trkpt lat="43.3557411" lon="11.9380532"><ele>412.1428571428571</ele><time>2026-04-19T13:44:34.12Z</time></trkpt><trkpt lat="43.3557269" lon="11.9381508"><ele>416.0</ele><time>2026-04-19T13:44:36.121Z</time></trkpt><trkpt lat="43.3557118" lon="11.938247"><ele>416.0</ele><time>2026-04-19T13:44:38.121Z</time></trkpt><trkpt lat="43.3556893" lon="11.9383476"><ele>416.0</ele><time>2026-04-19T13:44:40.121Z</time></trkpt><trkpt lat="43.3556622" lon="11.9384403"><ele>416.0</ele><time>2026-04-19T13:44:42.121Z</time></trkpt><trkpt lat="43.3556286" lon="11.9385215"><ele>416.0</ele><time>2026-04-19T13:44:44.121Z</time></trkpt><trkpt lat="43.3555868" lon="11.9385951"><ele>416.0</ele><time>2026-04-19T13:44:46.121Z</time></trkpt><trkpt lat="43.3555488" lon="11.9386707"><ele>416.0</ele><time>2026-04-19T13:44:48.121Z</time></trkpt><trkpt lat="43.3555239" lon="11.9387854"><ele>416.0</ele><time>2026-04-19T13:44:51.121Z</time></trkpt><trkpt lat="43.3555188" lon="11.9389014"><ele>416.66666666666663</ele><time>2026-04-19T13:44:54.121Z</time></trkpt><trkpt lat="43.3555207" lon="11.9390197"><ele>417.3333333333333</ele><time>2026-04-19T13:44:57.121Z</time></trkpt><trkpt lat="43.3555404" lon="11.9391388"><ele>418.0</ele><time>2026-04-19T13:45:00.12Z</time></trkpt><trkpt lat="43.3555757" lon="11.9392483"><ele>418.66666666666663</ele><time>2026-04-19T13:45:03.121Z</time></trkpt><trkpt lat="43.3556104" lon="11.939359"><ele>419.3333333333333</ele><time>2026-04-19T13:45:06.12Z</time></trkpt><trkpt lat="43.3556556" lon="11.9394554"><ele>420.0</ele><time>2026-04-19T13:45:09.121Z</time></trkpt><trkpt lat="43.3557081" lon="11.9395449"><ele>418.1666666666667</ele><time>2026-04-19T13:45:12.121Z</time></trkpt><trkpt lat="43.3557567" lon="11.9396279"><ele>416.33333333333337</ele><time>2026-04-19T13:45:15.121Z</time></trkpt><trkpt lat="43.3558109" lon="11.9397026"><ele>414.5</ele><time>2026-04-19T13:45:18.121Z</time></trkpt><trkpt lat="43.3558636" lon="11.9397841"><ele>412.6666666666667</ele><time>2026-04-19T13:45:21.121Z</time></trkpt><trkpt lat="43.3559078" lon="11.9398678"><ele>410.83333333333337</ele><time>2026-04-19T13:45:24.121Z</time></trkpt><trkpt lat="43.3559673" lon="11.939948"><ele>409.0</ele><time>2026-04-19T13:45:27.12Z</time></trkpt><trkpt lat="43.3560087" lon="11.9400379"><ele>407.50000000000006</ele><time>2026-04-19T13:45:30.121Z</time></trkpt><trkpt lat="43.3560579" lon="11.9401242"><ele>406.0</ele><time>2026-04-19T13:45:33.121Z</time></trkpt><trkpt lat="43.3561004" lon="11.9402144"><ele>404.5</ele><time>2026-04-19T13:45:36.121Z</time></trkpt><trkpt lat="43.3561444" lon="11.9403023"><ele>403.0</ele><time>2026-04-19T13:45:39.12Z</time></trkpt><trkpt lat="43.3562059" lon="11.9403737"><ele>401.50000000000006</ele><time>2026-04-19T13:45:42.121Z</time></trkpt><trkpt lat="43.3562701" lon="11.9404488"><ele>400.0</ele><time>2026-04-19T13:45:45.121Z</time></trkpt><trkpt lat="43.3563439" lon="11.9405091"><ele>404.00000000000006</ele><time>2026-04-19T13:45:48.121Z</time></trkpt><trkpt lat="43.3564214" lon="11.9405653"><ele>408.0</ele><time>2026-04-19T13:45:51.121Z</time></trkpt><trkpt lat="43.356489" lon="11.9406246"><ele>412.0</ele><time>2026-04-19T13:45:54.12Z</time></trkpt><trkpt lat="43.3565605" lon="11.9406808"><ele>416.0</ele><time>2026-04-19T13:45:57.121Z</time></trkpt><trkpt lat="43.3566351" lon="11.9407303"><ele>420.00000000000006</ele><time>2026-04-19T13:46:00.121Z</time></trkpt><trkpt lat="43.3566999" lon="11.9407871"><ele>424.0</ele><time>2026-04-19T13:46:03.121Z</time></trkpt><trkpt lat="43.3567696" lon="11.9408499"><ele>424.00000000000006</ele><time>2026-04-19T13:46:06.12Z</time></trkpt><trkpt lat="43.3568388" lon="11.9408801"><ele>424.0</ele><time>2026-04-19T13:46:09.121Z</time></trkpt><trkpt lat="43.3569225" lon="11.94091"><ele>424.0</ele><time>2026-04-19T13:46:12.121Z</time></trkpt><trkpt lat="43.3569967" lon="11.9409843"><ele>424.0</ele><time>2026-04-19T13:46:15.12Z</time></trkpt><trkpt lat="43.3570367" lon="11.941091"><ele>424.00000000000006</ele><time>2026-04-19T13:46:18.121Z</time></trkpt><trkpt lat="43.357036" lon="11.9411853"><ele>424.0</ele><time>2026-04-19T13:46:20.121Z</time></trkpt><trkpt lat="43.3570212" lon="11.9412738"><ele>424.2857142857143</ele><time>2026-04-19T13:46:22.121Z</time></trkpt><trkpt lat="43.3569888" lon="11.9413524"><ele>424.57142857142856</ele><time>2026-04-19T13:46:24.12Z</time></trkpt><trkpt lat="43.3569381" lon="11.9414105"><ele>424.85714285714283</ele><time>2026-04-19T13:46:26.12Z</time></trkpt><trkpt lat="43.3568842" lon="11.941459"><ele>425.1428571428571</ele><time>2026-04-19T13:46:28.121Z</time></trkpt><trkpt lat="43.3568095" lon="11.9415221"><ele>425.42857142857144</ele><time>2026-04-19T13:46:31.12Z</time></trkpt><trkpt lat="43.3567472" lon="11.9415878"><ele>425.71428571428567</ele><time>2026-04-19T13:46:34.121Z</time></trkpt><trkpt lat="43.3566825" lon="11.9416642"><ele>426.0</ele><time>2026-04-19T13:46:37.12Z</time></trkpt><trkpt lat="43.3566097" lon="11.9417298"><ele>427.0</ele><time>2026-04-19T13:46:40.121Z</time></trkpt><trkpt lat="43.3565602" lon="11.9417833"><ele>428.0</ele><time>2026-04-19T13:46:42.12Z</time></trkpt><trkpt lat="43.3564914" lon="11.9418596"><ele>429.0</ele><time>2026-04-19T13:46:45.121Z</time></trkpt><trkpt lat="43.3564238" lon="11.9419412"><ele>430.0</ele><time>2026-04-19T13:46:48.121Z</time></trkpt><trkpt lat="43.356349" lon="11.9419917"><ele>431.0</ele><time>2026-04-19T13:46:51.12Z</time></trkpt><trkpt lat="43.3562767" lon="11.94203"><ele>432.0</ele><time>2026-04-19T13:46:54.12Z</time></trkpt><trkpt lat="43.3561937" lon="11.9420749"><ele>432.0</ele><time>2026-04-19T13:46:57.12Z</time></trkpt><trkpt lat="43.3561167" lon="11.942112"><ele>432.0</ele><time>2026-04-19T13:47:00.12Z</time></trkpt><trkpt lat="43.356046" lon="11.9421508"><ele>432.0</ele><time>2026-04-19T13:47:03.12Z</time></trkpt><trkpt lat="43.3559597" lon="11.9421771"><ele>432.0</ele><time>2026-04-19T13:47:06.121Z</time></trkpt><trkpt lat="43.3558994" lon="11.9422044"><ele>432.0</ele><time>2026-04-19T13:47:08.121Z</time></trkpt><trkpt lat="43.3558202" lon="11.9422478"><ele>432.0</ele><time>2026-04-19T13:47:11.121Z</time></trkpt><trkpt lat="43.3557399" lon="11.9422777"><ele>432.0</ele><time>2026-04-19T13:47:14.12Z</time></trkpt><trkpt lat="43.3556784" lon="11.9423027"><ele>432.0</ele><time>2026-04-19T13:47:16.121Z</time></trkpt><trkpt lat="43.3555908" lon="11.9423383"><ele>432.0</ele><time>2026-04-19T13:47:19.121Z</time></trkpt><trkpt lat="43.3555125" lon="11.9423786"><ele>432.0</ele><time>2026-04-19T13:47:22.121Z</time></trkpt><trkpt lat="43.3554237" lon="11.9424197"><ele>432.0</ele><time>2026-04-19T13:47:25.121Z</time></trkpt><trkpt lat="43.3553367" lon="11.9424509"><ele>432.0</ele><time>2026-04-19T13:47:28.121Z</time></trkpt><trkpt lat="43.3552481" lon="11.9424812"><ele>430.3333333333333</ele><time>2026-04-19T13:47:31.121Z</time></trkpt><trkpt lat="43.355165" lon="11.9425234"><ele>428.66666666666663</ele><time>2026-04-19T13:47:34.121Z</time></trkpt><trkpt lat="43.3550795" lon="11.9425667"><ele>427.0</ele><time>2026-04-19T13:47:37.121Z</time></trkpt><trkpt lat="43.3550066" lon="11.9426352"><ele>425.3333333333333</ele><time>2026-04-19T13:47:40.12Z</time></trkpt><trkpt lat="43.3549701" lon="11.9427385"><ele>423.66666666666663</ele><time>2026-04-19T13:47:43.12Z</time></trkpt><trkpt lat="43.3549702" lon="11.9428583"><ele>422.0</ele><time>2026-04-19T13:47:46.12Z</time></trkpt><trkpt lat="43.3550188" lon="11.9429623"><ele>421.8333333333333</ele><time>2026-04-19T13:47:49.12Z</time></trkpt><trkpt lat="43.3550884" lon="11.9430378"><ele>421.66666666666663</ele><time>2026-04-19T13:47:52.12Z</time></trkpt><trkpt lat="43.3551638" lon="11.9430968"><ele>421.5</ele><time>2026-04-19T13:47:55.121Z</time></trkpt><trkpt lat="43.3552376" lon="11.9431486"><ele>421.33333333333337</ele><time>2026-04-19T13:47:58.121Z</time></trkpt><trkpt lat="43.3553203" lon="11.9432029"><ele>421.1666666666667</ele><time>2026-04-19T13:48:01.121Z</time></trkpt><trkpt lat="43.3554007" lon="11.9432622"><ele>421.0</ele><time>2026-04-19T13:48:04.12Z</time></trkpt><trkpt lat="43.3554728" lon="11.9433287"><ele>421.33333333333337</ele><time>2026-04-19T13:48:07.12Z</time></trkpt><trkpt lat="43.3555495" lon="11.9433813"><ele>421.6666666666667</ele><time>2026-04-19T13:48:10.121Z</time></trkpt><trkpt lat="43.3556248" lon="11.9434384"><ele>422.0</ele><time>2026-04-19T13:48:13.12Z</time></trkpt><trkpt lat="43.3557009" lon="11.9434866"><ele>422.33333333333337</ele><time>2026-04-19T13:48:16.121Z</time></trkpt><trkpt lat="43.3557802" lon="11.9435415"><ele>422.6666666666667</ele><time>2026-04-19T13:48:19.121Z</time></trkpt><trkpt lat="43.3558647" lon="11.9435985"><ele>423.0</ele><time>2026-04-19T13:48:22.121Z</time></trkpt><trkpt lat="43.3559214" lon="11.9436421"><ele>423.0</ele><time>2026-04-19T13:48:24.121Z</time></trkpt><trkpt lat="43.355997" lon="11.9437041"><ele>423.0</ele><time>2026-04-19T13:48:27.121Z</time></trkpt><trkpt lat="43.3560531" lon="11.9437453"><ele>423.0</ele><time>2026-04-19T13:48:29.12Z</time></trkpt><trkpt lat="43.3561256" lon="11.9437991"><ele>423.0</ele><time>2026-04-19T13:48:32.121Z</time></trkpt><trkpt lat="43.3561967" lon="11.943853"><ele>423.0</ele><time>2026-04-19T13:48:35.121Z</time></trkpt><trkpt lat="43.3562703" lon="11.9439131"><ele>423.0</ele><time>2026-04-19T13:48:38.121Z</time></trkpt><trkpt lat="43.3563355" lon="11.9439767"><ele>424.1666666666667</ele><time>2026-04-19T13:48:41.121Z</time></trkpt><trkpt lat="43.3563994" lon="11.9440534"><ele>425.33333333333337</ele><time>2026-04-19T13:48:44.121Z</time></trkpt><trkpt lat="43.3564519" lon="11.9441058"><ele>426.5</ele><time>2026-04-19T13:48:46.121Z</time></trkpt><trkpt lat="43.3565156" lon="11.9441779"><ele>427.6666666666667</ele><time>2026-04-19T13:48:49.121Z</time></trkpt><trkpt lat="43.3565896" lon="11.9442585"><ele>428.83333333333337</ele><time>2026-04-19T13:48:52.12Z</time></trkpt><trkpt lat="43.3566576" lon="11.9443388"><ele>430.0</ele><time>2026-04-19T13:48:55.12Z</time></trkpt><trkpt lat="43.3567299" lon="11.9444168"><ele>430.00000000000006</ele><time>2026-04-19T13:48:58.12Z</time></trkpt><trkpt lat="43.3567899" lon="11.9445032"><ele>430.0</ele><time>2026-04-19T13:49:01.121Z</time></trkpt><trkpt lat="43.3568489" lon="11.944589"><ele>430.0</ele><time>2026-04-19T13:49:04.121Z</time></trkpt><trkpt lat="43.3568911" lon="11.944654"><ele>430.0</ele><time>2026-04-19T13:49:06.12Z</time></trkpt><trkpt lat="43.3569379" lon="11.9447506"><ele>430.00000000000006</ele><time>2026-04-19T13:49:09.12Z</time></trkpt><trkpt lat="43.3569792" lon="11.9448532"><ele>430.0</ele><time>2026-04-19T13:49:12.121Z</time></trkpt><trkpt lat="43.3570132" lon="11.9449582"><ele>427.6666666666667</ele><time>2026-04-19T13:49:15.121Z</time></trkpt><trkpt lat="43.3570443" lon="11.945079"><ele>425.33333333333337</ele><time>2026-04-19T13:49:18.121Z</time></trkpt><trkpt lat="43.3570897" lon="11.9451885"><ele>423.0</ele><time>2026-04-19T13:49:21.121Z</time></trkpt><trkpt lat="43.3571437" lon="11.9452935"><ele>420.66666666666663</ele><time>2026-04-19T13:49:24.121Z</time></trkpt><trkpt lat="43.3572066" lon="11.9453855"><ele>418.3333333333333</ele><time>2026-04-19T13:49:27.121Z</time></trkpt><trkpt lat="43.3572549" lon="11.9454691"><ele>416.0</ele><time>2026-04-19T13:49:30.12Z</time></trkpt><trkpt lat="43.3573078" lon="11.9455181"><ele>421.66666666666663</ele><time>2026-04-19T13:49:32.121Z</time></trkpt><trkpt lat="43.3573903" lon="11.9455764"><ele>427.3333333333333</ele><time>2026-04-19T13:49:35.121Z</time></trkpt><trkpt lat="43.3574766" lon="11.9456157"><ele>433.0</ele><time>2026-04-19T13:49:38.121Z</time></trkpt><trkpt lat="43.3575601" lon="11.9456513"><ele>438.66666666666663</ele><time>2026-04-19T13:49:41.121Z</time></trkpt><trkpt lat="43.3576365" lon="11.9456853"><ele>444.3333333333333</ele><time>2026-04-19T13:49:44.121Z</time></trkpt><trkpt lat="43.3576948" lon="11.9457498"><ele>450.0</ele><time>2026-04-19T13:49:47.121Z</time></trkpt><trkpt lat="43.3577118" lon="11.945855"><ele>447.1666666666667</ele><time>2026-04-19T13:49:50.121Z</time></trkpt><trkpt lat="43.3577158" lon="11.9459728"><ele>444.33333333333337</ele><time>2026-04-19T13:49:53.12Z</time></trkpt><trkpt lat="43.3577257" lon="11.9460775"><ele>441.5</ele><time>2026-04-19T13:49:56.12Z</time></trkpt><trkpt lat="43.3577602" lon="11.9461892"><ele>438.6666666666667</ele><time>2026-04-19T13:49:59.121Z</time></trkpt><trkpt lat="43.3577933" lon="11.9462735"><ele>435.83333333333337</ele><time>2026-04-19T13:50:01.121Z</time></trkpt><trkpt lat="43.357833" lon="11.9463409"><ele>433.0</ele><time>2026-04-19T13:50:03.12Z</time></trkpt><trkpt lat="43.3578922" lon="11.9464241"><ele>433.00000000000006</ele><time>2026-04-19T13:50:06.121Z</time></trkpt><trkpt lat="43.3579481" lon="11.9464758"><ele>433.0</ele><time>2026-04-19T13:50:08.12Z</time></trkpt><trkpt lat="43.3580217" lon="11.9465472"><ele>433.0</ele><time>2026-04-19T13:50:11.121Z</time></trkpt><trkpt lat="43.358099" lon="11.9466119"><ele>433.0</ele><time>2026-04-19T13:50:14.121Z</time></trkpt><trkpt lat="43.3581759" lon="11.9466863"><ele>433.00000000000006</ele><time>2026-04-19T13:50:17.121Z</time></trkpt><trkpt lat="43.3582273" lon="11.9467602"><ele>433.0</ele><time>2026-04-19T13:50:20.12Z</time></trkpt><trkpt lat="43.3582753" lon="11.9468346"><ele>436.50000000000006</ele><time>2026-04-19T13:50:23.121Z</time></trkpt><trkpt lat="43.3583294" lon="11.9469065"><ele>440.0</ele><time>2026-04-19T13:50:26.121Z</time></trkpt><trkpt lat="43.358387" lon="11.9470058"><ele>443.5</ele><time>2026-04-19T13:50:29.121Z</time></trkpt><trkpt lat="43.3584412" lon="11.9471006"><ele>447.0</ele><time>2026-04-19T13:50:32.121Z</time></trkpt><trkpt lat="43.3584979" lon="11.947188"><ele>450.50000000000006</ele><time>2026-04-19T13:50:35.12Z</time></trkpt><trkpt lat="43.3585349" lon="11.9472858"><ele>454.0</ele><time>2026-04-19T13:50:38.121Z</time></trkpt><trkpt lat="43.3585556" lon="11.9473918"><ele>454.00000000000006</ele><time>2026-04-19T13:50:41.121Z</time></trkpt><trkpt lat="43.3585817" lon="11.9474939"><ele>454.0</ele><time>2026-04-19T13:50:44.121Z</time></trkpt><trkpt lat="43.3586149" lon="11.9475987"><ele>454.0</ele><time>2026-04-19T13:50:47.12Z</time></trkpt><trkpt lat="43.3586638" lon="11.9476934"><ele>454.0</ele><time>2026-04-19T13:50:50.12Z</time></trkpt><trkpt lat="43.3587033" lon="11.9477615"><ele>454.00000000000006</ele><time>2026-04-19T13:50:52.121Z</time></trkpt><trkpt lat="43.3587515" lon="11.9478477"><ele>454.0</ele><time>2026-04-19T13:50:55.121Z</time></trkpt><trkpt lat="43.3587971" lon="11.9479462"><ele>454.42857142857144</ele><time>2026-04-19T13:50:58.121Z</time></trkpt><trkpt lat="43.3588274" lon="11.9480255"><ele>454.8571428571429</ele><time>2026-04-19T13:51:00.121Z</time></trkpt><trkpt lat="43.358867" lon="11.9481335"><ele>455.28571428571433</ele><time>2026-04-19T13:51:03.121Z</time></trkpt><trkpt lat="43.3589071" lon="11.9482003"><ele>455.7142857142858</ele><time>2026-04-19T13:51:05.121Z</time></trkpt><trkpt lat="43.358952" lon="11.9482704"><ele>456.14285714285717</ele><time>2026-04-19T13:51:07.12Z</time></trkpt><trkpt lat="43.3589902" lon="11.9483407"><ele>456.57142857142867</ele><time>2026-04-19T13:51:09.121Z</time></trkpt><trkpt lat="43.3590306" lon="11.9484083"><ele>457.00000000000006</ele><time>2026-04-19T13:51:11.12Z</time></trkpt><trkpt lat="43.3590791" lon="11.9484709"><ele>461.83333333333337</ele><time>2026-04-19T13:51:13.121Z</time></trkpt><trkpt lat="43.3591335" lon="11.9485223"><ele>466.6666666666667</ele><time>2026-04-19T13:51:15.121Z</time></trkpt><trkpt lat="43.3591802" lon="11.948584"><ele>471.5</ele><time>2026-04-19T13:51:17.121Z</time></trkpt><trkpt lat="43.3592032" lon="11.9486849"><ele>476.33333333333337</ele><time>2026-04-19T13:51:20.121Z</time></trkpt><trkpt lat="43.3591752" lon="11.9487887"><ele>481.1666666666667</ele><time>2026-04-19T13:51:23.121Z</time></trkpt><trkpt lat="43.3591278" lon="11.9488834"><ele>486.0</ele><time>2026-04-19T13:51:26.12Z</time></trkpt><trkpt lat="43.3590628" lon="11.9489588"><ele>486.0</ele><time>2026-04-19T13:51:29.121Z</time></trkpt><trkpt lat="43.3589876" lon="11.9490222"><ele>486.0</ele><time>2026-04-19T13:51:32.121Z</time></trkpt><trkpt lat="43.3589133" lon="11.9490791"><ele>486.0</ele><time>2026-04-19T13:51:35.12Z</time></trkpt><trkpt lat="43.3588328" lon="11.9491082"><ele>486.0</ele><time>2026-04-19T13:51:38.121Z</time></trkpt><trkpt lat="43.3587699" lon="11.9491309"><ele>486.0</ele><time>2026-04-19T13:51:40.121Z</time></trkpt><trkpt lat="43.3586996" lon="11.9491489"><ele>486.0</ele><time>2026-04-19T13:51:43.12Z</time></trkpt><trkpt lat="43.3586279" lon="11.9491687"><ele>485.1666666666667</ele><time>2026-04-19T13:51:46.12Z</time></trkpt><trkpt lat="43.358553" lon="11.9491605"><ele>484.33333333333337</ele><time>2026-04-19T13:51:49.12Z</time></trkpt><trkpt lat="43.3584847" lon="11.9491458"><ele>483.5</ele><time>2026-04-19T13:51:52.121Z</time></trkpt><trkpt lat="43.3584207" lon="11.949151"><ele>482.6666666666667</ele><time>2026-04-19T13:51:54.121Z</time></trkpt><trkpt lat="43.3583321" lon="11.9491533"><ele>481.83333333333337</ele><time>2026-04-19T13:51:57.12Z</time></trkpt><trkpt lat="43.3582532" lon="11.9491466"><ele>481.0</ele><time>2026-04-19T13:52:00.121Z</time></trkpt><trkpt lat="43.3581605" lon="11.9491305"><ele>481.00000000000006</ele><time>2026-04-19T13:52:03.12Z</time></trkpt><trkpt lat="43.3580674" lon="11.9491037"><ele>481.0</ele><time>2026-04-19T13:52:06.121Z</time></trkpt><trkpt lat="43.3579753" lon="11.949079"><ele>481.0</ele><time>2026-04-19T13:52:09.121Z</time></trkpt><trkpt lat="43.3578971" lon="11.9490493"><ele>481.0</ele><time>2026-04-19T13:52:12.12Z</time></trkpt><trkpt lat="43.3578097" lon="11.9490383"><ele>481.00000000000006</ele><time>2026-04-19T13:52:15.121Z</time></trkpt><trkpt lat="43.357727" lon="11.9490656"><ele>481.0</ele><time>2026-04-19T13:52:18.12Z</time></trkpt><trkpt lat="43.3576569" lon="11.9491288"><ele>484.50000000000006</ele><time>2026-04-19T13:52:21.12Z</time></trkpt><trkpt lat="43.3575983" lon="11.9492106"><ele>488.0</ele><time>2026-04-19T13:52:24.121Z</time></trkpt><trkpt lat="43.3575264" lon="11.949271"><ele>491.5</ele><time>2026-04-19T13:52:27.121Z</time></trkpt><trkpt lat="43.3574525" lon="11.9493204"><ele>495.0</ele><time>2026-04-19T13:52:30.121Z</time></trkpt><trkpt lat="43.3573752" lon="11.9493636"><ele>498.50000000000006</ele><time>2026-04-19T13:52:33.121Z</time></trkpt><trkpt lat="43.3572981" lon="11.9493836"><ele>502.0</ele><time>2026-04-19T13:52:36.121Z</time></trkpt><trkpt lat="43.3572229" lon="11.9493887"><ele>502.50000000000006</ele><time>2026-04-19T13:52:39.12Z</time></trkpt><trkpt lat="43.3571414" lon="11.949405"><ele>503.0</ele><time>2026-04-19T13:52:42.121Z</time></trkpt><trkpt lat="43.3570666" lon="11.9494195"><ele>503.5</ele><time>2026-04-19T13:52:45.121Z</time></trkpt><trkpt lat="43.3569959" lon="11.9494309"><ele>504.0</ele><time>2026-04-19T13:52:48.121Z</time></trkpt><trkpt lat="43.3569213" lon="11.9494432"><ele>504.50000000000006</ele><time>2026-04-19T13:52:51.121Z</time></trkpt><trkpt lat="43.3568516" lon="11.9494503"><ele>505.0</ele><time>2026-04-19T13:52:54.121Z</time></trkpt><trkpt lat="43.3567605" lon="11.9494467"><ele>505.0</ele><time>2026-04-19T13:52:57.121Z</time></trkpt><trkpt lat="43.3566915" lon="11.9494282"><ele>504.99999999999994</ele><time>2026-04-19T13:53:00.12Z</time></trkpt><trkpt lat="43.3566195" lon="11.9494178"><ele>505.0</ele><time>2026-04-19T13:53:03.12Z</time></trkpt><trkpt lat="43.3565444" lon="11.9494122"><ele>505.0</ele><time>2026-04-19T13:53:06.12Z</time></trkpt><trkpt lat="43.3564706" lon="11.9494255"><ele>504.99999999999994</ele><time>2026-04-19T13:53:09.121Z</time></trkpt><trkpt lat="43.3563948" lon="11.9494553"><ele>505.0</ele><time>2026-04-19T13:53:12.121Z</time></trkpt><trkpt lat="43.3563328" lon="11.9495085"><ele>505.0</ele><time>2026-04-19T13:53:15.12Z</time></trkpt><trkpt lat="43.3562684" lon="11.9495631"><ele>502.83333333333337</ele><time>2026-04-19T13:53:18.121Z</time></trkpt><trkpt lat="43.3561951" lon="11.9496119"><ele>500.6666666666667</ele><time>2026-04-19T13:53:21.121Z</time></trkpt><trkpt lat="43.3561453" lon="11.949666"><ele>498.5</ele><time>2026-04-19T13:53:23.12Z</time></trkpt><trkpt lat="43.3560771" lon="11.9497432"><ele>496.33333333333337</ele><time>2026-04-19T13:53:26.121Z</time></trkpt><trkpt lat="43.3560081" lon="11.9497928"><ele>494.1666666666667</ele><time>2026-04-19T13:53:29.12Z</time></trkpt><trkpt lat="43.3559403" lon="11.9498394"><ele>492.0</ele><time>2026-04-19T13:53:32.121Z</time></trkpt><trkpt lat="43.3558727" lon="11.9498813"><ele>492.0</ele><time>2026-04-19T13:53:35.121Z</time></trkpt><trkpt lat="43.3558014" lon="11.9499243"><ele>492.0</ele><time>2026-04-19T13:53:38.121Z</time></trkpt><trkpt lat="43.3557395" lon="11.9499763"><ele>492.0</ele><time>2026-04-19T13:53:41.12Z</time></trkpt><trkpt lat="43.3556876" lon="11.9500499"><ele>492.0</ele><time>2026-04-19T13:53:44.12Z</time></trkpt><trkpt lat="43.3556551" lon="11.9501378"><ele>492.0</ele><time>2026-04-19T13:53:47.121Z</time></trkpt><trkpt lat="43.3556438" lon="11.9502425"><ele>492.0</ele><time>2026-04-19T13:53:50.121Z</time></trkpt><trkpt lat="43.3556514" lon="11.9503518"><ele>492.5</ele><time>2026-04-19T13:53:53.12Z</time></trkpt><trkpt lat="43.3556654" lon="11.9504516"><ele>493.0</ele><time>2026-04-19T13:53:56.12Z</time></trkpt><trkpt lat="43.3556871" lon="11.9505665"><ele>493.5</ele><time>2026-04-19T13:53:59.121Z</time></trkpt><trkpt lat="43.3556916" lon="11.9506834"><ele>494.0</ele><time>2026-04-19T13:54:02.121Z</time></trkpt><trkpt lat="43.3556787" lon="11.9507993"><ele>494.5</ele><time>2026-04-19T13:54:05.12Z</time></trkpt><trkpt lat="43.3556712" lon="11.9509068"><ele>495.0</ele><time>2026-04-19T13:54:08.121Z</time></trkpt><trkpt lat="43.3556697" lon="11.9510243"><ele>495.0</ele><time>2026-04-19T13:54:11.12Z</time></trkpt><trkpt lat="43.3556913" lon="11.9511288"><ele>495.0</ele><time>2026-04-19T13:54:14.121Z</time></trkpt><trkpt lat="43.3557111" lon="11.9512443"><ele>495.0</ele><time>2026-04-19T13:54:17.121Z</time></trkpt><trkpt lat="43.355745" lon="11.9513516"><ele>495.0</ele><time>2026-04-19T13:54:20.12Z</time></trkpt><trkpt lat="43.3557955" lon="11.9514531"><ele>495.0</ele><time>2026-04-19T13:54:23.12Z</time></trkpt><trkpt lat="43.355842" lon="11.9515518"><ele>495.0</ele><time>2026-04-19T13:54:26.121Z</time></trkpt><trkpt lat="43.3558937" lon="11.9516456"><ele>492.3333333333333</ele><time>2026-04-19T13:54:29.121Z</time></trkpt><trkpt lat="43.3559408" lon="11.9517248"><ele>489.66666666666663</ele><time>2026-04-19T13:54:32.12Z</time></trkpt><trkpt lat="43.3560127" lon="11.9517882"><ele>487.0</ele><time>2026-04-19T13:54:35.121Z</time></trkpt><trkpt lat="43.3560941" lon="11.9518236"><ele>484.3333333333333</ele><time>2026-04-19T13:54:38.121Z</time></trkpt><trkpt lat="43.3561734" lon="11.9518437"><ele>481.66666666666663</ele><time>2026-04-19T13:54:41.121Z</time></trkpt><trkpt lat="43.3562538" lon="11.9518527"><ele>479.0</ele><time>2026-04-19T13:54:44.12Z</time></trkpt><trkpt lat="43.3563391" lon="11.9518634"><ele>479.66666666666663</ele><time>2026-04-19T13:54:47.121Z</time></trkpt><trkpt lat="43.3564025" lon="11.9518746"><ele>480.3333333333333</ele><time>2026-04-19T13:54:49.121Z</time></trkpt><trkpt lat="43.356495" lon="11.951885"><ele>481.0</ele><time>2026-04-19T13:54:52.121Z</time></trkpt><trkpt lat="43.356569" lon="11.9518973"><ele>481.66666666666663</ele><time>2026-04-19T13:54:55.121Z</time></trkpt><trkpt lat="43.3566619" lon="11.9519074"><ele>482.3333333333333</ele><time>2026-04-19T13:54:58.12Z</time></trkpt><trkpt lat="43.3567492" lon="11.9519157"><ele>483.0</ele><time>2026-04-19T13:55:01.121Z</time></trkpt><trkpt lat="43.3568317" lon="11.9519592"><ele>483.0</ele><time>2026-04-19T13:55:04.12Z</time></trkpt><trkpt lat="43.3569063" lon="11.9520046"><ele>483.0</ele><time>2026-04-19T13:55:07.12Z</time></trkpt><trkpt lat="43.3569604" lon="11.9520532"><ele>483.0</ele><time>2026-04-19T13:55:09.121Z</time></trkpt><trkpt lat="43.3570124" lon="11.9521113"><ele>483.0</ele><time>2026-04-19T13:55:11.12Z</time></trkpt><trkpt lat="43.3570728" lon="11.9521971"><ele>483.0</ele><time>2026-04-19T13:55:14.121Z</time></trkpt><trkpt lat="43.3571375" lon="11.9522814"><ele>483.0</ele><time>2026-04-19T13:55:17.121Z</time></trkpt><trkpt lat="43.3572027" lon="11.9523649"><ele>482.3333333333333</ele><time>2026-04-19T13:55:20.121Z</time></trkpt><trkpt lat="43.3572645" lon="11.952452"><ele>481.66666666666663</ele><time>2026-04-19T13:55:23.12Z</time></trkpt><trkpt lat="43.3573347" lon="11.9525207"><ele>481.0</ele><time>2026-04-19T13:55:26.12Z</time></trkpt><trkpt lat="43.357415" lon="11.95257"><ele>480.3333333333333</ele><time>2026-04-19T13:55:29.121Z</time></trkpt><trkpt lat="43.3575007" lon="11.9526107"><ele>479.66666666666663</ele><time>2026-04-19T13:55:32.12Z</time></trkpt><trkpt lat="43.3575813" lon="11.9525876"><ele>479.0</ele><time>2026-04-19T13:55:35.121Z</time></trkpt><trkpt lat="43.3576548" lon="11.9525251"><ele>482.8333333333333</ele><time>2026-04-19T13:55:38.12Z</time></trkpt><trkpt lat="43.3577091" lon="11.9524291"><ele>486.66666666666663</ele><time>2026-04-19T13:55:41.121Z</time></trkpt><trkpt lat="43.3577502" lon="11.9523247"><ele>490.5</ele><time>2026-04-19T13:55:44.121Z</time></trkpt><trkpt lat="43.357791" lon="11.952216"><ele>494.33333333333337</ele><time>2026-04-19T13:55:47.12Z</time></trkpt><trkpt lat="43.3578304" lon="11.9521131"><ele>498.1666666666667</ele><time>2026-04-19T13:55:50.121Z</time></trkpt><trkpt lat="43.3578597" lon="11.9520009"><ele>502.0</ele><time>2026-04-19T13:55:53.12Z</time></trkpt><trkpt lat="43.3578968" lon="11.9518996"><ele>502.00000000000006</ele><time>2026-04-19T13:55:56.12Z</time></trkpt><trkpt lat="43.3579426" lon="11.9517904"><ele>502.0</ele><time>2026-04-19T13:55:59.121Z</time></trkpt><trkpt lat="43.3579781" lon="11.9516842"><ele>502.0</ele><time>2026-04-19T13:56:02.121Z</time></trkpt><trkpt lat="43.3580197" lon="11.9516184"><ele>502.0</ele><time>2026-04-19T13:56:04.12Z</time></trkpt><trkpt lat="43.3580886" lon="11.9515369"><ele>502.00000000000006</ele><time>2026-04-19T13:56:07.12Z</time></trkpt><trkpt lat="43.3581671" lon="11.9514734"><ele>502.0</ele><time>2026-04-19T13:56:10.121Z</time></trkpt><trkpt lat="43.3582254" lon="11.9514406"><ele>503.33333333333337</ele><time>2026-04-19T13:56:12.12Z</time></trkpt><trkpt lat="43.3583121" lon="11.9514294"><ele>504.6666666666667</ele><time>2026-04-19T13:56:15.121Z</time></trkpt><trkpt lat="43.358397" lon="11.9514385"><ele>506.0</ele><time>2026-04-19T13:56:18.12Z</time></trkpt><trkpt lat="43.3584873" lon="11.951448"><ele>507.33333333333337</ele><time>2026-04-19T13:56:21.121Z</time></trkpt><trkpt lat="43.3585783" lon="11.9514392"><ele>508.6666666666667</ele><time>2026-04-19T13:56:24.121Z</time></trkpt><trkpt lat="43.3586413" lon="11.9514303"><ele>510.0</ele><time>2026-04-19T13:56:26.121Z</time></trkpt><trkpt lat="43.3587312" lon="11.9514257"><ele>510.0</ele><time>2026-04-19T13:56:29.121Z</time></trkpt><trkpt lat="43.3588202" lon="11.9514167"><ele>510.0</ele><time>2026-04-19T13:56:32.121Z</time></trkpt><trkpt lat="43.3589044" lon="11.9514022"><ele>510.0</ele><time>2026-04-19T13:56:35.12Z</time></trkpt><trkpt lat="43.3589868" lon="11.9513992"><ele>510.0</ele><time>2026-04-19T13:56:38.12Z</time></trkpt><trkpt lat="43.3590732" lon="11.9513987"><ele>510.0</ele><time>2026-04-19T13:56:41.12Z</time></trkpt><trkpt lat="43.3591593" lon="11.9513951"><ele>510.0</ele><time>2026-04-19T13:56:44.121Z</time></trkpt><trkpt lat="43.3592465" lon="11.9514055"><ele>509.3333333333333</ele><time>2026-04-19T13:56:47.12Z</time></trkpt><trkpt lat="43.3593336" lon="11.951435"><ele>508.66666666666663</ele><time>2026-04-19T13:56:50.121Z</time></trkpt><trkpt lat="43.3594144" lon="11.9514735"><ele>508.0</ele><time>2026-04-19T13:56:53.12Z</time></trkpt><trkpt lat="43.3594895" lon="11.951513"><ele>507.3333333333333</ele><time>2026-04-19T13:56:56.121Z</time></trkpt><trkpt lat="43.3595616" lon="11.9515648"><ele>506.66666666666663</ele><time>2026-04-19T13:56:59.121Z</time></trkpt><trkpt lat="43.359639" lon="11.9516134"><ele>506.0</ele><time>2026-04-19T13:57:02.121Z</time></trkpt><trkpt lat="43.3597042" lon="11.9516544"><ele>507.66666666666663</ele><time>2026-04-19T13:57:05.121Z</time></trkpt><trkpt lat="43.3597888" lon="11.9516814"><ele>509.3333333333333</ele><time>2026-04-19T13:57:08.121Z</time></trkpt><trkpt lat="43.3598663" lon="11.9516865"><ele>511.0</ele><time>2026-04-19T13:57:11.121Z</time></trkpt><trkpt lat="43.3599428" lon="11.9516981"><ele>512.6666666666666</ele><time>2026-04-19T13:57:14.121Z</time></trkpt><trkpt lat="43.3600197" lon="11.9516826"><ele>514.3333333333334</ele><time>2026-04-19T13:57:17.12Z</time></trkpt><trkpt lat="43.3600951" lon="11.95165"><ele>516.0</ele><time>2026-04-19T13:57:20.121Z</time></trkpt><trkpt lat="43.3601676" lon="11.9516291"><ele>516.0</ele><time>2026-04-19T13:57:23.121Z</time></trkpt><trkpt lat="43.3602559" lon="11.9516112"><ele>516.0</ele><time>2026-04-19T13:57:26.12Z</time></trkpt><trkpt lat="43.3603392" lon="11.9516042"><ele>516.0</ele><time>2026-04-19T13:57:29.121Z</time></trkpt><trkpt lat="43.3604259" lon="11.9515847"><ele>516.0</ele><time>2026-04-19T13:57:32.12Z</time></trkpt><trkpt lat="43.3605021" lon="11.951586"><ele>516.0</ele><time>2026-04-19T13:57:35.12Z</time></trkpt><trkpt lat="43.3605845" lon="11.9516076"><ele>516.0</ele><time>2026-04-19T13:57:38.121Z</time></trkpt><trkpt lat="43.3606587" lon="11.951633"><ele>517.8333333333334</ele><time>2026-04-19T13:57:41.121Z</time></trkpt><trkpt lat="43.3607391" lon="11.951684"><ele>519.6666666666666</ele><time>2026-04-19T13:57:44.121Z</time></trkpt><trkpt lat="43.3608147" lon="11.9517415"><ele>521.5</ele><time>2026-04-19T13:57:47.121Z</time></trkpt><trkpt lat="43.3608838" lon="11.951802"><ele>523.3333333333333</ele><time>2026-04-19T13:57:50.121Z</time></trkpt><trkpt lat="43.3609549" lon="11.9518653"><ele>525.1666666666666</ele><time>2026-04-19T13:57:53.12Z</time></trkpt><trkpt lat="43.3610344" lon="11.9519209"><ele>527.0</ele><time>2026-04-19T13:57:56.121Z</time></trkpt><trkpt lat="43.3611058" lon="11.9519561"><ele>522.1666666666666</ele><time>2026-04-19T13:57:59.121Z</time></trkpt><trkpt lat="43.3611938" lon="11.9519757"><ele>517.3333333333333</ele><time>2026-04-19T13:58:02.12Z</time></trkpt><trkpt lat="43.3612674" lon="11.9519795"><ele>512.5</ele><time>2026-04-19T13:58:05.121Z</time></trkpt><trkpt lat="43.3613466" lon="11.9519729"><ele>507.66666666666663</ele><time>2026-04-19T13:58:08.121Z</time></trkpt><trkpt lat="43.3614154" lon="11.9519545"><ele>502.8333333333333</ele><time>2026-04-19T13:58:11.121Z</time></trkpt><trkpt lat="43.3614935" lon="11.9519296"><ele>498.0</ele><time>2026-04-19T13:58:14.121Z</time></trkpt><trkpt lat="43.3615734" lon="11.9518968"><ele>498.0</ele><time>2026-04-19T13:58:17.119Z</time></trkpt><trkpt lat="43.3616503" lon="11.9518696"><ele>498.0</ele><time>2026-04-19T13:58:20.119Z</time></trkpt><trkpt lat="43.3617281" lon="11.9518077"><ele>498.0</ele><time>2026-04-19T13:58:23.119Z</time></trkpt><trkpt lat="43.3617832" lon="11.95175"><ele>498.0</ele><time>2026-04-19T13:58:26.12Z</time></trkpt><trkpt lat="43.3618418" lon="11.9516779"><ele>498.0</ele><time>2026-04-19T13:58:29.119Z</time></trkpt><trkpt lat="43.3618973" lon="11.9515999"><ele>498.0</ele><time>2026-04-19T13:58:32.12Z</time></trkpt><trkpt lat="43.3619436" lon="11.9515127"><ele>500.1666666666667</ele><time>2026-04-19T13:58:35.119Z</time></trkpt><trkpt lat="43.3619877" lon="11.9514139"><ele>502.33333333333337</ele><time>2026-04-19T13:58:38.12Z</time></trkpt><trkpt lat="43.3620376" lon="11.9513304"><ele>504.5</ele><time>2026-04-19T13:58:41.12Z</time></trkpt><trkpt lat="43.362117" lon="11.9512693"><ele>506.6666666666667</ele><time>2026-04-19T13:58:44.12Z</time></trkpt><trkpt lat="43.3621887" lon="11.9512432"><ele>508.83333333333337</ele><time>2026-04-19T13:58:47.119Z</time></trkpt><trkpt lat="43.3622657" lon="11.9512418"><ele>511.0</ele><time>2026-04-19T13:58:50.119Z</time></trkpt><trkpt lat="43.3623369" lon="11.9512506"><ele>511.00000000000006</ele><time>2026-04-19T13:58:53.12Z</time></trkpt><trkpt lat="43.3624179" lon="11.95124"><ele>511.0</ele><time>2026-04-19T13:58:56.12Z</time></trkpt><trkpt lat="43.3624844" lon="11.9511963"><ele>511.0</ele><time>2026-04-19T13:58:59.121Z</time></trkpt><trkpt lat="43.3625543" lon="11.9511287"><ele>511.0</ele><time>2026-04-19T13:59:02.12Z</time></trkpt><trkpt lat="43.3626215" lon="11.9510544"><ele>511.00000000000006</ele><time>2026-04-19T13:59:05.119Z</time></trkpt><trkpt lat="43.3626712" lon="11.9509787"><ele>511.0</ele><time>2026-04-19T13:59:08.119Z</time></trkpt><trkpt lat="43.3627214" lon="11.9508994"><ele>516.0</ele><time>2026-04-19T13:59:11.12Z</time></trkpt><trkpt lat="43.3627558" lon="11.95081"><ele>521.0</ele><time>2026-04-19T13:59:14.12Z</time></trkpt><trkpt lat="43.3628103" lon="11.9507149"><ele>526.0</ele><time>2026-04-19T13:59:17.12Z</time></trkpt><trkpt lat="43.3628652" lon="11.9506242"><ele>531.0</ele><time>2026-04-19T13:59:20.119Z</time></trkpt><trkpt lat="43.3629349" lon="11.9505463"><ele>536.0</ele><time>2026-04-19T13:59:23.12Z</time></trkpt><trkpt lat="43.3630189" lon="11.9505115"><ele>541.0</ele><time>2026-04-19T13:59:26.119Z</time></trkpt><trkpt lat="43.3631039" lon="11.9505314"><ele>541.0</ele><time>2026-04-19T13:59:29.12Z</time></trkpt><trkpt lat="43.3631708" lon="11.9505663"><ele>541.0</ele><time>2026-04-19T13:59:32.12Z</time></trkpt><trkpt lat="43.3632341" lon="11.9505873"><ele>541.0</ele><time>2026-04-19T13:59:34.12Z</time></trkpt><trkpt lat="43.363307" lon="11.9506387"><ele>541.0</ele><time>2026-04-19T13:59:37.12Z</time></trkpt><trkpt lat="43.363361" lon="11.9507187"><ele>541.0</ele><time>2026-04-19T13:59:40.12Z</time></trkpt><trkpt lat="43.3634158" lon="11.9508066"><ele>541.0</ele><time>2026-04-19T13:59:43.119Z</time></trkpt><trkpt lat="43.3634737" lon="11.9508924"><ele>541.0</ele><time>2026-04-19T13:59:46.119Z</time></trkpt><trkpt lat="43.3635354" lon="11.950968"><ele>541.0</ele><time>2026-04-19T13:59:49.12Z</time></trkpt><trkpt lat="43.3636074" lon="11.9509959"><ele>541.0</ele><time>2026-04-19T13:59:52.12Z</time></trkpt><trkpt lat="43.3636744" lon="11.9509653"><ele>541.0</ele><time>2026-04-19T13:59:55.119Z</time></trkpt><trkpt lat="43.3637332" lon="11.950884"><ele>541.0</ele><time>2026-04-19T13:59:58.119Z</time></trkpt><trkpt lat="43.3637801" lon="11.9508258"><ele>541.0</ele><time>2026-04-19T14:00:00.119Z</time></trkpt><trkpt lat="43.3638315" lon="11.9507395"><ele>541.3333333333334</ele><time>2026-04-19T14:00:03.12Z</time></trkpt><trkpt lat="43.3638773" lon="11.9506328"><ele>541.6666666666667</ele><time>2026-04-19T14:00:07.119Z</time></trkpt><trkpt lat="43.3639289" lon="11.9505608"><ele>542.0</ele><time>2026-04-19T14:00:10.12Z</time></trkpt><trkpt lat="43.363988" lon="11.9504956"><ele>542.3333333333334</ele><time>2026-04-19T14:00:14.12Z</time></trkpt><trkpt lat="43.3640567" lon="11.9504664"><ele>542.6666666666666</ele><time>2026-04-19T14:00:17.12Z</time></trkpt><trkpt lat="43.3641312" lon="11.9504772"><ele>543.0</ele><time>2026-04-19T14:00:20.12Z</time></trkpt><trkpt lat="43.3641906" lon="11.9505165"><ele>543.0</ele><time>2026-04-19T14:00:22.12Z</time></trkpt><trkpt lat="43.3642504" lon="11.9505583"><ele>543.0</ele><time>2026-04-19T14:00:24.119Z</time></trkpt><trkpt lat="43.3643136" lon="11.9506139"><ele>543.0</ele><time>2026-04-19T14:00:27.119Z</time></trkpt><trkpt lat="43.3643863" lon="11.9506818"><ele>543.0</ele><time>2026-04-19T14:00:30.12Z</time></trkpt><trkpt lat="43.3644584" lon="11.9507374"><ele>543.0</ele><time>2026-04-19T14:00:33.12Z</time></trkpt><trkpt lat="43.3645187" lon="11.9507668"><ele>543.0</ele><time>2026-04-19T14:00:35.119Z</time></trkpt><trkpt lat="43.3645947" lon="11.950788"><ele>543.0</ele><time>2026-04-19T14:00:38.119Z</time></trkpt><trkpt lat="43.3646823" lon="11.9507687"><ele>543.0</ele><time>2026-04-19T14:00:41.119Z</time></trkpt><trkpt lat="43.3647466" lon="11.9507591"><ele>543.0</ele><time>2026-04-19T14:00:43.12Z</time></trkpt><trkpt lat="43.3648126" lon="11.9507493"><ele>543.0</ele><time>2026-04-19T14:00:45.12Z</time></trkpt><trkpt lat="43.3648837" lon="11.9507482"><ele>543.0</ele><time>2026-04-19T14:00:48.12Z</time></trkpt><trkpt lat="43.3649611" lon="11.9507652"><ele>543.0</ele><time>2026-04-19T14:00:51.12Z</time></trkpt><trkpt lat="43.3650482" lon="11.9507628"><ele>545.0</ele><time>2026-04-19T14:00:54.12Z</time></trkpt><trkpt lat="43.3651316" lon="11.950746"><ele>547.0</ele><time>2026-04-19T14:00:57.119Z</time></trkpt><trkpt lat="43.3652111" lon="11.950761"><ele>549.0</ele><time>2026-04-19T14:01:00.12Z</time></trkpt><trkpt lat="43.3652854" lon="11.9507797"><ele>551.0</ele><time>2026-04-19T14:01:03.119Z</time></trkpt><trkpt lat="43.3653571" lon="11.9508204"><ele>553.0</ele><time>2026-04-19T14:01:06.12Z</time></trkpt><trkpt lat="43.3654408" lon="11.9508409"><ele>555.0</ele><time>2026-04-19T14:01:09.119Z</time></trkpt><trkpt lat="43.3655112" lon="11.9509074"><ele>556.0</ele><time>2026-04-19T14:01:12.12Z</time></trkpt><trkpt lat="43.3655549" lon="11.9509706"><ele>557.0</ele><time>2026-04-19T14:01:14.12Z</time></trkpt><trkpt lat="43.3656122" lon="11.951073"><ele>558.0</ele><time>2026-04-19T14:01:17.119Z</time></trkpt><trkpt lat="43.3656596" lon="11.9511789"><ele>559.0</ele><time>2026-04-19T14:01:20.119Z</time></trkpt><trkpt lat="43.3657049" lon="11.9512828"><ele>560.0</ele><time>2026-04-19T14:01:23.119Z</time></trkpt><trkpt lat="43.3657436" lon="11.9513896"><ele>561.0</ele><time>2026-04-19T14:01:26.12Z</time></trkpt><trkpt lat="43.3657945" lon="11.9515004"><ele>561.0</ele><time>2026-04-19T14:01:29.12Z</time></trkpt><trkpt lat="43.3658254" lon="11.9515819"><ele>561.0</ele><time>2026-04-19T14:01:31.12Z</time></trkpt><trkpt lat="43.3658528" lon="11.951695"><ele>561.0</ele><time>2026-04-19T14:01:34.119Z</time></trkpt><trkpt lat="43.3658663" lon="11.9517991"><ele>561.0</ele><time>2026-04-19T14:01:37.12Z</time></trkpt><trkpt lat="43.3658585" lon="11.9519107"><ele>561.0</ele><time>2026-04-19T14:01:40.12Z</time></trkpt><trkpt lat="43.3658602" lon="11.9520338"><ele>561.0</ele><time>2026-04-19T14:01:43.119Z</time></trkpt><trkpt lat="43.3658626" lon="11.9521491"><ele>558.8333333333334</ele><time>2026-04-19T14:01:46.12Z</time></trkpt><trkpt lat="43.3658727" lon="11.9522649"><ele>556.6666666666666</ele><time>2026-04-19T14:01:49.12Z</time></trkpt><trkpt lat="43.3659004" lon="11.9523768"><ele>554.5</ele><time>2026-04-19T14:01:52.119Z</time></trkpt><trkpt lat="43.3659416" lon="11.9524851"><ele>552.3333333333333</ele><time>2026-04-19T14:01:55.119Z</time></trkpt><trkpt lat="43.3659968" lon="11.9525425"><ele>550.1666666666666</ele><time>2026-04-19T14:01:57.119Z</time></trkpt><trkpt lat="43.3660778" lon="11.9525951"><ele>548.0</ele><time>2026-04-19T14:02:00.12Z</time></trkpt><trkpt lat="43.366143" lon="11.9526175"><ele>544.8333333333333</ele><time>2026-04-19T14:02:02.119Z</time></trkpt><trkpt lat="43.3662302" lon="11.9526243"><ele>541.6666666666666</ele><time>2026-04-19T14:02:05.12Z</time></trkpt><trkpt lat="43.3662988" lon="11.9525813"><ele>538.5</ele><time>2026-04-19T14:02:08.12Z</time></trkpt><trkpt lat="43.3663768" lon="11.9525338"><ele>535.3333333333334</ele><time>2026-04-19T14:02:11.119Z</time></trkpt><trkpt lat="43.3664601" lon="11.9524865"><ele>532.1666666666667</ele><time>2026-04-19T14:02:14.12Z</time></trkpt><trkpt lat="43.3665375" lon="11.9524537"><ele>529.0</ele><time>2026-04-19T14:02:16.12Z</time></trkpt><trkpt lat="43.3666141" lon="11.9524441"><ele>535.3333333333334</ele><time>2026-04-19T14:02:18.119Z</time></trkpt><trkpt lat="43.366687" lon="11.9524358"><ele>541.6666666666667</ele><time>2026-04-19T14:02:20.12Z</time></trkpt><trkpt lat="43.3667771" lon="11.9524421"><ele>548.0</ele><time>2026-04-19T14:02:23.12Z</time></trkpt><trkpt lat="43.3668534" lon="11.9524435"><ele>554.3333333333334</ele><time>2026-04-19T14:02:26.119Z</time></trkpt><trkpt lat="43.3669284" lon="11.9524135"><ele>560.6666666666666</ele><time>2026-04-19T14:02:29.12Z</time></trkpt><trkpt lat="43.3670082" lon="11.9523638"><ele>567.0</ele><time>2026-04-19T14:02:32.119Z</time></trkpt><trkpt lat="43.3670818" lon="11.9523077"><ele>567.0</ele><time>2026-04-19T14:02:35.12Z</time></trkpt><trkpt lat="43.3671553" lon="11.9522552"><ele>567.0</ele><time>2026-04-19T14:02:38.12Z</time></trkpt><trkpt lat="43.367231" lon="11.9521919"><ele>567.0</ele><time>2026-04-19T14:02:42.12Z</time></trkpt><trkpt lat="43.3673048" lon="11.9521588"><ele>567.0</ele><time>2026-04-19T14:02:45.12Z</time></trkpt><trkpt lat="43.3673805" lon="11.9521235"><ele>567.0</ele><time>2026-04-19T14:02:48.119Z</time></trkpt><trkpt lat="43.3674447" lon="11.9520724"><ele>567.0</ele><time>2026-04-19T14:02:51.12Z</time></trkpt><trkpt lat="43.3675087" lon="11.9520332"><ele>567.7142857142857</ele><time>2026-04-19T14:02:54.12Z</time></trkpt><trkpt lat="43.3675666" lon="11.9519944"><ele>568.4285714285714</ele><time>2026-04-19T14:02:57.119Z</time></trkpt><trkpt lat="43.3676366" lon="11.9519489"><ele>569.1428571428571</ele><time>2026-04-19T14:03:01.12Z</time></trkpt><trkpt lat="43.3676861" lon="11.9518945"><ele>569.8571428571429</ele><time>2026-04-19T14:03:04.119Z</time></trkpt><trkpt lat="43.3677439" lon="11.9518228"><ele>570.5714285714286</ele><time>2026-04-19T14:03:07.12Z</time></trkpt><trkpt lat="43.3677931" lon="11.9517458"><ele>571.2857142857142</ele><time>2026-04-19T14:03:10.12Z</time></trkpt><trkpt lat="43.3678353" lon="11.951653"><ele>572.0</ele><time>2026-04-19T14:03:14.12Z</time></trkpt><trkpt lat="43.3678974" lon="11.9516002"><ele>571.9999999999999</ele><time>2026-04-19T14:03:18.12Z</time></trkpt><trkpt lat="43.3678226" lon="11.9516338"><ele>572.0</ele><time>2026-04-19T14:03:28.12Z</time></trkpt><trkpt lat="43.3677586" lon="11.9516919"><ele>572.0</ele><time>2026-04-19T14:03:31.12Z</time></trkpt><trkpt lat="43.3677108" lon="11.9517767"><ele>572.0</ele><time>2026-04-19T14:03:34.12Z</time></trkpt><trkpt lat="43.367655" lon="11.9518407"><ele>572.0</ele><time>2026-04-19T14:03:37.12Z</time></trkpt><trkpt lat="43.3675863" lon="11.9518919"><ele>571.9999999999999</ele><time>2026-04-19T14:03:40.12Z</time></trkpt><trkpt lat="43.3675353" lon="11.9519454"><ele>572.0</ele><time>2026-04-19T14:03:42.12Z</time></trkpt><trkpt lat="43.3674606" lon="11.9520214"><ele>572.0</ele><time>2026-04-19T14:03:44.12Z</time></trkpt><trkpt lat="43.3673654" lon="11.9521003"><ele>572.0</ele><time>2026-04-19T14:03:46.12Z</time></trkpt><trkpt lat="43.3672514" lon="11.9521699"><ele>572.0</ele><time>2026-04-19T14:03:48.119Z</time></trkpt><trkpt lat="43.3671802" lon="11.9522052"><ele>572.0</ele><time>2026-04-19T14:03:49.12Z</time></trkpt><trkpt lat="43.3671112" lon="11.9522528"><ele>572.0</ele><time>2026-04-19T14:03:50.12Z</time></trkpt><trkpt lat="43.3670444" lon="11.9523063"><ele>571.1666666666666</ele><time>2026-04-19T14:03:51.12Z</time></trkpt><trkpt lat="43.3669679" lon="11.9523579"><ele>570.3333333333333</ele><time>2026-04-19T14:03:52.12Z</time></trkpt><trkpt lat="43.3668878" lon="11.952397"><ele>569.5</ele><time>2026-04-19T14:03:53.12Z</time></trkpt><trkpt lat="43.3668053" lon="11.9524272"><ele>568.6666666666666</ele><time>2026-04-19T14:03:54.119Z</time></trkpt><trkpt lat="43.366715" lon="11.9524379"><ele>567.8333333333334</ele><time>2026-04-19T14:03:55.12Z</time></trkpt><trkpt lat="43.366623" lon="11.9524373"><ele>567.0</ele><time>2026-04-19T14:03:56.12Z</time></trkpt><trkpt lat="43.3665343" lon="11.9524461"><ele>567.0</ele><time>2026-04-19T14:03:57.119Z</time></trkpt><trkpt lat="43.3664475" lon="11.9524757"><ele>567.0</ele><time>2026-04-19T14:03:58.119Z</time></trkpt><trkpt lat="43.3663639" lon="11.952518"><ele>567.0</ele><time>2026-04-19T14:03:59.12Z</time></trkpt><trkpt lat="43.3662827" lon="11.9525586"><ele>567.0</ele><time>2026-04-19T14:04:00.12Z</time></trkpt><trkpt lat="43.3661911" lon="11.9525665"><ele>567.0</ele><time>2026-04-19T14:04:01.12Z</time></trkpt><trkpt lat="43.36609" lon="11.9525385"><ele>563.2</ele><time>2026-04-19T14:04:02.12Z</time></trkpt><trkpt lat="43.3660034" lon="11.9524831"><ele>559.4000000000001</ele><time>2026-04-19T14:04:03.12Z</time></trkpt><trkpt lat="43.3659374" lon="11.9523741"><ele>555.5999999999999</ele><time>2026-04-19T14:04:04.12Z</time></trkpt><trkpt lat="43.3659035" lon="11.9522482"><ele>551.8</ele><time>2026-04-19T14:04:05.119Z</time></trkpt><trkpt lat="43.3658864" lon="11.9521103"><ele>548.0</ele><time>2026-04-19T14:04:06.12Z</time></trkpt><trkpt lat="43.3658841" lon="11.9519717"><ele>548.0</ele><time>2026-04-19T14:04:07.119Z</time></trkpt><trkpt lat="43.3658824" lon="11.9518339"><ele>548.0</ele><time>2026-04-19T14:04:08.12Z</time></trkpt><trkpt lat="43.3658661" lon="11.9516925"><ele>548.0</ele><time>2026-04-19T14:04:09.12Z</time></trkpt><trkpt lat="43.3658421" lon="11.9515637"><ele>548.0</ele><time>2026-04-19T14:04:10.12Z</time></trkpt><trkpt lat="43.3657999" lon="11.9514429"><ele>548.0</ele><time>2026-04-19T14:04:11.119Z</time></trkpt><trkpt lat="43.3657484" lon="11.951318"><ele>549.4</ele><time>2026-04-19T14:04:12.12Z</time></trkpt><trkpt lat="43.3656914" lon="11.9511904"><ele>550.8</ele><time>2026-04-19T14:04:13.119Z</time></trkpt><trkpt lat="43.3656381" lon="11.951067"><ele>552.2</ele><time>2026-04-19T14:04:14.12Z</time></trkpt><trkpt lat="43.3655787" lon="11.9509464"><ele>553.6</ele><time>2026-04-19T14:04:15.12Z</time></trkpt><trkpt lat="43.3655013" lon="11.9508444"><ele>555.0</ele><time>2026-04-19T14:04:16.119Z</time></trkpt><trkpt lat="43.3654083" lon="11.9507722"><ele>555.0</ele><time>2026-04-19T14:04:17.12Z</time></trkpt><trkpt lat="43.3653033" lon="11.95072"><ele>555.0</ele><time>2026-04-19T14:04:18.12Z</time></trkpt><trkpt lat="43.3651952" lon="11.9506824"><ele>555.0</ele><time>2026-04-19T14:04:19.12Z</time></trkpt><trkpt lat="43.3650832" lon="11.9506678"><ele>555.0</ele><time>2026-04-19T14:04:20.12Z</time></trkpt><trkpt lat="43.3649724" lon="11.9506659"><ele>555.0</ele><time>2026-04-19T14:04:21.119Z</time></trkpt><trkpt lat="43.3648609" lon="11.9506649"><ele>555.0</ele><time>2026-04-19T14:04:22.12Z</time></trkpt><trkpt lat="43.3647467" lon="11.9506623"><ele>555.0</ele><time>2026-04-19T14:04:23.119Z</time></trkpt><trkpt lat="43.3646333" lon="11.9506742"><ele>555.0</ele><time>2026-04-19T14:04:24.119Z</time></trkpt><trkpt lat="43.3645194" lon="11.95067"><ele>555.0</ele><time>2026-04-19T14:04:25.12Z</time></trkpt><trkpt lat="43.3644115" lon="11.9506196"><ele>552.6</ele><time>2026-04-19T14:04:26.119Z</time></trkpt><trkpt lat="43.3643079" lon="11.9505384"><ele>550.2</ele><time>2026-04-19T14:04:27.12Z</time></trkpt><trkpt lat="43.364219" lon="11.9504581"><ele>547.8</ele><time>2026-04-19T14:04:28.12Z</time></trkpt><trkpt lat="43.3641321" lon="11.9503913"><ele>545.4</ele><time>2026-04-19T14:04:29.12Z</time></trkpt><trkpt lat="43.3640354" lon="11.9503697"><ele>543.0</ele><time>2026-04-19T14:04:30.12Z</time></trkpt><trkpt lat="43.3639462" lon="11.9504038"><ele>543.0</ele><time>2026-04-19T14:04:31.119Z</time></trkpt><trkpt lat="43.363869" lon="11.9504817"><ele>543.0</ele><time>2026-04-19T14:04:32.12Z</time></trkpt><trkpt lat="43.36381" lon="11.9506006"><ele>543.0</ele><time>2026-04-19T14:04:33.119Z</time></trkpt><trkpt lat="43.3637547" lon="11.9507284"><ele>543.0</ele><time>2026-04-19T14:04:34.119Z</time></trkpt><trkpt lat="43.3636952" lon="11.9508382"><ele>543.0</ele><time>2026-04-19T14:04:35.119Z</time></trkpt><trkpt lat="43.3636158" lon="11.9508905"><ele>542.6</ele><time>2026-04-19T14:04:36.12Z</time></trkpt><trkpt lat="43.3635271" lon="11.9508771"><ele>542.1999999999999</ele><time>2026-04-19T14:04:37.119Z</time></trkpt><trkpt lat="43.3634466" lon="11.9508056"><ele>541.8</ele><time>2026-04-19T14:04:38.12Z</time></trkpt><trkpt lat="43.3633696" lon="11.9507175"><ele>541.4</ele><time>2026-04-19T14:04:39.12Z</time></trkpt><trkpt lat="43.3632945" lon="11.9506176"><ele>541.0</ele><time>2026-04-19T14:04:40.12Z</time></trkpt><trkpt lat="43.363209" lon="11.9505294"><ele>541.0</ele><time>2026-04-19T14:04:41.12Z</time></trkpt><trkpt lat="43.3631113" lon="11.9504715"><ele>541.0</ele><time>2026-04-19T14:04:42.12Z</time></trkpt><trkpt lat="43.3629994" lon="11.9504402"><ele>541.0</ele><time>2026-04-19T14:04:43.119Z</time></trkpt><trkpt lat="43.3628938" lon="11.9504795"><ele>541.0</ele><time>2026-04-19T14:04:44.12Z</time></trkpt><trkpt lat="43.3628081" lon="11.9505765"><ele>541.0</ele><time>2026-04-19T14:04:45.119Z</time></trkpt><trkpt lat="43.3627423" lon="11.95069"><ele>542.4</ele><time>2026-04-19T14:04:46.12Z</time></trkpt><trkpt lat="43.3626848" lon="11.9508169"><ele>543.8</ele><time>2026-04-19T14:04:47.12Z</time></trkpt><trkpt lat="43.3626214" lon="11.9509372"><ele>545.1999999999999</ele><time>2026-04-19T14:04:48.119Z</time></trkpt><trkpt lat="43.362549" lon="11.9510492"><ele>546.6</ele><time>2026-04-19T14:04:49.119Z</time></trkpt><trkpt lat="43.362468" lon="11.9511397"><ele>548.0</ele><time>2026-04-19T14:04:50.119Z</time></trkpt><trkpt lat="43.3623635" lon="11.9511849"><ele>544.4</ele><time>2026-04-19T14:04:51.119Z</time></trkpt><trkpt lat="43.3622583" lon="11.951206"><ele>540.8</ele><time>2026-04-19T14:04:52.12Z</time></trkpt><trkpt lat="43.3621509" lon="11.9512224"><ele>537.2</ele><time>2026-04-19T14:04:53.119Z</time></trkpt><trkpt lat="43.3620528" lon="11.951261"><ele>533.6</ele><time>2026-04-19T14:04:54.119Z</time></trkpt><trkpt lat="43.3619679" lon="11.9513628"><ele>530.0</ele><time>2026-04-19T14:04:55.12Z</time></trkpt><trkpt lat="43.3619021" lon="11.9514845"><ele>530.0</ele><time>2026-04-19T14:04:56.12Z</time></trkpt><trkpt lat="43.3618346" lon="11.9516031"><ele>530.0</ele><time>2026-04-19T14:04:57.12Z</time></trkpt><trkpt lat="43.3617617" lon="11.9517123"><ele>530.0</ele><time>2026-04-19T14:04:58.119Z</time></trkpt><trkpt lat="43.3616786" lon="11.9517987"><ele>530.0</ele><time>2026-04-19T14:04:59.12Z</time></trkpt><trkpt lat="43.3615841" lon="11.9518603"><ele>530.0</ele><time>2026-04-19T14:05:00.119Z</time></trkpt><trkpt lat="43.361478" lon="11.9518957"><ele>522.0</ele><time>2026-04-19T14:05:01.12Z</time></trkpt><trkpt lat="43.3613698" lon="11.9519297"><ele>514.0</ele><time>2026-04-19T14:05:02.119Z</time></trkpt><trkpt lat="43.3612587" lon="11.9519378"><ele>506.0</ele><time>2026-04-19T14:05:03.12Z</time></trkpt><trkpt lat="43.3611434" lon="11.9519202"><ele>498.0</ele><time>2026-04-19T14:05:04.12Z</time></trkpt><trkpt lat="43.3610329" lon="11.9518728"><ele>497.5</ele><time>2026-04-19T14:05:05.119Z</time></trkpt><trkpt lat="43.3609284" lon="11.9517984"><ele>497.0</ele><time>2026-04-19T14:05:06.119Z</time></trkpt><trkpt lat="43.3608333" lon="11.9517131"><ele>496.5</ele><time>2026-04-19T14:05:07.119Z</time></trkpt><trkpt lat="43.3607347" lon="11.9516387"><ele>496.0</ele><time>2026-04-19T14:05:08.119Z</time></trkpt><trkpt lat="43.3606345" lon="11.9515779"><ele>500.0</ele><time>2026-04-19T14:05:09.12Z</time></trkpt><trkpt lat="43.3605356" lon="11.9515314"><ele>504.0</ele><time>2026-04-19T14:05:10.12Z</time></trkpt><trkpt lat="43.3604306" lon="11.9515245"><ele>508.0</ele><time>2026-04-19T14:05:11.119Z</time></trkpt><trkpt lat="43.3603189" lon="11.9515453"><ele>512.0</ele><time>2026-04-19T14:05:12.12Z</time></trkpt><trkpt lat="43.3602109" lon="11.9515655"><ele>516.0</ele><time>2026-04-19T14:05:13.12Z</time></trkpt><trkpt lat="43.3601086" lon="11.9515894"><ele>516.0</ele><time>2026-04-19T14:05:14.12Z</time></trkpt><trkpt lat="43.3599983" lon="11.9516121"><ele>516.0</ele><time>2026-04-19T14:05:15.119Z</time></trkpt><trkpt lat="43.3598892" lon="11.9516282"><ele>516.0</ele><time>2026-04-19T14:05:16.119Z</time></trkpt><trkpt lat="43.3597804" lon="11.9516265"><ele>516.0</ele><time>2026-04-19T14:05:17.119Z</time></trkpt><trkpt lat="43.3596704" lon="11.9515925"><ele>516.0</ele><time>2026-04-19T14:05:18.119Z</time></trkpt><trkpt lat="43.3595676" lon="11.9515454"><ele>514.0</ele><time>2026-04-19T14:05:19.12Z</time></trkpt><trkpt lat="43.3594686" lon="11.9514761"><ele>512.0</ele><time>2026-04-19T14:05:20.12Z</time></trkpt><trkpt lat="43.359372" lon="11.9514066"><ele>510.0</ele><time>2026-04-19T14:05:21.119Z</time></trkpt><trkpt lat="43.3592667" lon="11.9513512"><ele>508.0</ele><time>2026-04-19T14:05:22.12Z</time></trkpt><trkpt lat="43.3591558" lon="11.9513228"><ele>506.0</ele><time>2026-04-19T14:05:23.12Z</time></trkpt><trkpt lat="43.3590367" lon="11.9513248"><ele>506.0</ele><time>2026-04-19T14:05:24.12Z</time></trkpt><trkpt lat="43.3589191" lon="11.9513361"><ele>506.0</ele><time>2026-04-19T14:05:25.119Z</time></trkpt><trkpt lat="43.3588046" lon="11.9513487"><ele>506.0</ele><time>2026-04-19T14:05:26.119Z</time></trkpt><trkpt lat="43.3586874" lon="11.9513673"><ele>506.0</ele><time>2026-04-19T14:05:27.12Z</time></trkpt><trkpt lat="43.358574" lon="11.9513842"><ele>506.8</ele><time>2026-04-19T14:05:28.12Z</time></trkpt><trkpt lat="43.3584649" lon="11.9513891"><ele>507.6</ele><time>2026-04-19T14:05:29.119Z</time></trkpt><trkpt lat="43.3583526" lon="11.9513867"><ele>508.4</ele><time>2026-04-19T14:05:30.12Z</time></trkpt><trkpt lat="43.3582407" lon="11.9513922"><ele>509.2</ele><time>2026-04-19T14:05:31.12Z</time></trkpt><trkpt lat="43.3581362" lon="11.9514267"><ele>510.0</ele><time>2026-04-19T14:05:32.12Z</time></trkpt><trkpt lat="43.3580454" lon="11.9514949"><ele>508.4</ele><time>2026-04-19T14:05:33.12Z</time></trkpt><trkpt lat="43.3579673" lon="11.9515956"><ele>506.8</ele><time>2026-04-19T14:05:34.119Z</time></trkpt><trkpt lat="43.3579037" lon="11.9517051"><ele>505.20000000000005</ele><time>2026-04-19T14:05:35.12Z</time></trkpt><trkpt lat="43.3578518" lon="11.9518298"><ele>503.6</ele><time>2026-04-19T14:05:36.12Z</time></trkpt><trkpt lat="43.3578083" lon="11.9519537"><ele>502.0</ele><time>2026-04-19T14:05:37.12Z</time></trkpt><trkpt lat="43.3577685" lon="11.9520881"><ele>502.0</ele><time>2026-04-19T14:05:38.12Z</time></trkpt><trkpt lat="43.3577284" lon="11.9522182"><ele>502.00000000000006</ele><time>2026-04-19T14:05:39.119Z</time></trkpt><trkpt lat="43.357691" lon="11.9523441"><ele>502.00000000000006</ele><time>2026-04-19T14:05:40.119Z</time></trkpt><trkpt lat="43.357636" lon="11.9524546"><ele>502.0</ele><time>2026-04-19T14:05:41.12Z</time></trkpt><trkpt lat="43.3575661" lon="11.9525285"><ele>502.0</ele><time>2026-04-19T14:05:42.119Z</time></trkpt><trkpt lat="43.3574746" lon="11.9525373"><ele>502.0</ele><time>2026-04-19T14:05:43.12Z</time></trkpt><trkpt lat="43.3573719" lon="11.9525057"><ele>502.00000000000006</ele><time>2026-04-19T14:05:44.12Z</time></trkpt><trkpt lat="43.3572805" lon="11.9524323"><ele>502.00000000000006</ele><time>2026-04-19T14:05:45.12Z</time></trkpt><trkpt lat="43.3572123" lon="11.9523436"><ele>502.0</ele><time>2026-04-19T14:05:46.119Z</time></trkpt><trkpt lat="43.3571409" lon="11.9522498"><ele>502.0</ele><time>2026-04-19T14:05:47.12Z</time></trkpt><trkpt lat="43.3570715" lon="11.9521528"><ele>498.20000000000005</ele><time>2026-04-19T14:05:48.12Z</time></trkpt><trkpt lat="43.3570054" lon="11.9520555"><ele>494.40000000000003</ele><time>2026-04-19T14:05:49.12Z</time></trkpt><trkpt lat="43.3569314" lon="11.9519694"><ele>490.59999999999997</ele><time>2026-04-19T14:05:50.12Z</time></trkpt><trkpt lat="43.3568457" lon="11.9518961"><ele>486.79999999999995</ele><time>2026-04-19T14:05:51.12Z</time></trkpt><trkpt lat="43.3567534" lon="11.9518419"><ele>483.0</ele><time>2026-04-19T14:05:52.119Z</time></trkpt><trkpt lat="43.3566573" lon="11.951806"><ele>483.0</ele><time>2026-04-19T14:05:53.12Z</time></trkpt><trkpt lat="43.3565575" lon="11.9517912"><ele>482.99999999999994</ele><time>2026-04-19T14:05:54.119Z</time></trkpt><trkpt lat="43.3564526" lon="11.9517816"><ele>482.99999999999994</ele><time>2026-04-19T14:05:55.119Z</time></trkpt><trkpt lat="43.3563498" lon="11.9517758"><ele>483.0</ele><time>2026-04-19T14:05:56.119Z</time></trkpt><trkpt lat="43.3562448" lon="11.9517705"><ele>483.0</ele><time>2026-04-19T14:05:57.119Z</time></trkpt><trkpt lat="43.3561421" lon="11.9517606"><ele>482.2</ele><time>2026-04-19T14:05:58.119Z</time></trkpt><trkpt lat="43.3560444" lon="11.9517215"><ele>481.4</ele><time>2026-04-19T14:05:59.12Z</time></trkpt><trkpt lat="43.3559536" lon="11.9516576"><ele>480.59999999999997</ele><time>2026-04-19T14:06:00.12Z</time></trkpt><trkpt lat="43.3558826" lon="11.9515702"><ele>479.79999999999995</ele><time>2026-04-19T14:06:01.119Z</time></trkpt><trkpt lat="43.355827" lon="11.9514681"><ele>479.0</ele><time>2026-04-19T14:06:02.119Z</time></trkpt><trkpt lat="43.3557756" lon="11.9513491"><ele>482.2</ele><time>2026-04-19T14:06:03.119Z</time></trkpt><trkpt lat="43.3557389" lon="11.9512301"><ele>485.4</ele><time>2026-04-19T14:06:04.12Z</time></trkpt><trkpt lat="43.3557127" lon="11.9510967"><ele>488.6</ele><time>2026-04-19T14:06:05.12Z</time></trkpt><trkpt lat="43.3556984" lon="11.9509581"><ele>491.8</ele><time>2026-04-19T14:06:06.119Z</time></trkpt><trkpt lat="43.3557023" lon="11.9508212"><ele>495.0</ele><time>2026-04-19T14:06:07.12Z</time></trkpt><trkpt lat="43.3557128" lon="11.9506914"><ele>495.4</ele><time>2026-04-19T14:06:08.119Z</time></trkpt><trkpt lat="43.3557108" lon="11.9505637"><ele>495.8</ele><time>2026-04-19T14:06:09.119Z</time></trkpt><trkpt lat="43.3556941" lon="11.9504383"><ele>496.20000000000005</ele><time>2026-04-19T14:06:10.119Z</time></trkpt><trkpt lat="43.3556777" lon="11.9503118"><ele>496.6</ele><time>2026-04-19T14:06:11.12Z</time></trkpt><trkpt lat="43.3556773" lon="11.950185"><ele>497.0</ele><time>2026-04-19T14:06:12.12Z</time></trkpt><trkpt lat="43.3557173" lon="11.9500598"><ele>496.0</ele><time>2026-04-19T14:06:13.119Z</time></trkpt><trkpt lat="43.3557896" lon="11.9499794"><ele>495.00000000000006</ele><time>2026-04-19T14:06:14.119Z</time></trkpt><trkpt lat="43.3558706" lon="11.9499083"><ele>494.00000000000006</ele><time>2026-04-19T14:06:15.119Z</time></trkpt><trkpt lat="43.3559578" lon="11.9498507"><ele>493.0</ele><time>2026-04-19T14:06:16.119Z</time></trkpt><trkpt lat="43.3560488" lon="11.9497913"><ele>492.0</ele><time>2026-04-19T14:06:17.119Z</time></trkpt><trkpt lat="43.3561388" lon="11.949714"><ele>492.0</ele><time>2026-04-19T14:06:18.12Z</time></trkpt><trkpt lat="43.3562209" lon="11.9496273"><ele>492.00000000000006</ele><time>2026-04-19T14:06:19.12Z</time></trkpt><trkpt lat="43.3563015" lon="11.9495376"><ele>492.00000000000006</ele><time>2026-04-19T14:06:20.119Z</time></trkpt><trkpt lat="43.356394" lon="11.9494685"><ele>492.0</ele><time>2026-04-19T14:06:21.119Z</time></trkpt><trkpt lat="43.3565031" lon="11.9494401"><ele>492.0</ele><time>2026-04-19T14:06:22.12Z</time></trkpt><trkpt lat="43.3566182" lon="11.9494344"><ele>495.25</ele><time>2026-04-19T14:06:23.12Z</time></trkpt><trkpt lat="43.3567326" lon="11.9494481"><ele>498.5</ele><time>2026-04-19T14:06:24.12Z</time></trkpt><trkpt lat="43.3568456" lon="11.9494544"><ele>501.75</ele><time>2026-04-19T14:06:25.119Z</time></trkpt><trkpt lat="43.3569596" lon="11.9494501"><ele>505.0</ele><time>2026-04-19T14:06:26.119Z</time></trkpt><trkpt lat="43.3570727" lon="11.9494384"><ele>505.0</ele><time>2026-04-19T14:06:27.119Z</time></trkpt><trkpt lat="43.3571875" lon="11.9494312"><ele>505.0</ele><time>2026-04-19T14:06:28.12Z</time></trkpt><trkpt lat="43.3572991" lon="11.9494278"><ele>505.0</ele><time>2026-04-19T14:06:29.119Z</time></trkpt><trkpt lat="43.3574051" lon="11.9494049"><ele>505.0</ele><time>2026-04-19T14:06:30.12Z</time></trkpt><trkpt lat="43.3575036" lon="11.9493313"><ele>505.0</ele><time>2026-04-19T14:06:31.12Z</time></trkpt><trkpt lat="43.3575921" lon="11.9492331"><ele>500.2</ele><time>2026-04-19T14:06:32.119Z</time></trkpt><trkpt lat="43.357676" lon="11.9491412"><ele>495.4</ele><time>2026-04-19T14:06:33.12Z</time></trkpt><trkpt lat="43.3577674" lon="11.9490739"><ele>490.6</ele><time>2026-04-19T14:06:34.119Z</time></trkpt><trkpt lat="43.357871" lon="11.9490439"><ele>485.8</ele><time>2026-04-19T14:06:35.119Z</time></trkpt><trkpt lat="43.3579769" lon="11.9490562"><ele>481.0</ele><time>2026-04-19T14:06:36.12Z</time></trkpt><trkpt lat="43.3580763" lon="11.9490933"><ele>481.0</ele><time>2026-04-19T14:06:37.12Z</time></trkpt><trkpt lat="43.3581823" lon="11.9491308"><ele>481.0</ele><time>2026-04-19T14:06:38.12Z</time></trkpt><trkpt lat="43.3582898" lon="11.9491578"><ele>481.0</ele><time>2026-04-19T14:06:39.12Z</time></trkpt><trkpt lat="43.358394" lon="11.9491697"><ele>481.0</ele><time>2026-04-19T14:06:40.12Z</time></trkpt><trkpt lat="43.3585033" lon="11.9491777"><ele>481.0</ele><time>2026-04-19T14:06:41.12Z</time></trkpt><trkpt lat="43.3586109" lon="11.9491791"><ele>481.0</ele><time>2026-04-19T14:06:42.12Z</time></trkpt><trkpt lat="43.3587157" lon="11.9491835"><ele>481.0</ele><time>2026-04-19T14:06:43.12Z</time></trkpt><trkpt lat="43.35882" lon="11.9491677"><ele>481.0</ele><time>2026-04-19T14:06:44.12Z</time></trkpt><trkpt lat="43.3589217" lon="11.949133"><ele>481.0</ele><time>2026-04-19T14:06:45.119Z</time></trkpt><trkpt lat="43.3590163" lon="11.9490775"><ele>481.0</ele><time>2026-04-19T14:06:46.12Z</time></trkpt><trkpt lat="43.3590972" lon="11.9489947"><ele>482.0</ele><time>2026-04-19T14:06:47.12Z</time></trkpt><trkpt lat="43.359169" lon="11.9489011"><ele>483.0</ele><time>2026-04-19T14:06:48.119Z</time></trkpt><trkpt lat="43.3592229" lon="11.948782"><ele>484.0</ele><time>2026-04-19T14:06:49.12Z</time></trkpt><trkpt lat="43.3592292" lon="11.948644"><ele>485.0</ele><time>2026-04-19T14:06:50.12Z</time></trkpt><trkpt lat="43.3591938" lon="11.9485197"><ele>486.0</ele><time>2026-04-19T14:06:51.12Z</time></trkpt><trkpt lat="43.3591201" lon="11.9484214"><ele>484.0</ele><time>2026-04-19T14:06:52.119Z</time></trkpt><trkpt lat="43.3590474" lon="11.9483357"><ele>482.0</ele><time>2026-04-19T14:06:53.12Z</time></trkpt><trkpt lat="43.358976" lon="11.9482355"><ele>480.0</ele><time>2026-04-19T14:06:54.119Z</time></trkpt><trkpt lat="43.3589173" lon="11.9481187"><ele>478.0</ele><time>2026-04-19T14:06:55.119Z</time></trkpt><trkpt lat="43.3588633" lon="11.9479984"><ele>476.0</ele><time>2026-04-19T14:06:56.119Z</time></trkpt><trkpt lat="43.3588053" lon="11.9478763"><ele>472.20000000000005</ele><time>2026-04-19T14:06:57.119Z</time></trkpt><trkpt lat="43.358749" lon="11.947754"><ele>468.40000000000003</ele><time>2026-04-19T14:06:58.119Z</time></trkpt><trkpt lat="43.3586902" lon="11.9476252"><ele>464.6</ele><time>2026-04-19T14:06:59.119Z</time></trkpt><trkpt lat="43.3586354" lon="11.9474928"><ele>460.8</ele><time>2026-04-19T14:07:00.12Z</time></trkpt><trkpt lat="43.3585871" lon="11.947356"><ele>457.0</ele><time>2026-04-19T14:07:01.12Z</time></trkpt><trkpt lat="43.3585377" lon="11.9472226"><ele>456.40000000000003</ele><time>2026-04-19T14:07:02.12Z</time></trkpt><trkpt lat="43.3584827" lon="11.9470908"><ele>455.80000000000007</ele><time>2026-04-19T14:07:03.119Z</time></trkpt><trkpt lat="43.3584129" lon="11.946973"><ele>455.2</ele><time>2026-04-19T14:07:04.12Z</time></trkpt><trkpt lat="43.3583352" lon="11.9468594"><ele>454.6</ele><time>2026-04-19T14:07:05.119Z</time></trkpt><trkpt lat="43.35825" lon="11.9467556"><ele>454.0</ele><time>2026-04-19T14:07:06.12Z</time></trkpt><trkpt lat="43.3581713" lon="11.9466498"><ele>458.0</ele><time>2026-04-19T14:07:07.12Z</time></trkpt><trkpt lat="43.3580857" lon="11.9465445"><ele>462.0</ele><time>2026-04-19T14:07:08.12Z</time></trkpt><trkpt lat="43.3579986" lon="11.9464461"><ele>466.0</ele><time>2026-04-19T14:07:09.119Z</time></trkpt><trkpt lat="43.3579076" lon="11.9463549"><ele>470.0</ele><time>2026-04-19T14:07:10.12Z</time></trkpt><trkpt lat="43.3578236" lon="11.9462452"><ele>466.0</ele><time>2026-04-19T14:07:11.12Z</time></trkpt><trkpt lat="43.3577597" lon="11.9461196"><ele>462.0</ele><time>2026-04-19T14:07:12.12Z</time></trkpt><trkpt lat="43.3577253" lon="11.9459778"><ele>458.0</ele><time>2026-04-19T14:07:13.12Z</time></trkpt><trkpt lat="43.357721" lon="11.9458464"><ele>454.0</ele><time>2026-04-19T14:07:14.119Z</time></trkpt><trkpt lat="43.3576963" lon="11.9457203"><ele>450.0</ele><time>2026-04-19T14:07:15.12Z</time></trkpt><trkpt lat="43.3576383" lon="11.9456208"><ele>450.0</ele><time>2026-04-19T14:07:16.12Z</time></trkpt><trkpt lat="43.357537" lon="11.9455623"><ele>450.0</ele><time>2026-04-19T14:07:17.12Z</time></trkpt><trkpt lat="43.3574367" lon="11.945523"><ele>450.0</ele><time>2026-04-19T14:07:18.119Z</time></trkpt><trkpt lat="43.3573418" lon="11.9454668"><ele>450.0</ele><time>2026-04-19T14:07:19.12Z</time></trkpt><trkpt lat="43.3572561" lon="11.9453867"><ele>450.0</ele><time>2026-04-19T14:07:20.119Z</time></trkpt><trkpt lat="43.3571825" lon="11.945281"><ele>446.0</ele><time>2026-04-19T14:07:21.12Z</time></trkpt><trkpt lat="43.3571234" lon="11.9451656"><ele>442.0</ele><time>2026-04-19T14:07:22.119Z</time></trkpt><trkpt lat="43.3570681" lon="11.945043"><ele>438.0</ele><time>2026-04-19T14:07:23.119Z</time></trkpt><trkpt lat="43.3570155" lon="11.9449126"><ele>434.0</ele><time>2026-04-19T14:07:24.12Z</time></trkpt><trkpt lat="43.356966" lon="11.9447856"><ele>430.0</ele><time>2026-04-19T14:07:25.119Z</time></trkpt><trkpt lat="43.3569107" lon="11.9446622"><ele>430.0</ele><time>2026-04-19T14:07:26.12Z</time></trkpt><trkpt lat="43.3568488" lon="11.9445449"><ele>430.0</ele><time>2026-04-19T14:07:27.119Z</time></trkpt><trkpt lat="43.356776" lon="11.944433"><ele>430.0</ele><time>2026-04-19T14:07:28.12Z</time></trkpt><trkpt lat="43.3566983" lon="11.9443332"><ele>430.0</ele><time>2026-04-19T14:07:29.119Z</time></trkpt><trkpt lat="43.3566166" lon="11.9442382"><ele>430.0</ele><time>2026-04-19T14:07:30.12Z</time></trkpt><trkpt lat="43.3565304" lon="11.9441442"><ele>428.6</ele><time>2026-04-19T14:07:31.12Z</time></trkpt><trkpt lat="43.3564455" lon="11.9440523"><ele>427.2</ele><time>2026-04-19T14:07:32.12Z</time></trkpt><trkpt lat="43.3563569" lon="11.943964"><ele>425.79999999999995</ele><time>2026-04-19T14:07:33.12Z</time></trkpt><trkpt lat="43.3562654" lon="11.9438799"><ele>424.4</ele><time>2026-04-19T14:07:34.12Z</time></trkpt><trkpt lat="43.3561737" lon="11.9438035"><ele>423.0</ele><time>2026-04-19T14:07:35.119Z</time></trkpt><trkpt lat="43.3560824" lon="11.943722"><ele>423.0</ele><time>2026-04-19T14:07:36.12Z</time></trkpt><trkpt lat="43.3559872" lon="11.9436421"><ele>423.0</ele><time>2026-04-19T14:07:37.12Z</time></trkpt><trkpt lat="43.3558872" lon="11.9435643"><ele>423.0</ele><time>2026-04-19T14:07:38.12Z</time></trkpt><trkpt lat="43.3557891" lon="11.9434874"><ele>423.0</ele><time>2026-04-19T14:07:39.119Z</time></trkpt><trkpt lat="43.3556874" lon="11.94341"><ele>422.59999999999997</ele><time>2026-04-19T14:07:40.12Z</time></trkpt><trkpt lat="43.3555879" lon="11.943338"><ele>422.2</ele><time>2026-04-19T14:07:41.12Z</time></trkpt><trkpt lat="43.3554895" lon="11.9432634"><ele>421.8</ele><time>2026-04-19T14:07:42.119Z</time></trkpt><trkpt lat="43.3553889" lon="11.9431905"><ele>421.4</ele><time>2026-04-19T14:07:43.12Z</time></trkpt><trkpt lat="43.3552912" lon="11.9431248"><ele>421.0</ele><time>2026-04-19T14:07:44.12Z</time></trkpt><trkpt lat="43.3551971" lon="11.9430634"><ele>421.0</ele><time>2026-04-19T14:07:45.12Z</time></trkpt><trkpt lat="43.3551126" lon="11.942998"><ele>421.0</ele><time>2026-04-19T14:07:46.12Z</time></trkpt><trkpt lat="43.3550397" lon="11.942917"><ele>421.0</ele><time>2026-04-19T14:07:47.12Z</time></trkpt><trkpt lat="43.3549953" lon="11.9428225"><ele>421.0</ele><time>2026-04-19T14:07:48.12Z</time></trkpt><trkpt lat="43.3550022" lon="11.9427063"><ele>421.0</ele><time>2026-04-19T14:07:49.12Z</time></trkpt><trkpt lat="43.355059" lon="11.9426029"><ele>421.20000000000005</ele><time>2026-04-19T14:07:50.119Z</time></trkpt><trkpt lat="43.3551346" lon="11.9425438"><ele>421.40000000000003</ele><time>2026-04-19T14:07:51.119Z</time></trkpt><trkpt lat="43.3552257" lon="11.9425058"><ele>421.6</ele><time>2026-04-19T14:07:52.12Z</time></trkpt><trkpt lat="43.3553196" lon="11.9424716"><ele>421.8</ele><time>2026-04-19T14:07:53.12Z</time></trkpt><trkpt lat="43.3554196" lon="11.9424343"><ele>422.0</ele><time>2026-04-19T14:07:54.12Z</time></trkpt><trkpt lat="43.355516" lon="11.9423963"><ele>424.0</ele><time>2026-04-19T14:07:55.119Z</time></trkpt><trkpt lat="43.3556114" lon="11.9423569"><ele>426.0</ele><time>2026-04-19T14:07:56.12Z</time></trkpt><trkpt lat="43.3557051" lon="11.9423175"><ele>428.00000000000006</ele><time>2026-04-19T14:07:57.12Z</time></trkpt><trkpt lat="43.355798" lon="11.9422811"><ele>430.0</ele><time>2026-04-19T14:07:58.119Z</time></trkpt><trkpt lat="43.3558905" lon="11.9422434"><ele>432.0</ele><time>2026-04-19T14:07:59.12Z</time></trkpt><trkpt lat="43.355984" lon="11.9422067"><ele>432.0</ele><time>2026-04-19T14:08:00.119Z</time></trkpt><trkpt lat="43.3560793" lon="11.9421614"><ele>432.00000000000006</ele><time>2026-04-19T14:08:01.12Z</time></trkpt><trkpt lat="43.3561769" lon="11.9421122"><ele>432.00000000000006</ele><time>2026-04-19T14:08:02.12Z</time></trkpt><trkpt lat="43.3562766" lon="11.9420534"><ele>432.0</ele><time>2026-04-19T14:08:03.12Z</time></trkpt><trkpt lat="43.3563764" lon="11.9419918"><ele>432.0</ele><time>2026-04-19T14:08:04.12Z</time></trkpt><trkpt lat="43.3564704" lon="11.9419228"><ele>430.8</ele><time>2026-04-19T14:08:05.12Z</time></trkpt><trkpt lat="43.3565594" lon="11.9418403"><ele>429.6</ele><time>2026-04-19T14:08:06.119Z</time></trkpt><trkpt lat="43.3566436" lon="11.9417463"><ele>428.40000000000003</ele><time>2026-04-19T14:08:07.119Z</time></trkpt><trkpt lat="43.3567301" lon="11.9416499"><ele>427.20000000000005</ele><time>2026-04-19T14:08:08.12Z</time></trkpt><trkpt lat="43.3568176" lon="11.9415552"><ele>426.0</ele><time>2026-04-19T14:08:09.119Z</time></trkpt><trkpt lat="43.3569029" lon="11.9414706"><ele>426.0</ele><time>2026-04-19T14:08:10.12Z</time></trkpt><trkpt lat="43.3569815" lon="11.9413874"><ele>426.0</ele><time>2026-04-19T14:08:11.119Z</time></trkpt><trkpt lat="43.3570508" lon="11.9413005"><ele>426.0</ele><time>2026-04-19T14:08:12.119Z</time></trkpt><trkpt lat="43.3570705" lon="11.9411877"><ele>426.0</ele><time>2026-04-19T14:08:13.12Z</time></trkpt><trkpt lat="43.3570342" lon="11.9410628"><ele>426.0</ele><time>2026-04-19T14:08:14.12Z</time></trkpt><trkpt lat="43.3569667" lon="11.9409478"><ele>425.6</ele><time>2026-04-19T14:08:15.12Z</time></trkpt><trkpt lat="43.3568794" lon="11.940864"><ele>425.20000000000005</ele><time>2026-04-19T14:08:16.12Z</time></trkpt><trkpt lat="43.3567842" lon="11.940795"><ele>424.79999999999995</ele><time>2026-04-19T14:08:17.12Z</time></trkpt><trkpt lat="43.3566957" lon="11.9407231"><ele>424.4</ele><time>2026-04-19T14:08:18.12Z</time></trkpt><trkpt lat="43.3566081" lon="11.9406541"><ele>424.0</ele><time>2026-04-19T14:08:19.12Z</time></trkpt><trkpt lat="43.356516" lon="11.9405884"><ele>424.0</ele><time>2026-04-19T14:08:20.12Z</time></trkpt><trkpt lat="43.3564256" lon="11.9405209"><ele>424.0</ele><time>2026-04-19T14:08:21.119Z</time></trkpt><trkpt lat="43.3563351" lon="11.9404501"><ele>424.0</ele><time>2026-04-19T14:08:22.12Z</time></trkpt><trkpt lat="43.3562504" lon="11.9403719"><ele>424.0</ele><time>2026-04-19T14:08:23.119Z</time></trkpt><trkpt lat="43.3561716" lon="11.9402801"><ele>424.0</ele><time>2026-04-19T14:08:24.12Z</time></trkpt><trkpt lat="43.3561044" lon="11.9401777"><ele>421.0</ele><time>2026-04-19T14:08:25.12Z</time></trkpt><trkpt lat="43.3560401" lon="11.9400688"><ele>418.0</ele><time>2026-04-19T14:08:26.12Z</time></trkpt><trkpt lat="43.3559759" lon="11.939958"><ele>415.0</ele><time>2026-04-19T14:08:27.12Z</time></trkpt><trkpt lat="43.3559143" lon="11.9398455"><ele>412.0</ele><time>2026-04-19T14:08:28.119Z</time></trkpt><trkpt lat="43.3558567" lon="11.9397264"><ele>409.0</ele><time>2026-04-19T14:08:29.12Z</time></trkpt><trkpt lat="43.3558021" lon="11.9396145"><ele>409.0</ele><time>2026-04-19T14:08:30.119Z</time></trkpt><trkpt lat="43.3557437" lon="11.9395046"><ele>409.0</ele><time>2026-04-19T14:08:31.119Z</time></trkpt><trkpt lat="43.3556811" lon="11.9393897"><ele>409.0</ele><time>2026-04-19T14:08:32.119Z</time></trkpt><trkpt lat="43.3556173" lon="11.9392849"><ele>409.0</ele><time>2026-04-19T14:08:33.12Z</time></trkpt><trkpt lat="43.3555667" lon="11.93916"><ele>409.0</ele><time>2026-04-19T14:08:34.119Z</time></trkpt><trkpt lat="43.3555295" lon="11.939017"><ele>410.4</ele><time>2026-04-19T14:08:35.12Z</time></trkpt><trkpt lat="43.3555142" lon="11.9388762"><ele>411.79999999999995</ele><time>2026-04-19T14:08:36.12Z</time></trkpt><trkpt lat="43.3555275" lon="11.9387324"><ele>413.20000000000005</ele><time>2026-04-19T14:08:37.119Z</time></trkpt><trkpt lat="43.3555829" lon="11.9385901"><ele>414.6</ele><time>2026-04-19T14:08:38.12Z</time></trkpt><trkpt lat="43.3556527" lon="11.9384606"><ele>416.0</ele><time>2026-04-19T14:08:39.119Z</time></trkpt><trkpt lat="43.3557112" lon="11.9383309"><ele>416.0</ele><time>2026-04-19T14:08:40.119Z</time></trkpt><trkpt lat="43.355746" lon="11.9381916"><ele>416.0</ele><time>2026-04-19T14:08:41.12Z</time></trkpt><trkpt lat="43.3557604" lon="11.9380451"><ele>416.0</ele><time>2026-04-19T14:08:42.12Z</time></trkpt><trkpt lat="43.3557618" lon="11.9378985"><ele>416.0</ele><time>2026-04-19T14:08:43.12Z</time></trkpt><trkpt lat="43.3557324" lon="11.937758"><ele>416.0</ele><time>2026-04-19T14:08:44.119Z</time></trkpt><trkpt lat="43.3556604" lon="11.93763"><ele>416.0</ele><time>2026-04-19T14:08:45.119Z</time></trkpt><trkpt lat="43.355554" lon="11.9375558"><ele>416.0</ele><time>2026-04-19T14:08:46.119Z</time></trkpt><trkpt lat="43.355439" lon="11.9375213"><ele>416.0</ele><time>2026-04-19T14:08:47.12Z</time></trkpt><trkpt lat="43.3553259" lon="11.9375322"><ele>416.0</ele><time>2026-04-19T14:08:48.119Z</time></trkpt><trkpt lat="43.3552177" lon="11.937562"><ele>409.25</ele><time>2026-04-19T14:08:49.12Z</time></trkpt><trkpt lat="43.3551071" lon="11.9376065"><ele>402.5</ele><time>2026-04-19T14:08:50.12Z</time></trkpt><trkpt lat="43.354994" lon="11.9376489"><ele>395.75</ele><time>2026-04-19T14:08:51.119Z</time></trkpt><trkpt lat="43.3548871" lon="11.9376919"><ele>389.0</ele><time>2026-04-19T14:08:52.12Z</time></trkpt><trkpt lat="43.3547832" lon="11.93773"><ele>388.2</ele><time>2026-04-19T14:08:53.12Z</time></trkpt><trkpt lat="43.354684" lon="11.9377673"><ele>387.4</ele><time>2026-04-19T14:08:54.119Z</time></trkpt><trkpt lat="43.3545859" lon="11.9377793"><ele>386.6</ele><time>2026-04-19T14:08:55.12Z</time></trkpt><trkpt lat="43.3544892" lon="11.937729"><ele>385.8</ele><time>2026-04-19T14:08:56.12Z</time></trkpt><trkpt lat="43.3544147" lon="11.9376271"><ele>385.0</ele><time>2026-04-19T14:08:57.12Z</time></trkpt><trkpt lat="43.3543543" lon="11.9375115"><ele>385.0</ele><time>2026-04-19T14:08:58.119Z</time></trkpt><trkpt lat="43.3543146" lon="11.9373879"><ele>385.0</ele><time>2026-04-19T14:08:59.119Z</time></trkpt><trkpt lat="43.3542949" lon="11.9372539"><ele>385.0</ele><time>2026-04-19T14:09:00.12Z</time></trkpt><trkpt lat="43.3542883" lon="11.9371186"><ele>385.0</ele><time>2026-04-19T14:09:01.119Z</time></trkpt><trkpt lat="43.3542903" lon="11.9369904"><ele>385.0</ele><time>2026-04-19T14:09:02.119Z</time></trkpt><trkpt lat="43.3542953" lon="11.9368547"><ele>385.0</ele><time>2026-04-19T14:09:03.12Z</time></trkpt><trkpt lat="43.3543041" lon="11.9367176"><ele>385.0</ele><time>2026-04-19T14:09:04.119Z</time></trkpt><trkpt lat="43.3543221" lon="11.936582"><ele>385.0</ele><time>2026-04-19T14:09:05.119Z</time></trkpt><trkpt lat="43.3543432" lon="11.9364466"><ele>385.0</ele><time>2026-04-19T14:09:06.12Z</time></trkpt><trkpt lat="43.3543618" lon="11.936317"><ele>385.0</ele><time>2026-04-19T14:09:07.12Z</time></trkpt><trkpt lat="43.3543765" lon="11.9361895"><ele>385.0</ele><time>2026-04-19T14:09:08.119Z</time></trkpt><trkpt lat="43.3543716" lon="11.9360625"><ele>385.0</ele><time>2026-04-19T14:09:09.119Z</time></trkpt><trkpt lat="43.35434" lon="11.9359384"><ele>385.0</ele><time>2026-04-19T14:09:10.12Z</time></trkpt><trkpt lat="43.3542944" lon="11.9358173"><ele>385.0</ele><time>2026-04-19T14:09:11.119Z</time></trkpt><trkpt lat="43.3542483" lon="11.9356945"><ele>385.0</ele><time>2026-04-19T14:09:12.12Z</time></trkpt><trkpt lat="43.3542036" lon="11.9355735"><ele>384.6</ele><time>2026-04-19T14:09:13.12Z</time></trkpt><trkpt lat="43.3541712" lon="11.9354445"><ele>384.2</ele><time>2026-04-19T14:09:14.119Z</time></trkpt><trkpt lat="43.3541657" lon="11.9353118"><ele>383.79999999999995</ele><time>2026-04-19T14:09:15.119Z</time></trkpt><trkpt lat="43.3541981" lon="11.9351731"><ele>383.4</ele><time>2026-04-19T14:09:16.12Z</time></trkpt><trkpt lat="43.3542564" lon="11.9350522"><ele>383.0</ele><time>2026-04-19T14:09:17.119Z</time></trkpt><trkpt lat="43.3543207" lon="11.9349369"><ele>382.2</ele><time>2026-04-19T14:09:18.12Z</time></trkpt><trkpt lat="43.3544088" lon="11.9348456"><ele>381.4</ele><time>2026-04-19T14:09:19.12Z</time></trkpt><trkpt lat="43.3545044" lon="11.9347628"><ele>380.59999999999997</ele><time>2026-04-19T14:09:20.119Z</time></trkpt><trkpt lat="43.3545916" lon="11.9346771"><ele>379.79999999999995</ele><time>2026-04-19T14:09:21.12Z</time></trkpt><trkpt lat="43.354654" lon="11.9345767"><ele>379.0</ele><time>2026-04-19T14:09:22.12Z</time></trkpt><trkpt lat="43.3546622" lon="11.9344681"><ele>379.0</ele><time>2026-04-19T14:09:23.12Z</time></trkpt><trkpt lat="43.3546111" lon="11.9343575"><ele>379.0</ele><time>2026-04-19T14:09:24.119Z</time></trkpt><trkpt lat="43.3545294" lon="11.9342645"><ele>379.0</ele><time>2026-04-19T14:09:25.119Z</time></trkpt><trkpt lat="43.3544392" lon="11.9342204"><ele>379.0</ele><time>2026-04-19T14:09:26.119Z</time></trkpt><trkpt lat="43.3543422" lon="11.9341922"><ele>379.0</ele><time>2026-04-19T14:09:27.12Z</time></trkpt><trkpt lat="43.3542443" lon="11.9341765"><ele>380.2</ele><time>2026-04-19T14:09:28.119Z</time></trkpt><trkpt lat="43.3541409" lon="11.9341609"><ele>381.4</ele><time>2026-04-19T14:09:29.12Z</time></trkpt><trkpt lat="43.3540411" lon="11.9341396"><ele>382.6</ele><time>2026-04-19T14:09:30.12Z</time></trkpt><trkpt lat="43.3539428" lon="11.9341207"><ele>383.8</ele><time>2026-04-19T14:09:31.12Z</time></trkpt><trkpt lat="43.3538399" lon="11.9341043"><ele>385.0</ele><time>2026-04-19T14:09:32.119Z</time></trkpt><trkpt lat="43.3537359" lon="11.9340836"><ele>382.2</ele><time>2026-04-19T14:09:33.119Z</time></trkpt><trkpt lat="43.3536348" lon="11.9340578"><ele>379.4</ele><time>2026-04-19T14:09:34.119Z</time></trkpt><trkpt lat="43.3535311" lon="11.934037"><ele>376.6</ele><time>2026-04-19T14:09:35.119Z</time></trkpt><trkpt lat="43.3534272" lon="11.9340183"><ele>373.8</ele><time>2026-04-19T14:09:36.119Z</time></trkpt><trkpt lat="43.3533244" lon="11.9340034"><ele>371.0</ele><time>2026-04-19T14:09:37.119Z</time></trkpt><trkpt lat="43.353226" lon="11.9339873"><ele>371.0</ele><time>2026-04-19T14:09:38.12Z</time></trkpt><trkpt lat="43.3531263" lon="11.933962"><ele>371.0</ele><time>2026-04-19T14:09:39.119Z</time></trkpt><trkpt lat="43.353026" lon="11.9339397"><ele>371.0</ele><time>2026-04-19T14:09:40.12Z</time></trkpt><trkpt lat="43.3529277" lon="11.9339122"><ele>371.0</ele><time>2026-04-19T14:09:41.119Z</time></trkpt><trkpt lat="43.3528375" lon="11.9338619"><ele>371.0</ele><time>2026-04-19T14:09:42.12Z</time></trkpt><trkpt lat="43.3527619" lon="11.9337781"><ele>370.0</ele><time>2026-04-19T14:09:43.12Z</time></trkpt><trkpt lat="43.3527147" lon="11.933652"><ele>369.0</ele><time>2026-04-19T14:09:44.119Z</time></trkpt><trkpt lat="43.3526794" lon="11.9335173"><ele>368.0</ele><time>2026-04-19T14:09:45.119Z</time></trkpt><trkpt lat="43.3526591" lon="11.9333714"><ele>367.0</ele><time>2026-04-19T14:09:46.119Z</time></trkpt><trkpt lat="43.3526472" lon="11.93323"><ele>366.0</ele><time>2026-04-19T14:09:47.12Z</time></trkpt><trkpt lat="43.35264" lon="11.9330929"><ele>366.0</ele><time>2026-04-19T14:09:48.119Z</time></trkpt><trkpt lat="43.3526401" lon="11.9329605"><ele>366.0</ele><time>2026-04-19T14:09:49.119Z</time></trkpt><trkpt lat="43.3526662" lon="11.9328353"><ele>366.0</ele><time>2026-04-19T14:09:50.119Z</time></trkpt><trkpt lat="43.3527291" lon="11.9327366"><ele>366.0</ele><time>2026-04-19T14:09:51.12Z</time></trkpt><trkpt lat="43.3527926" lon="11.9326373"><ele>366.0</ele><time>2026-04-19T14:09:52.12Z</time></trkpt><trkpt lat="43.3528506" lon="11.932523"><ele>364.20000000000005</ele><time>2026-04-19T14:09:53.119Z</time></trkpt><trkpt lat="43.3528868" lon="11.9323942"><ele>362.40000000000003</ele><time>2026-04-19T14:09:54.119Z</time></trkpt><trkpt lat="43.3529061" lon="11.9322597"><ele>360.6</ele><time>2026-04-19T14:09:55.119Z</time></trkpt><trkpt lat="43.3529182" lon="11.9321272"><ele>358.8</ele><time>2026-04-19T14:09:56.12Z</time></trkpt><trkpt lat="43.3529232" lon="11.9319972"><ele>357.0</ele><time>2026-04-19T14:09:57.119Z</time></trkpt><trkpt lat="43.3529247" lon="11.931867"><ele>357.0</ele><time>2026-04-19T14:09:58.119Z</time></trkpt><trkpt lat="43.3529279" lon="11.9317375"><ele>357.0</ele><time>2026-04-19T14:09:59.119Z</time></trkpt><trkpt lat="43.3529331" lon="11.9316086"><ele>357.0</ele><time>2026-04-19T14:10:00.119Z</time></trkpt><trkpt lat="43.3529446" lon="11.9314735"><ele>357.0</ele><time>2026-04-19T14:10:01.119Z</time></trkpt><trkpt lat="43.3529572" lon="11.9313468"><ele>357.0</ele><time>2026-04-19T14:10:02.12Z</time></trkpt><trkpt lat="43.352965" lon="11.9312239"><ele>356.0</ele><time>2026-04-19T14:10:03.12Z</time></trkpt><trkpt lat="43.3529675" lon="11.9310996"><ele>355.0</ele><time>2026-04-19T14:10:04.12Z</time></trkpt><trkpt lat="43.3529714" lon="11.9309782"><ele>354.0</ele><time>2026-04-19T14:10:05.12Z</time></trkpt><trkpt lat="43.3529791" lon="11.9308496"><ele>353.0</ele><time>2026-04-19T14:10:06.119Z</time></trkpt><trkpt lat="43.3529911" lon="11.9307201"><ele>352.0</ele><time>2026-04-19T14:10:07.12Z</time></trkpt><trkpt lat="43.3530012" lon="11.9305948"><ele>352.0</ele><time>2026-04-19T14:10:08.12Z</time></trkpt><trkpt lat="43.3530099" lon="11.9304634"><ele>352.0</ele><time>2026-04-19T14:10:09.119Z</time></trkpt><trkpt lat="43.3530183" lon="11.9303381"><ele>352.0</ele><time>2026-04-19T14:10:10.12Z</time></trkpt><trkpt lat="43.3530265" lon="11.9302139"><ele>352.0</ele><time>2026-04-19T14:10:11.12Z</time></trkpt><trkpt lat="43.3530399" lon="11.9300866"><ele>352.0</ele><time>2026-04-19T14:10:12.12Z</time></trkpt><trkpt lat="43.3530575" lon="11.9299562"><ele>356.6</ele><time>2026-04-19T14:10:13.119Z</time></trkpt><trkpt lat="43.3530799" lon="11.9298289"><ele>361.20000000000005</ele><time>2026-04-19T14:10:14.12Z</time></trkpt><trkpt lat="43.3531145" lon="11.9297105"><ele>365.8</ele><time>2026-04-19T14:10:15.12Z</time></trkpt><trkpt lat="43.3531456" lon="11.9295921"><ele>370.4</ele><time>2026-04-19T14:10:16.119Z</time></trkpt><trkpt lat="43.3531732" lon="11.9294816"><ele>375.0</ele><time>2026-04-19T14:10:17.12Z</time></trkpt><trkpt lat="43.3531831" lon="11.9293641"><ele>375.0</ele><time>2026-04-19T14:10:18.119Z</time></trkpt><trkpt lat="43.3531692" lon="11.9292462"><ele>375.0</ele><time>2026-04-19T14:10:19.12Z</time></trkpt><trkpt lat="43.3531492" lon="11.9291347"><ele>375.0</ele><time>2026-04-19T14:10:20.12Z</time></trkpt><trkpt lat="43.3531221" lon="11.9290321"><ele>375.0</ele><time>2026-04-19T14:10:21.12Z</time></trkpt><trkpt lat="43.3530955" lon="11.9289309"><ele>375.0</ele><time>2026-04-19T14:10:22.12Z</time></trkpt><trkpt lat="43.3530484" lon="11.9288333"><ele>375.0</ele><time>2026-04-19T14:10:23.119Z</time></trkpt><trkpt lat="43.3529864" lon="11.9287441"><ele>370.8333333333333</ele><time>2026-04-19T14:10:24.12Z</time></trkpt><trkpt lat="43.3529118" lon="11.9286747"><ele>366.6666666666667</ele><time>2026-04-19T14:10:25.119Z</time></trkpt><trkpt lat="43.3528197" lon="11.9286203"><ele>362.5</ele><time>2026-04-19T14:10:26.12Z</time></trkpt><trkpt lat="43.3527327" lon="11.9286125"><ele>358.33333333333337</ele><time>2026-04-19T14:10:27.12Z</time></trkpt><trkpt lat="43.3526449" lon="11.9286171"><ele>354.1666666666667</ele><time>2026-04-19T14:10:28.119Z</time></trkpt><trkpt lat="43.3525632" lon="11.9286298"><ele>350.0</ele><time>2026-04-19T14:10:29.119Z</time></trkpt><trkpt lat="43.3524738" lon="11.9286379"><ele>350.0</ele><time>2026-04-19T14:10:30.119Z</time></trkpt><trkpt lat="43.3523843" lon="11.9286482"><ele>350.0</ele><time>2026-04-19T14:10:31.12Z</time></trkpt><trkpt lat="43.3522956" lon="11.9286412"><ele>350.0</ele><time>2026-04-19T14:10:32.119Z</time></trkpt><trkpt lat="43.3522143" lon="11.9286208"><ele>350.0</ele><time>2026-04-19T14:10:33.12Z</time></trkpt><trkpt lat="43.3521294" lon="11.9285986"><ele>350.0</ele><time>2026-04-19T14:10:34.119Z</time></trkpt><trkpt lat="43.352044" lon="11.9285786"><ele>350.0</ele><time>2026-04-19T14:10:35.119Z</time></trkpt><trkpt lat="43.3519592" lon="11.9285584"><ele>348.33333333333337</ele><time>2026-04-19T14:10:36.119Z</time></trkpt><trkpt lat="43.3518749" lon="11.9285412"><ele>346.6666666666667</ele><time>2026-04-19T14:10:37.12Z</time></trkpt><trkpt lat="43.3517928" lon="11.9285219"><ele>345.0</ele><time>2026-04-19T14:10:38.12Z</time></trkpt><trkpt lat="43.351708" lon="11.9285039"><ele>343.3333333333333</ele><time>2026-04-19T14:10:39.119Z</time></trkpt><trkpt lat="43.3516239" lon="11.9284917"><ele>341.66666666666663</ele><time>2026-04-19T14:10:40.12Z</time></trkpt><trkpt lat="43.3515388" lon="11.9284737"><ele>340.0</ele><time>2026-04-19T14:10:41.12Z</time></trkpt><trkpt lat="43.3514537" lon="11.928453"><ele>339.0</ele><time>2026-04-19T14:10:42.12Z</time></trkpt><trkpt lat="43.3513676" lon="11.9284291"><ele>338.0</ele><time>2026-04-19T14:10:43.12Z</time></trkpt><trkpt lat="43.3512836" lon="11.9284011"><ele>337.0</ele><time>2026-04-19T14:10:44.12Z</time></trkpt><trkpt lat="43.3512034" lon="11.9283628"><ele>336.0</ele><time>2026-04-19T14:10:45.12Z</time></trkpt><trkpt lat="43.3511257" lon="11.9283082"><ele>335.0</ele><time>2026-04-19T14:10:46.12Z</time></trkpt><trkpt lat="43.3510516" lon="11.9282484"><ele>334.0</ele><time>2026-04-19T14:10:47.12Z</time></trkpt><trkpt lat="43.3509797" lon="11.9281712"><ele>337.4</ele><time>2026-04-19T14:10:48.12Z</time></trkpt><trkpt lat="43.3509103" lon="11.9280883"><ele>340.79999999999995</ele><time>2026-04-19T14:10:49.119Z</time></trkpt><trkpt lat="43.350846" lon="11.9280017"><ele>344.20000000000005</ele><time>2026-04-19T14:10:50.12Z</time></trkpt><trkpt lat="43.3508035" lon="11.9278851"><ele>347.6</ele><time>2026-04-19T14:10:51.119Z</time></trkpt><trkpt lat="43.3507782" lon="11.9277508"><ele>351.0</ele><time>2026-04-19T14:10:52.119Z</time></trkpt><trkpt lat="43.350779" lon="11.9276091"><ele>351.0</ele><time>2026-04-19T14:10:53.12Z</time></trkpt><trkpt lat="43.3507954" lon="11.9274674"><ele>351.0</ele><time>2026-04-19T14:10:54.119Z</time></trkpt><trkpt lat="43.3508177" lon="11.9273352"><ele>351.0</ele><time>2026-04-19T14:10:55.12Z</time></trkpt><trkpt lat="43.3508414" lon="11.9272043"><ele>351.0</ele><time>2026-04-19T14:10:56.119Z</time></trkpt><trkpt lat="43.3508648" lon="11.927073"><ele>351.0</ele><time>2026-04-19T14:10:57.12Z</time></trkpt><trkpt lat="43.3508848" lon="11.9269388"><ele>351.0</ele><time>2026-04-19T14:10:58.119Z</time></trkpt><trkpt lat="43.3509037" lon="11.9268058"><ele>351.0</ele><time>2026-04-19T14:10:59.119Z</time></trkpt><trkpt lat="43.3509197" lon="11.9266763"><ele>351.0</ele><time>2026-04-19T14:11:00.12Z</time></trkpt><trkpt lat="43.3509403" lon="11.9265416"><ele>351.0</ele><time>2026-04-19T14:11:01.12Z</time></trkpt><trkpt lat="43.3509624" lon="11.9264085"><ele>351.0</ele><time>2026-04-19T14:11:02.12Z</time></trkpt><trkpt lat="43.350991" lon="11.9262773"><ele>349.8</ele><time>2026-04-19T14:11:03.119Z</time></trkpt><trkpt lat="43.3510296" lon="11.9261544"><ele>348.6</ele><time>2026-04-19T14:11:04.119Z</time></trkpt><trkpt lat="43.3510716" lon="11.9260329"><ele>347.4</ele><time>2026-04-19T14:11:05.119Z</time></trkpt><trkpt lat="43.3511151" lon="11.9259086"><ele>346.2</ele><time>2026-04-19T14:11:06.119Z</time></trkpt><trkpt lat="43.3511579" lon="11.9257847"><ele>345.0</ele><time>2026-04-19T14:11:07.12Z</time></trkpt><trkpt lat="43.3512004" lon="11.9256571"><ele>344.4</ele><time>2026-04-19T14:11:08.12Z</time></trkpt><trkpt lat="43.3512358" lon="11.9255268"><ele>343.8</ele><time>2026-04-19T14:11:09.12Z</time></trkpt><trkpt lat="43.3512566" lon="11.9254004"><ele>343.20000000000005</ele><time>2026-04-19T14:11:10.12Z</time></trkpt><trkpt lat="43.3512381" lon="11.9252815"><ele>342.6</ele><time>2026-04-19T14:11:11.119Z</time></trkpt><trkpt lat="43.3511747" lon="11.9251818"><ele>342.0</ele><time>2026-04-19T14:11:12.119Z</time></trkpt><trkpt lat="43.3510826" lon="11.9251142"><ele>342.0</ele><time>2026-04-19T14:11:13.119Z</time></trkpt><trkpt lat="43.3509944" lon="11.9250828"><ele>342.0</ele><time>2026-04-19T14:11:14.12Z</time></trkpt><trkpt lat="43.3509062" lon="11.9250558"><ele>342.0</ele><time>2026-04-19T14:11:15.119Z</time></trkpt><trkpt lat="43.3508203" lon="11.9250405"><ele>342.0</ele><time>2026-04-19T14:11:16.119Z</time></trkpt><trkpt lat="43.3507265" lon="11.9250388"><ele>342.0</ele><time>2026-04-19T14:11:17.119Z</time></trkpt><trkpt lat="43.350631" lon="11.9250553"><ele>340.20000000000005</ele><time>2026-04-19T14:11:18.119Z</time></trkpt><trkpt lat="43.3505344" lon="11.9250957"><ele>338.4</ele><time>2026-04-19T14:11:19.119Z</time></trkpt><trkpt lat="43.3504428" lon="11.9251594"><ele>336.6</ele><time>2026-04-19T14:11:20.12Z</time></trkpt><trkpt lat="43.3503545" lon="11.9252275"><ele>334.79999999999995</ele><time>2026-04-19T14:11:21.12Z</time></trkpt><trkpt lat="43.3502659" lon="11.9252987"><ele>333.0</ele><time>2026-04-19T14:11:22.12Z</time></trkpt><trkpt lat="43.3501848" lon="11.9253775"><ele>333.0</ele><time>2026-04-19T14:11:23.119Z</time></trkpt><trkpt lat="43.3501076" lon="11.925455"><ele>333.0</ele><time>2026-04-19T14:11:24.119Z</time></trkpt><trkpt lat="43.3500278" lon="11.9255355"><ele>333.0</ele><time>2026-04-19T14:11:25.119Z</time></trkpt><trkpt lat="43.3499431" lon="11.9256025"><ele>333.0</ele><time>2026-04-19T14:11:26.119Z</time></trkpt><trkpt lat="43.3498522" lon="11.9256563"><ele>333.0</ele><time>2026-04-19T14:11:27.12Z</time></trkpt><trkpt lat="43.3497613" lon="11.9257029"><ele>333.4</ele><time>2026-04-19T14:11:28.119Z</time></trkpt><trkpt lat="43.3496664" lon="11.9257447"><ele>333.79999999999995</ele><time>2026-04-19T14:11:29.12Z</time></trkpt><trkpt lat="43.3495716" lon="11.9257857"><ele>334.2</ele><time>2026-04-19T14:11:30.12Z</time></trkpt><trkpt lat="43.3494785" lon="11.9258306"><ele>334.6</ele><time>2026-04-19T14:11:31.119Z</time></trkpt><trkpt lat="43.349381" lon="11.9258714"><ele>335.0</ele><time>2026-04-19T14:11:32.12Z</time></trkpt><trkpt lat="43.3492834" lon="11.9258881"><ele>335.0</ele><time>2026-04-19T14:11:33.12Z</time></trkpt><trkpt lat="43.3491824" lon="11.9258808"><ele>335.0</ele><time>2026-04-19T14:11:34.12Z</time></trkpt><trkpt lat="43.349084" lon="11.9258571"><ele>335.0</ele><time>2026-04-19T14:11:35.119Z</time></trkpt><trkpt lat="43.3489871" lon="11.9258109"><ele>335.0</ele><time>2026-04-19T14:11:36.119Z</time></trkpt><trkpt lat="43.3488929" lon="11.9257483"><ele>335.0</ele><time>2026-04-19T14:11:37.12Z</time></trkpt><trkpt lat="43.3488103" lon="11.9256689"><ele>332.0</ele><time>2026-04-19T14:11:38.12Z</time></trkpt><trkpt lat="43.3487441" lon="11.9255764"><ele>329.0</ele><time>2026-04-19T14:11:39.12Z</time></trkpt><trkpt lat="43.3486878" lon="11.9254672"><ele>326.0</ele><time>2026-04-19T14:11:40.12Z</time></trkpt><trkpt lat="43.3486508" lon="11.9253459"><ele>323.0</ele><time>2026-04-19T14:11:41.119Z</time></trkpt><trkpt lat="43.3486152" lon="11.9252249"><ele>320.0</ele><time>2026-04-19T14:11:42.119Z</time></trkpt><trkpt lat="43.3485727" lon="11.9251108"><ele>323.2</ele><time>2026-04-19T14:11:43.12Z</time></trkpt><trkpt lat="43.3485073" lon="11.9250273"><ele>326.4</ele><time>2026-04-19T14:11:44.119Z</time></trkpt><trkpt lat="43.3484191" lon="11.9249737"><ele>329.6</ele><time>2026-04-19T14:11:45.119Z</time></trkpt><trkpt lat="43.3483278" lon="11.9249586"><ele>332.8</ele><time>2026-04-19T14:11:46.119Z</time></trkpt><trkpt lat="43.3482317" lon="11.9249704"><ele>336.0</ele><time>2026-04-19T14:11:47.119Z</time></trkpt><trkpt lat="43.3481406" lon="11.9249995"><ele>336.0</ele><time>2026-04-19T14:11:48.12Z</time></trkpt><trkpt lat="43.3480529" lon="11.9250275"><ele>336.0</ele><time>2026-04-19T14:11:49.119Z</time></trkpt><trkpt lat="43.3479628" lon="11.9250676"><ele>336.0</ele><time>2026-04-19T14:11:50.12Z</time></trkpt><trkpt lat="43.3478732" lon="11.9251196"><ele>336.0</ele><time>2026-04-19T14:11:51.12Z</time></trkpt><trkpt lat="43.3477944" lon="11.9251885"><ele>336.0</ele><time>2026-04-19T14:11:52.119Z</time></trkpt><trkpt lat="43.3477216" lon="11.9252705"><ele>332.8</ele><time>2026-04-19T14:11:53.12Z</time></trkpt><trkpt lat="43.3476528" lon="11.9253652"><ele>329.6</ele><time>2026-04-19T14:11:54.12Z</time></trkpt><trkpt lat="43.3475771" lon="11.9254481"><ele>326.4</ele><time>2026-04-19T14:11:55.12Z</time></trkpt><trkpt lat="43.3474907" lon="11.9255055"><ele>323.2</ele><time>2026-04-19T14:11:56.119Z</time></trkpt><trkpt lat="43.3473972" lon="11.9255348"><ele>320.0</ele><time>2026-04-19T14:11:57.119Z</time></trkpt><trkpt lat="43.3472951" lon="11.9255309"><ele>318.8</ele><time>2026-04-19T14:11:58.12Z</time></trkpt><trkpt lat="43.3471957" lon="11.9255113"><ele>317.6</ele><time>2026-04-19T14:11:59.119Z</time></trkpt><trkpt lat="43.3471022" lon="11.9254823"><ele>316.4</ele><time>2026-04-19T14:12:00.12Z</time></trkpt><trkpt lat="43.3470144" lon="11.9254529"><ele>315.2</ele><time>2026-04-19T14:12:01.119Z</time></trkpt><trkpt lat="43.3469272" lon="11.9254195"><ele>314.0</ele><time>2026-04-19T14:12:02.119Z</time></trkpt><trkpt lat="43.3468458" lon="11.9253765"><ele>314.0</ele><time>2026-04-19T14:12:03.12Z</time></trkpt><trkpt lat="43.3467657" lon="11.9253361"><ele>314.0</ele><time>2026-04-19T14:12:04.119Z</time></trkpt><trkpt lat="43.3466879" lon="11.9252857"><ele>314.0</ele><time>2026-04-19T14:12:05.12Z</time></trkpt><trkpt lat="43.3466145" lon="11.9252281"><ele>314.0</ele><time>2026-04-19T14:12:06.12Z</time></trkpt><trkpt lat="43.3465423" lon="11.925174"><ele>314.0</ele><time>2026-04-19T14:12:07.12Z</time></trkpt><trkpt lat="43.3464744" lon="11.9251245"><ele>314.0</ele><time>2026-04-19T14:12:08.12Z</time></trkpt><trkpt lat="43.3464044" lon="11.9250748"><ele>314.4285714285714</ele><time>2026-04-19T14:12:09.12Z</time></trkpt><trkpt lat="43.3463375" lon="11.9250311"><ele>314.85714285714283</ele><time>2026-04-19T14:12:10.119Z</time></trkpt><trkpt lat="43.3462695" lon="11.924989"><ele>315.2857142857143</ele><time>2026-04-19T14:12:11.12Z</time></trkpt><trkpt lat="43.3462072" lon="11.9249469"><ele>315.71428571428567</ele><time>2026-04-19T14:12:12.12Z</time></trkpt><trkpt lat="43.3461441" lon="11.9249029"><ele>316.1428571428571</ele><time>2026-04-19T14:12:13.119Z</time></trkpt><trkpt lat="43.3460778" lon="11.9248538"><ele>316.57142857142856</ele><time>2026-04-19T14:12:14.12Z</time></trkpt><trkpt lat="43.3460123" lon="11.9248075"><ele>317.0</ele><time>2026-04-19T14:12:15.119Z</time></trkpt><trkpt lat="43.3459459" lon="11.92476"><ele>317.0</ele><time>2026-04-19T14:12:16.12Z</time></trkpt><trkpt lat="43.3458868" lon="11.9247148"><ele>317.0</ele><time>2026-04-19T14:12:17.12Z</time></trkpt><trkpt lat="43.3458261" lon="11.9246617"><ele>317.0</ele><time>2026-04-19T14:12:18.119Z</time></trkpt><trkpt lat="43.3457704" lon="11.9246035"><ele>317.0</ele><time>2026-04-19T14:12:19.12Z</time></trkpt><trkpt lat="43.3457216" lon="11.9245409"><ele>317.0</ele><time>2026-04-19T14:12:20.12Z</time></trkpt><trkpt lat="43.3456693" lon="11.9244767"><ele>317.0</ele><time>2026-04-19T14:12:21.119Z</time></trkpt><trkpt lat="43.3456154" lon="11.9244152"><ele>317.0</ele><time>2026-04-19T14:12:22.119Z</time></trkpt><trkpt lat="43.3455635" lon="11.9243594"><ele>317.2</ele><time>2026-04-19T14:12:23.12Z</time></trkpt><trkpt lat="43.3454687" lon="11.9242465"><ele>317.4</ele><time>2026-04-19T14:12:25.119Z</time></trkpt><trkpt lat="43.3453803" lon="11.9241364"><ele>317.6</ele><time>2026-04-19T14:12:27.119Z</time></trkpt><trkpt lat="43.3452955" lon="11.9240214"><ele>317.8</ele><time>2026-04-19T14:12:29.12Z</time></trkpt><trkpt lat="43.3452468" lon="11.9239646"><ele>318.0</ele><time>2026-04-19T14:12:30.119Z</time></trkpt><trkpt lat="43.3451919" lon="11.9239077"><ele>318.0</ele><time>2026-04-19T14:12:31.12Z</time></trkpt><trkpt lat="43.3451028" lon="11.9237968"><ele>318.0</ele><time>2026-04-19T14:12:33.119Z</time></trkpt><trkpt lat="43.345033" lon="11.923682"><ele>318.0</ele><time>2026-04-19T14:12:35.12Z</time></trkpt><trkpt lat="43.3449655" lon="11.9235794"><ele>318.0</ele><time>2026-04-19T14:12:37.12Z</time></trkpt><trkpt lat="43.3449058" lon="11.9234682"><ele>318.0</ele><time>2026-04-19T14:12:39.12Z</time></trkpt><trkpt lat="43.3448485" lon="11.9233488"><ele>318.3333333333333</ele><time>2026-04-19T14:12:41.119Z</time></trkpt><trkpt lat="43.3447939" lon="11.9232321"><ele>318.6666666666667</ele><time>2026-04-19T14:12:43.12Z</time></trkpt><trkpt lat="43.3447369" lon="11.923143"><ele>319.0</ele><time>2026-04-19T14:12:45.12Z</time></trkpt><trkpt lat="43.3446841" lon="11.9230521"><ele>319.33333333333337</ele><time>2026-04-19T14:12:47.12Z</time></trkpt><trkpt lat="43.3446342" lon="11.9229602"><ele>319.6666666666667</ele><time>2026-04-19T14:12:49.119Z</time></trkpt><trkpt lat="43.3445865" lon="11.9228656"><ele>320.0</ele><time>2026-04-19T14:12:51.12Z</time></trkpt><trkpt lat="43.3445357" lon="11.9227986"><ele>320.0</ele><time>2026-04-19T14:12:53.12Z</time></trkpt><trkpt lat="43.3444572" lon="11.9228188"><ele>320.0</ele><time>2026-04-19T14:12:56.12Z</time></trkpt><trkpt lat="43.3443992" lon="11.9228711"><ele>320.0</ele><time>2026-04-19T14:12:58.12Z</time></trkpt><trkpt lat="43.3443476" lon="11.922945"><ele>320.0</ele><time>2026-04-19T14:13:00.12Z</time></trkpt><trkpt lat="43.3442985" lon="11.9230173"><ele>320.0</ele><time>2026-04-19T14:13:02.12Z</time></trkpt><trkpt lat="43.3442308" lon="11.9230749"><ele>320.0</ele><time>2026-04-19T14:13:05.12Z</time></trkpt></trkseg><trkseg><trkpt lat="43.3424803" lon="11.9252387"><ele>280.0</ele><time>2026-04-19T14:17:33.12Z</time></trkpt><trkpt lat="43.3424329" lon="11.9253667"><ele>280.0</ele><time>2026-04-19T14:17:34.12Z</time></trkpt><trkpt lat="43.3423957" lon="11.9255056"><ele>280.0</ele><time>2026-04-19T14:17:35.12Z</time></trkpt><trkpt lat="43.3423643" lon="11.9256487"><ele>280.0</ele><time>2026-04-19T14:17:36.12Z</time></trkpt><trkpt lat="43.342335" lon="11.925792"><ele>280.0</ele><time>2026-04-19T14:17:37.12Z</time></trkpt><trkpt lat="43.3423044" lon="11.9259326"><ele>279.4</ele><time>2026-04-19T14:17:38.12Z</time></trkpt><trkpt lat="43.3422723" lon="11.9260749"><ele>278.8</ele><time>2026-04-19T14:17:39.12Z</time></trkpt><trkpt lat="43.3422391" lon="11.9262142"><ele>278.2</ele><time>2026-04-19T14:17:40.12Z</time></trkpt><trkpt lat="43.3422093" lon="11.9263451"><ele>277.6</ele><time>2026-04-19T14:17:41.119Z</time></trkpt><trkpt lat="43.3421832" lon="11.9264766"><ele>277.0</ele><time>2026-04-19T14:17:42.12Z</time></trkpt><trkpt lat="43.3421747" lon="11.926608"><ele>276.2</ele><time>2026-04-19T14:17:43.119Z</time></trkpt><trkpt lat="43.3421846" lon="11.9267394"><ele>275.4</ele><time>2026-04-19T14:17:44.12Z</time></trkpt><trkpt lat="43.3422137" lon="11.9268644"><ele>274.6</ele><time>2026-04-19T14:17:45.12Z</time></trkpt><trkpt lat="43.3422619" lon="11.9269801"><ele>273.8</ele><time>2026-04-19T14:17:46.12Z</time></trkpt><trkpt lat="43.342325" lon="11.9270906"><ele>273.0</ele><time>2026-04-19T14:17:47.119Z</time></trkpt><trkpt lat="43.3423924" lon="11.927191"><ele>273.0</ele><time>2026-04-19T14:17:48.12Z</time></trkpt><trkpt lat="43.3424621" lon="11.9272957"><ele>273.0</ele><time>2026-04-19T14:17:49.12Z</time></trkpt><trkpt lat="43.3425281" lon="11.9274011"><ele>273.0</ele><time>2026-04-19T14:17:50.119Z</time></trkpt><trkpt lat="43.342596" lon="11.9275123"><ele>273.0</ele><time>2026-04-19T14:17:51.119Z</time></trkpt><trkpt lat="43.3426649" lon="11.9276205"><ele>273.0</ele><time>2026-04-19T14:17:52.119Z</time></trkpt><trkpt lat="43.342735" lon="11.9277282"><ele>272.6</ele><time>2026-04-19T14:17:53.12Z</time></trkpt><trkpt lat="43.3428039" lon="11.9278311"><ele>272.20000000000005</ele><time>2026-04-19T14:17:54.12Z</time></trkpt><trkpt lat="43.3428718" lon="11.9279342"><ele>271.8</ele><time>2026-04-19T14:17:55.12Z</time></trkpt><trkpt lat="43.3429373" lon="11.9280394"><ele>271.40000000000003</ele><time>2026-04-19T14:17:56.12Z</time></trkpt><trkpt lat="43.3429971" lon="11.9281352"><ele>271.0</ele><time>2026-04-19T14:17:57.119Z</time></trkpt><trkpt lat="43.3430605" lon="11.9282323"><ele>271.0</ele><time>2026-04-19T14:17:58.119Z</time></trkpt><trkpt lat="43.3431199" lon="11.9283267"><ele>271.0</ele><time>2026-04-19T14:17:59.12Z</time></trkpt><trkpt lat="43.3431761" lon="11.9284218"><ele>271.0</ele><time>2026-04-19T14:18:00.119Z</time></trkpt><trkpt lat="43.3432336" lon="11.9285097"><ele>271.0</ele><time>2026-04-19T14:18:01.119Z</time></trkpt><trkpt lat="43.3432875" lon="11.9285909"><ele>271.0</ele><time>2026-04-19T14:18:02.119Z</time></trkpt><trkpt lat="43.3433397" lon="11.9286732"><ele>271.0</ele><time>2026-04-19T14:18:03.12Z</time></trkpt><trkpt lat="43.3433913" lon="11.9287472"><ele>270.7142857142857</ele><time>2026-04-19T14:18:04.12Z</time></trkpt><trkpt lat="43.3434428" lon="11.9288202"><ele>270.42857142857144</ele><time>2026-04-19T14:18:05.12Z</time></trkpt><trkpt lat="43.3434915" lon="11.9288948"><ele>270.14285714285717</ele><time>2026-04-19T14:18:06.12Z</time></trkpt><trkpt lat="43.3435428" lon="11.9289686"><ele>269.8571428571429</ele><time>2026-04-19T14:18:07.12Z</time></trkpt><trkpt lat="43.3435922" lon="11.9290366"><ele>269.5714285714286</ele><time>2026-04-19T14:18:08.119Z</time></trkpt><trkpt lat="43.3436413" lon="11.9291116"><ele>269.2857142857143</ele><time>2026-04-19T14:18:09.119Z</time></trkpt><trkpt lat="43.3436784" lon="11.9291894"><ele>269.0</ele><time>2026-04-19T14:18:10.119Z</time></trkpt><trkpt lat="43.3437163" lon="11.9292673"><ele>269.0</ele><time>2026-04-19T14:18:11.12Z</time></trkpt><trkpt lat="43.3437544" lon="11.9293427"><ele>269.0</ele><time>2026-04-19T14:18:12.119Z</time></trkpt><trkpt lat="43.3437897" lon="11.9294178"><ele>269.0</ele><time>2026-04-19T14:18:13.119Z</time></trkpt><trkpt lat="43.3438569" lon="11.9295525"><ele>269.0</ele><time>2026-04-19T14:18:15.12Z</time></trkpt><trkpt lat="43.3439278" lon="11.929685"><ele>269.0</ele><time>2026-04-19T14:18:17.12Z</time></trkpt><trkpt lat="43.34399" lon="11.9298207"><ele>269.4</ele><time>2026-04-19T14:18:19.12Z</time></trkpt><trkpt lat="43.3440426" lon="11.9299574"><ele>269.79999999999995</ele><time>2026-04-19T14:18:21.12Z</time></trkpt><trkpt lat="43.3440984" lon="11.9300952"><ele>270.20000000000005</ele><time>2026-04-19T14:18:23.119Z</time></trkpt><trkpt lat="43.3441438" lon="11.9302312"><ele>270.6</ele><time>2026-04-19T14:18:25.119Z</time></trkpt><trkpt lat="43.3441762" lon="11.9303693"><ele>271.0</ele><time>2026-04-19T14:18:27.119Z</time></trkpt><trkpt lat="43.3441902" lon="11.9304988"><ele>271.16666666666663</ele><time>2026-04-19T14:18:29.12Z</time></trkpt><trkpt lat="43.3441666" lon="11.9306126"><ele>271.3333333333333</ele><time>2026-04-19T14:18:31.119Z</time></trkpt><trkpt lat="43.3441238" lon="11.9307136"><ele>271.5</ele><time>2026-04-19T14:18:33.12Z</time></trkpt><trkpt lat="43.344068" lon="11.9308056"><ele>271.6666666666667</ele><time>2026-04-19T14:18:35.119Z</time></trkpt><trkpt lat="43.3440203" lon="11.9308907"><ele>271.83333333333337</ele><time>2026-04-19T14:18:37.12Z</time></trkpt><trkpt lat="43.3439678" lon="11.9309998"><ele>272.0</ele><time>2026-04-19T14:18:39.12Z</time></trkpt><trkpt lat="43.3439003" lon="11.9311351"><ele>271.4285714285714</ele><time>2026-04-19T14:18:41.12Z</time></trkpt><trkpt lat="43.3438712" lon="11.9312126"><ele>270.85714285714283</ele><time>2026-04-19T14:18:42.119Z</time></trkpt><trkpt lat="43.3438436" lon="11.9313036"><ele>270.2857142857143</ele><time>2026-04-19T14:18:43.12Z</time></trkpt><trkpt lat="43.3438256" lon="11.9313993"><ele>269.71428571428567</ele><time>2026-04-19T14:18:44.12Z</time></trkpt><trkpt lat="43.3438081" lon="11.9314989"><ele>269.1428571428571</ele><time>2026-04-19T14:18:45.119Z</time></trkpt><trkpt lat="43.3437925" lon="11.9315944"><ele>268.57142857142856</ele><time>2026-04-19T14:18:46.12Z</time></trkpt><trkpt lat="43.3437814" lon="11.9316918"><ele>268.0</ele><time>2026-04-19T14:18:47.12Z</time></trkpt><trkpt lat="43.3437706" lon="11.9317923"><ele>267.8571428571429</ele><time>2026-04-19T14:18:48.119Z</time></trkpt><trkpt lat="43.3437613" lon="11.93189"><ele>267.7142857142857</ele><time>2026-04-19T14:18:49.12Z</time></trkpt><trkpt lat="43.3437535" lon="11.9319868"><ele>267.57142857142856</ele><time>2026-04-19T14:18:50.119Z</time></trkpt><trkpt lat="43.3437432" lon="11.9320811"><ele>267.42857142857144</ele><time>2026-04-19T14:18:51.119Z</time></trkpt><trkpt lat="43.3437328" lon="11.9321765"><ele>267.2857142857143</ele><time>2026-04-19T14:18:52.12Z</time></trkpt><trkpt lat="43.3437246" lon="11.9322697"><ele>267.14285714285717</ele><time>2026-04-19T14:18:53.12Z</time></trkpt><trkpt lat="43.3437151" lon="11.9323655"><ele>267.0</ele><time>2026-04-19T14:18:54.12Z</time></trkpt><trkpt lat="43.3437034" lon="11.9324606"><ele>267.00000000000006</ele><time>2026-04-19T14:18:55.119Z</time></trkpt><trkpt lat="43.3436999" lon="11.9325545"><ele>267.0</ele><time>2026-04-19T14:18:56.12Z</time></trkpt><trkpt lat="43.3437025" lon="11.9326527"><ele>267.0</ele><time>2026-04-19T14:18:57.12Z</time></trkpt><trkpt lat="43.343707" lon="11.9327493"><ele>267.0</ele><time>2026-04-19T14:18:58.119Z</time></trkpt><trkpt lat="43.3437113" lon="11.9328469"><ele>267.0</ele><time>2026-04-19T14:18:59.119Z</time></trkpt><trkpt lat="43.3437191" lon="11.9329422"><ele>267.00000000000006</ele><time>2026-04-19T14:19:00.119Z</time></trkpt><trkpt lat="43.3437275" lon="11.9330348"><ele>267.0</ele><time>2026-04-19T14:19:01.119Z</time></trkpt><trkpt lat="43.3437445" lon="11.9331296"><ele>266.8571428571429</ele><time>2026-04-19T14:19:02.12Z</time></trkpt><trkpt lat="43.3437597" lon="11.9332207"><ele>266.7142857142857</ele><time>2026-04-19T14:19:03.12Z</time></trkpt><trkpt lat="43.3437713" lon="11.9333141"><ele>266.57142857142856</ele><time>2026-04-19T14:19:04.119Z</time></trkpt><trkpt lat="43.3437792" lon="11.933411"><ele>266.42857142857144</ele><time>2026-04-19T14:19:05.12Z</time></trkpt><trkpt lat="43.3437908" lon="11.9335083"><ele>266.2857142857143</ele><time>2026-04-19T14:19:06.12Z</time></trkpt><trkpt lat="43.343799" lon="11.9336055"><ele>266.14285714285717</ele><time>2026-04-19T14:19:07.12Z</time></trkpt><trkpt lat="43.3438052" lon="11.9336989"><ele>266.0</ele><time>2026-04-19T14:19:08.12Z</time></trkpt><trkpt lat="43.343807" lon="11.933791"><ele>266.0</ele><time>2026-04-19T14:19:09.12Z</time></trkpt><trkpt lat="43.3438016" lon="11.933882"><ele>266.0</ele><time>2026-04-19T14:19:10.12Z</time></trkpt><trkpt lat="43.3437965" lon="11.9339699"><ele>266.0</ele><time>2026-04-19T14:19:11.12Z</time></trkpt><trkpt lat="43.3437904" lon="11.934059"><ele>266.0</ele><time>2026-04-19T14:19:12.12Z</time></trkpt><trkpt lat="43.3437835" lon="11.9341478"><ele>266.0</ele><time>2026-04-19T14:19:13.12Z</time></trkpt><trkpt lat="43.3437733" lon="11.9342392"><ele>266.0</ele><time>2026-04-19T14:19:14.119Z</time></trkpt><trkpt lat="43.343763" lon="11.9343279"><ele>266.0</ele><time>2026-04-19T14:19:15.12Z</time></trkpt><trkpt lat="43.3437525" lon="11.9344167"><ele>266.1666666666667</ele><time>2026-04-19T14:19:16.119Z</time></trkpt><trkpt lat="43.3437408" lon="11.9345034"><ele>266.33333333333337</ele><time>2026-04-19T14:19:17.12Z</time></trkpt><trkpt lat="43.3437335" lon="11.9345914"><ele>266.5</ele><time>2026-04-19T14:19:18.12Z</time></trkpt><trkpt lat="43.3437241" lon="11.9346808"><ele>266.6666666666667</ele><time>2026-04-19T14:19:19.12Z</time></trkpt><trkpt lat="43.343704" lon="11.9348523"><ele>266.8333333333333</ele><time>2026-04-19T14:19:21.12Z</time></trkpt><trkpt lat="43.3436926" lon="11.9349377"><ele>267.0</ele><time>2026-04-19T14:19:22.119Z</time></trkpt><trkpt lat="43.3436675" lon="11.9351019"><ele>267.5</ele><time>2026-04-19T14:19:24.12Z</time></trkpt><trkpt lat="43.3436515" lon="11.9352629"><ele>268.0</ele><time>2026-04-19T14:19:26.12Z</time></trkpt><trkpt lat="43.3436399" lon="11.9353815"><ele>268.5</ele><time>2026-04-19T14:19:28.119Z</time></trkpt><trkpt lat="43.3436336" lon="11.9354756"><ele>269.0</ele><time>2026-04-19T14:19:30.12Z</time></trkpt><trkpt lat="43.3435956" lon="11.9355722"><ele>269.5</ele><time>2026-04-19T14:19:32.119Z</time></trkpt><trkpt lat="43.3435299" lon="11.9356193"><ele>270.0</ele><time>2026-04-19T14:19:34.12Z</time></trkpt><trkpt lat="43.3434298" lon="11.9356667"><ele>270.0</ele><time>2026-04-19T14:19:36.12Z</time></trkpt><trkpt lat="43.3433258" lon="11.9357138"><ele>270.0</ele><time>2026-04-19T14:19:38.119Z</time></trkpt><trkpt lat="43.3432107" lon="11.9357528"><ele>270.0</ele><time>2026-04-19T14:19:40.119Z</time></trkpt><trkpt lat="43.3430943" lon="11.9357838"><ele>270.0</ele><time>2026-04-19T14:19:42.12Z</time></trkpt><trkpt lat="43.3429809" lon="11.9358079"><ele>269.2</ele><time>2026-04-19T14:19:44.12Z</time></trkpt><trkpt lat="43.34288" lon="11.9357683"><ele>268.4</ele><time>2026-04-19T14:19:46.12Z</time></trkpt><trkpt lat="43.3427848" lon="11.9357521"><ele>267.6</ele><time>2026-04-19T14:19:48.12Z</time></trkpt><trkpt lat="43.342706" lon="11.9358116"><ele>266.8</ele><time>2026-04-19T14:19:50.12Z</time></trkpt><trkpt lat="43.3426542" lon="11.935928"><ele>266.0</ele><time>2026-04-19T14:19:52.12Z</time></trkpt><trkpt lat="43.3426211" lon="11.9360605"><ele>266.0</ele><time>2026-04-19T14:19:54.12Z</time></trkpt><trkpt lat="43.3426067" lon="11.9361991"><ele>266.0</ele><time>2026-04-19T14:19:56.12Z</time></trkpt><trkpt lat="43.3426132" lon="11.9363491"><ele>266.0</ele><time>2026-04-19T14:19:58.12Z</time></trkpt><trkpt lat="43.342602" lon="11.9365054"><ele>266.0</ele><time>2026-04-19T14:20:00.119Z</time></trkpt><trkpt lat="43.3425675" lon="11.9366635"><ele>266.0</ele><time>2026-04-19T14:20:02.12Z</time></trkpt><trkpt lat="43.3425445" lon="11.9367468"><ele>265.83333333333337</ele><time>2026-04-19T14:20:03.12Z</time></trkpt><trkpt lat="43.3424952" lon="11.9369121"><ele>265.6666666666667</ele><time>2026-04-19T14:20:05.12Z</time></trkpt><trkpt lat="43.3424702" lon="11.9369927"><ele>265.5</ele><time>2026-04-19T14:20:06.12Z</time></trkpt><trkpt lat="43.3424432" lon="11.9370737"><ele>265.3333333333333</ele><time>2026-04-19T14:20:07.119Z</time></trkpt><trkpt lat="43.3424158" lon="11.9371589"><ele>265.16666666666663</ele><time>2026-04-19T14:20:08.119Z</time></trkpt><trkpt lat="43.3423898" lon="11.937244"><ele>265.0</ele><time>2026-04-19T14:20:09.119Z</time></trkpt><trkpt lat="43.3423626" lon="11.937327"><ele>264.99999999999994</ele><time>2026-04-19T14:20:10.12Z</time></trkpt><trkpt lat="43.3423341" lon="11.9374142"><ele>265.0</ele><time>2026-04-19T14:20:11.119Z</time></trkpt><trkpt lat="43.3423111" lon="11.9375054"><ele>265.0</ele><time>2026-04-19T14:20:12.119Z</time></trkpt><trkpt lat="43.3422905" lon="11.9375919"><ele>265.0</ele><time>2026-04-19T14:20:13.119Z</time></trkpt><trkpt lat="43.3422683" lon="11.9376803"><ele>265.0</ele><time>2026-04-19T14:20:14.12Z</time></trkpt><trkpt lat="43.3422493" lon="11.9377681"><ele>264.99999999999994</ele><time>2026-04-19T14:20:15.119Z</time></trkpt><trkpt lat="43.3422313" lon="11.9378574"><ele>265.0</ele><time>2026-04-19T14:20:16.12Z</time></trkpt><trkpt lat="43.3422197" lon="11.9379463"><ele>264.66666666666663</ele><time>2026-04-19T14:20:17.119Z</time></trkpt><trkpt lat="43.3422063" lon="11.9380382"><ele>264.3333333333333</ele><time>2026-04-19T14:20:18.119Z</time></trkpt><trkpt lat="43.342193" lon="11.9381278"><ele>264.0</ele><time>2026-04-19T14:20:19.12Z</time></trkpt><trkpt lat="43.342179" lon="11.9382146"><ele>263.6666666666667</ele><time>2026-04-19T14:20:20.12Z</time></trkpt><trkpt lat="43.3421689" lon="11.9383044"><ele>263.33333333333337</ele><time>2026-04-19T14:20:21.119Z</time></trkpt><trkpt lat="43.3421486" lon="11.938477"><ele>263.0</ele><time>2026-04-19T14:20:23.12Z</time></trkpt><trkpt lat="43.342138" lon="11.9385683"><ele>263.0</ele><time>2026-04-19T14:20:24.12Z</time></trkpt><trkpt lat="43.3421173" lon="11.9386541"><ele>263.0</ele><time>2026-04-19T14:20:25.119Z</time></trkpt><trkpt lat="43.34208" lon="11.9388229"><ele>263.0</ele><time>2026-04-19T14:20:27.119Z</time></trkpt><trkpt lat="43.3420615" lon="11.9389082"><ele>263.0</ele><time>2026-04-19T14:20:28.119Z</time></trkpt><trkpt lat="43.3420412" lon="11.9389935"><ele>263.0</ele><time>2026-04-19T14:20:29.12Z</time></trkpt><trkpt lat="43.3419904" lon="11.9391518"><ele>263.33333333333337</ele><time>2026-04-19T14:20:31.119Z</time></trkpt><trkpt lat="43.3419594" lon="11.9392314"><ele>263.6666666666667</ele><time>2026-04-19T14:20:32.12Z</time></trkpt><trkpt lat="43.3419231" lon="11.9393079"><ele>264.0</ele><time>2026-04-19T14:20:33.12Z</time></trkpt><trkpt lat="43.3418896" lon="11.9393817"><ele>264.3333333333333</ele><time>2026-04-19T14:20:34.12Z</time></trkpt><trkpt lat="43.3418153" lon="11.9395187"><ele>264.66666666666663</ele><time>2026-04-19T14:20:36.12Z</time></trkpt><trkpt lat="43.3417744" lon="11.9395867"><ele>265.0</ele><time>2026-04-19T14:20:37.12Z</time></trkpt><trkpt lat="43.3416913" lon="11.9397197"><ele>265.0</ele><time>2026-04-19T14:20:39.12Z</time></trkpt><trkpt lat="43.3416235" lon="11.9398584"><ele>265.0</ele><time>2026-04-19T14:20:41.12Z</time></trkpt><trkpt lat="43.3415959" lon="11.9399375"><ele>265.0</ele><time>2026-04-19T14:20:42.12Z</time></trkpt><trkpt lat="43.3415364" lon="11.9401006"><ele>265.0</ele><time>2026-04-19T14:20:44.119Z</time></trkpt><trkpt lat="43.3415118" lon="11.9401862"><ele>265.0</ele><time>2026-04-19T14:20:45.119Z</time></trkpt><trkpt lat="43.3414926" lon="11.9402748"><ele>264.99999999999994</ele><time>2026-04-19T14:20:46.12Z</time></trkpt><trkpt lat="43.3414701" lon="11.9403595"><ele>265.0</ele><time>2026-04-19T14:20:47.12Z</time></trkpt><trkpt lat="43.3414499" lon="11.9404445"><ele>265.0</ele><time>2026-04-19T14:20:48.12Z</time></trkpt><trkpt lat="43.3414316" lon="11.9405335"><ele>265.0</ele><time>2026-04-19T14:20:49.119Z</time></trkpt><trkpt lat="43.3414163" lon="11.940624"><ele>265.0</ele><time>2026-04-19T14:20:50.12Z</time></trkpt><trkpt lat="43.3414116" lon="11.9407143"><ele>264.99999999999994</ele><time>2026-04-19T14:20:51.119Z</time></trkpt><trkpt lat="43.3414126" lon="11.9408015"><ele>265.0</ele><time>2026-04-19T14:20:52.119Z</time></trkpt><trkpt lat="43.3414059" lon="11.9409704"><ele>264.8</ele><time>2026-04-19T14:20:54.12Z</time></trkpt><trkpt lat="43.3414058" lon="11.9410574"><ele>264.6</ele><time>2026-04-19T14:20:55.12Z</time></trkpt><trkpt lat="43.3414025" lon="11.9412266"><ele>264.4</ele><time>2026-04-19T14:20:57.119Z</time></trkpt><trkpt lat="43.3413937" lon="11.9413758"><ele>264.2</ele><time>2026-04-19T14:20:59.12Z</time></trkpt><trkpt lat="43.3413768" lon="11.9415278"><ele>264.0</ele><time>2026-04-19T14:21:01.12Z</time></trkpt><trkpt lat="43.3413557" lon="11.9416782"><ele>263.6666666666667</ele><time>2026-04-19T14:21:03.119Z</time></trkpt><trkpt lat="43.3413164" lon="11.9418359"><ele>263.3333333333333</ele><time>2026-04-19T14:21:05.119Z</time></trkpt><trkpt lat="43.3412883" lon="11.9419189"><ele>263.0</ele><time>2026-04-19T14:21:06.119Z</time></trkpt><trkpt lat="43.3412596" lon="11.9420172"><ele>262.66666666666663</ele><time>2026-04-19T14:21:07.12Z</time></trkpt><trkpt lat="43.3412285" lon="11.9421086"><ele>262.3333333333333</ele><time>2026-04-19T14:21:08.12Z</time></trkpt><trkpt lat="43.3412022" lon="11.9422065"><ele>262.0</ele><time>2026-04-19T14:21:09.12Z</time></trkpt><trkpt lat="43.3411734" lon="11.9423061"><ele>262.0</ele><time>2026-04-19T14:21:10.119Z</time></trkpt><trkpt lat="43.3411456" lon="11.9424017"><ele>262.0</ele><time>2026-04-19T14:21:11.12Z</time></trkpt><trkpt lat="43.3411177" lon="11.9424955"><ele>262.0</ele><time>2026-04-19T14:21:12.119Z</time></trkpt><trkpt lat="43.3410876" lon="11.9425936"><ele>262.0</ele><time>2026-04-19T14:21:13.12Z</time></trkpt><trkpt lat="43.3410628" lon="11.9426915"><ele>262.0</ele><time>2026-04-19T14:21:14.12Z</time></trkpt><trkpt lat="43.3410365" lon="11.9427857"><ele>262.0</ele><time>2026-04-19T14:21:15.12Z</time></trkpt><trkpt lat="43.3410063" lon="11.9428776"><ele>262.0</ele><time>2026-04-19T14:21:16.119Z</time></trkpt><trkpt lat="43.3409765" lon="11.9429713"><ele>262.0</ele><time>2026-04-19T14:21:17.12Z</time></trkpt><trkpt lat="43.340944" lon="11.943062"><ele>262.0</ele><time>2026-04-19T14:21:18.12Z</time></trkpt><trkpt lat="43.3409054" lon="11.9431487"><ele>262.0</ele><time>2026-04-19T14:21:19.12Z</time></trkpt><trkpt lat="43.3408612" lon="11.9432259"><ele>262.0</ele><time>2026-04-19T14:21:20.12Z</time></trkpt><trkpt lat="43.3408078" lon="11.943297"><ele>262.0</ele><time>2026-04-19T14:21:21.12Z</time></trkpt><trkpt lat="43.3407462" lon="11.9433549"><ele>262.0</ele><time>2026-04-19T14:21:22.119Z</time></trkpt><trkpt lat="43.3406839" lon="11.9434097"><ele>262.0</ele><time>2026-04-19T14:21:23.119Z</time></trkpt><trkpt lat="43.3406173" lon="11.9434584"><ele>262.0</ele><time>2026-04-19T14:21:24.12Z</time></trkpt><trkpt lat="43.3405588" lon="11.9435109"><ele>262.0</ele><time>2026-04-19T14:21:25.12Z</time></trkpt><trkpt lat="43.3405056" lon="11.9435742"><ele>262.0</ele><time>2026-04-19T14:21:26.119Z</time></trkpt><trkpt lat="43.3404581" lon="11.9436436"><ele>262.0</ele><time>2026-04-19T14:21:27.119Z</time></trkpt><trkpt lat="43.340411" lon="11.943709"><ele>262.0</ele><time>2026-04-19T14:21:28.12Z</time></trkpt><trkpt lat="43.3403703" lon="11.9437822"><ele>262.0</ele><time>2026-04-19T14:21:29.12Z</time></trkpt><trkpt lat="43.3403348" lon="11.9438588"><ele>262.0</ele><time>2026-04-19T14:21:30.12Z</time></trkpt><trkpt lat="43.3403077" lon="11.9439456"><ele>262.0</ele><time>2026-04-19T14:21:31.12Z</time></trkpt><trkpt lat="43.3402907" lon="11.9440337"><ele>262.0</ele><time>2026-04-19T14:21:32.12Z</time></trkpt><trkpt lat="43.3402724" lon="11.9441205"><ele>262.0</ele><time>2026-04-19T14:21:33.12Z</time></trkpt><trkpt lat="43.3402574" lon="11.94421"><ele>262.0</ele><time>2026-04-19T14:21:34.119Z</time></trkpt><trkpt lat="43.3402386" lon="11.9442992"><ele>262.0</ele><time>2026-04-19T14:21:35.12Z</time></trkpt><trkpt lat="43.3402172" lon="11.9443871"><ele>262.0</ele><time>2026-04-19T14:21:36.12Z</time></trkpt><trkpt lat="43.3401965" lon="11.9444776"><ele>262.0</ele><time>2026-04-19T14:21:37.119Z</time></trkpt><trkpt lat="43.3401767" lon="11.9445682"><ele>262.16666666666663</ele><time>2026-04-19T14:21:38.119Z</time></trkpt><trkpt lat="43.3401577" lon="11.9446546"><ele>262.3333333333333</ele><time>2026-04-19T14:21:39.12Z</time></trkpt><trkpt lat="43.3401387" lon="11.9447392"><ele>262.5</ele><time>2026-04-19T14:21:40.119Z</time></trkpt><trkpt lat="43.3401182" lon="11.9448928"><ele>262.6666666666667</ele><time>2026-04-19T14:21:42.119Z</time></trkpt><trkpt lat="43.34015" lon="11.9450185"><ele>262.83333333333337</ele><time>2026-04-19T14:21:44.12Z</time></trkpt><trkpt lat="43.3402095" lon="11.9451116"><ele>263.0</ele><time>2026-04-19T14:21:46.119Z</time></trkpt><trkpt lat="43.3402481" lon="11.9452124"><ele>263.0</ele><time>2026-04-19T14:21:49.119Z</time></trkpt><trkpt lat="43.3403096" lon="11.9452955"><ele>263.0</ele><time>2026-04-19T14:21:52.12Z</time></trkpt><trkpt lat="43.3403494" lon="11.9453646"><ele>263.0</ele><time>2026-04-19T14:21:54.119Z</time></trkpt><trkpt lat="43.3403925" lon="11.945438"><ele>263.0</ele><time>2026-04-19T14:21:56.119Z</time></trkpt><trkpt lat="43.3404446" lon="11.9455126"><ele>263.0</ele><time>2026-04-19T14:21:58.12Z</time></trkpt><trkpt lat="43.340506" lon="11.9455928"><ele>263.0</ele><time>2026-04-19T14:22:00.12Z</time></trkpt><trkpt lat="43.3405636" lon="11.9456985"><ele>263.2</ele><time>2026-04-19T14:22:02.12Z</time></trkpt><trkpt lat="43.3406165" lon="11.945791"><ele>263.4</ele><time>2026-04-19T14:22:04.12Z</time></trkpt><trkpt lat="43.3406737" lon="11.9458953"><ele>263.59999999999997</ele><time>2026-04-19T14:22:06.12Z</time></trkpt><trkpt lat="43.3407239" lon="11.9460015"><ele>263.8</ele><time>2026-04-19T14:22:08.12Z</time></trkpt><trkpt lat="43.3407689" lon="11.9461244"><ele>264.0</ele><time>2026-04-19T14:22:10.12Z</time></trkpt><trkpt lat="43.3408284" lon="11.9462325"><ele>264.2</ele><time>2026-04-19T14:22:12.12Z</time></trkpt><trkpt lat="43.3408798" lon="11.9463319"><ele>264.4</ele><time>2026-04-19T14:22:14.119Z</time></trkpt><trkpt lat="43.3409367" lon="11.946438"><ele>264.6</ele><time>2026-04-19T14:22:16.12Z</time></trkpt><trkpt lat="43.3409953" lon="11.9465422"><ele>264.8</ele><time>2026-04-19T14:22:18.119Z</time></trkpt><trkpt lat="43.3410536" lon="11.946646"><ele>265.0</ele><time>2026-04-19T14:22:20.119Z</time></trkpt><trkpt lat="43.3411164" lon="11.9467568"><ele>265.0</ele><time>2026-04-19T14:22:22.12Z</time></trkpt><trkpt lat="43.3411774" lon="11.9468641"><ele>265.0</ele><time>2026-04-19T14:22:24.12Z</time></trkpt><trkpt lat="43.3412339" lon="11.9469669"><ele>265.0</ele><time>2026-04-19T14:22:26.119Z</time></trkpt><trkpt lat="43.3413015" lon="11.9470732"><ele>265.0</ele><time>2026-04-19T14:22:28.12Z</time></trkpt><trkpt lat="43.3413614" lon="11.9471702"><ele>265.0</ele><time>2026-04-19T14:22:30.12Z</time></trkpt><trkpt lat="43.3414232" lon="11.9472587"><ele>265.0</ele><time>2026-04-19T14:22:32.119Z</time></trkpt><trkpt lat="43.3414731" lon="11.9473422"><ele>265.0</ele><time>2026-04-19T14:22:34.119Z</time></trkpt><trkpt lat="43.3415219" lon="11.9474246"><ele>265.0</ele><time>2026-04-19T14:22:36.119Z</time></trkpt><trkpt lat="43.3415708" lon="11.9475433"><ele>265.0</ele><time>2026-04-19T14:22:38.12Z</time></trkpt><trkpt lat="43.3416285" lon="11.9476763"><ele>265.0</ele><time>2026-04-19T14:22:40.12Z</time></trkpt><trkpt lat="43.3417036" lon="11.9478132"><ele>265.0</ele><time>2026-04-19T14:22:42.12Z</time></trkpt><trkpt lat="43.3417764" lon="11.9479397"><ele>265.0</ele><time>2026-04-19T14:22:44.12Z</time></trkpt><trkpt lat="43.3418451" lon="11.9480873"><ele>265.0</ele><time>2026-04-19T14:22:46.12Z</time></trkpt><trkpt lat="43.3419237" lon="11.948222"><ele>265.0</ele><time>2026-04-19T14:22:48.119Z</time></trkpt><trkpt lat="43.3420036" lon="11.9483527"><ele>264.8333333333333</ele><time>2026-04-19T14:22:50.119Z</time></trkpt><trkpt lat="43.3420441" lon="11.9484219"><ele>264.66666666666663</ele><time>2026-04-19T14:22:51.12Z</time></trkpt><trkpt lat="43.3420821" lon="11.9484935"><ele>264.5</ele><time>2026-04-19T14:22:52.119Z</time></trkpt><trkpt lat="43.3421255" lon="11.9485605"><ele>264.3333333333333</ele><time>2026-04-19T14:22:53.12Z</time></trkpt><trkpt lat="43.3422005" lon="11.948701"><ele>264.1666666666667</ele><time>2026-04-19T14:22:55.12Z</time></trkpt><trkpt lat="43.3422407" lon="11.9487769"><ele>264.0</ele><time>2026-04-19T14:22:56.12Z</time></trkpt><trkpt lat="43.3422799" lon="11.9488485"><ele>264.0</ele><time>2026-04-19T14:22:57.12Z</time></trkpt><trkpt lat="43.3423205" lon="11.9489208"><ele>264.0</ele><time>2026-04-19T14:22:58.12Z</time></trkpt><trkpt lat="43.3423628" lon="11.9489865"><ele>264.0</ele><time>2026-04-19T14:22:59.12Z</time></trkpt><trkpt lat="43.3424078" lon="11.9490542"><ele>264.0</ele><time>2026-04-19T14:23:00.12Z</time></trkpt><trkpt lat="43.3424457" lon="11.9491291"><ele>264.0</ele><time>2026-04-19T14:23:01.119Z</time></trkpt><trkpt lat="43.3424868" lon="11.9491977"><ele>264.0</ele><time>2026-04-19T14:23:02.119Z</time></trkpt><trkpt lat="43.3425245" lon="11.9492732"><ele>264.0</ele><time>2026-04-19T14:23:03.12Z</time></trkpt><trkpt lat="43.3425629" lon="11.9493482"><ele>264.0</ele><time>2026-04-19T14:23:04.119Z</time></trkpt><trkpt lat="43.342601" lon="11.9494212"><ele>264.0</ele><time>2026-04-19T14:23:05.12Z</time></trkpt><trkpt lat="43.3426793" lon="11.949555"><ele>264.0</ele><time>2026-04-19T14:23:07.12Z</time></trkpt><trkpt lat="43.3427168" lon="11.9496282"><ele>264.0</ele><time>2026-04-19T14:23:08.12Z</time></trkpt><trkpt lat="43.3427949" lon="11.9497634"><ele>264.0</ele><time>2026-04-19T14:23:10.12Z</time></trkpt><trkpt lat="43.3428369" lon="11.9498328"><ele>264.0</ele><time>2026-04-19T14:23:11.119Z</time></trkpt><trkpt lat="43.3428749" lon="11.9499039"><ele>264.0</ele><time>2026-04-19T14:23:12.119Z</time></trkpt><trkpt lat="43.3429151" lon="11.9499774"><ele>264.0</ele><time>2026-04-19T14:23:13.12Z</time></trkpt><trkpt lat="43.3429573" lon="11.9500431"><ele>264.0</ele><time>2026-04-19T14:23:14.12Z</time></trkpt><trkpt lat="43.3430378" lon="11.9501721"><ele>264.0</ele><time>2026-04-19T14:23:16.12Z</time></trkpt><trkpt lat="43.3430796" lon="11.950243"><ele>264.0</ele><time>2026-04-19T14:23:17.119Z</time></trkpt><trkpt lat="43.3431194" lon="11.9503134"><ele>264.0</ele><time>2026-04-19T14:23:18.119Z</time></trkpt><trkpt lat="43.3431601" lon="11.9503829"><ele>264.4</ele><time>2026-04-19T14:23:19.119Z</time></trkpt><trkpt lat="43.3432001" lon="11.9504507"><ele>264.79999999999995</ele><time>2026-04-19T14:23:20.12Z</time></trkpt><trkpt lat="43.3432356" lon="11.9505226"><ele>265.20000000000005</ele><time>2026-04-19T14:23:21.12Z</time></trkpt><trkpt lat="43.3433094" lon="11.9506613"><ele>265.6</ele><time>2026-04-19T14:23:23.119Z</time></trkpt><trkpt lat="43.3433989" lon="11.9507738"><ele>266.0</ele><time>2026-04-19T14:23:25.12Z</time></trkpt><trkpt lat="43.3435026" lon="11.9508734"><ele>266.2</ele><time>2026-04-19T14:23:27.119Z</time></trkpt><trkpt lat="43.3435827" lon="11.9509976"><ele>266.40000000000003</ele><time>2026-04-19T14:23:29.12Z</time></trkpt><trkpt lat="43.3436515" lon="11.9511424"><ele>266.6</ele><time>2026-04-19T14:23:31.12Z</time></trkpt><trkpt lat="43.3436899" lon="11.951213"><ele>266.8</ele><time>2026-04-19T14:23:32.119Z</time></trkpt><trkpt lat="43.3437625" lon="11.9513443"><ele>267.0</ele><time>2026-04-19T14:23:34.119Z</time></trkpt><trkpt lat="43.3438313" lon="11.9514763"><ele>267.0</ele><time>2026-04-19T14:23:36.119Z</time></trkpt><trkpt lat="43.3438836" lon="11.9515905"><ele>267.0</ele><time>2026-04-19T14:23:38.12Z</time></trkpt><trkpt lat="43.3439255" lon="11.9516865"><ele>267.0</ele><time>2026-04-19T14:23:40.12Z</time></trkpt><trkpt lat="43.3439643" lon="11.9517694"><ele>267.0</ele><time>2026-04-19T14:23:42.119Z</time></trkpt><trkpt lat="43.3439977" lon="11.9518498"><ele>267.0</ele><time>2026-04-19T14:23:44.12Z</time></trkpt><trkpt lat="43.344031" lon="11.951938"><ele>267.0</ele><time>2026-04-19T14:23:46.12Z</time></trkpt><trkpt lat="43.344058" lon="11.9520528"><ele>266.75</ele><time>2026-04-19T14:23:48.119Z</time></trkpt><trkpt lat="43.3440935" lon="11.9521882"><ele>266.5</ele><time>2026-04-19T14:23:50.119Z</time></trkpt><trkpt lat="43.3441319" lon="11.9523222"><ele>266.25</ele><time>2026-04-19T14:23:52.12Z</time></trkpt><trkpt lat="43.3441677" lon="11.9524819"><ele>266.0</ele><time>2026-04-19T14:23:54.12Z</time></trkpt><trkpt lat="43.3442103" lon="11.9526449"><ele>266.0</ele><time>2026-04-19T14:23:56.12Z</time></trkpt><trkpt lat="43.3442339" lon="11.9527272"><ele>266.0</ele><time>2026-04-19T14:23:57.119Z</time></trkpt><trkpt lat="43.3442801" lon="11.9528891"><ele>266.0</ele><time>2026-04-19T14:23:59.119Z</time></trkpt><trkpt lat="43.3443078" lon="11.952975"><ele>266.0</ele><time>2026-04-19T14:24:00.12Z</time></trkpt><trkpt lat="43.3443329" lon="11.9530562"><ele>266.0</ele><time>2026-04-19T14:24:01.12Z</time></trkpt><trkpt lat="43.3443566" lon="11.9531387"><ele>266.0</ele><time>2026-04-19T14:24:02.119Z</time></trkpt><trkpt lat="43.3443972" lon="11.9532946"><ele>266.25</ele><time>2026-04-19T14:24:04.12Z</time></trkpt><trkpt lat="43.3444287" lon="11.9534355"><ele>266.5</ele><time>2026-04-19T14:24:06.12Z</time></trkpt><trkpt lat="43.344466" lon="11.9535799"><ele>266.75</ele><time>2026-04-19T14:24:08.119Z</time></trkpt><trkpt lat="43.3444973" lon="11.9537361"><ele>267.0</ele><time>2026-04-19T14:24:10.119Z</time></trkpt><trkpt lat="43.3445243" lon="11.9539043"><ele>267.0</ele><time>2026-04-19T14:24:12.12Z</time></trkpt><trkpt lat="43.3445648" lon="11.9540661"><ele>267.0</ele><time>2026-04-19T14:24:14.12Z</time></trkpt><trkpt lat="43.3445841" lon="11.9541518"><ele>267.0</ele><time>2026-04-19T14:24:15.12Z</time></trkpt><trkpt lat="43.3446013" lon="11.9542367"><ele>267.0</ele><time>2026-04-19T14:24:16.119Z</time></trkpt><trkpt lat="43.3446364" lon="11.954396"><ele>267.0</ele><time>2026-04-19T14:24:18.119Z</time></trkpt><trkpt lat="43.3446742" lon="11.9545561"><ele>267.4</ele><time>2026-04-19T14:24:20.12Z</time></trkpt><trkpt lat="43.3447072" lon="11.9547159"><ele>267.79999999999995</ele><time>2026-04-19T14:24:22.119Z</time></trkpt><trkpt lat="43.344749" lon="11.9548824"><ele>268.2</ele><time>2026-04-19T14:24:24.119Z</time></trkpt><trkpt lat="43.34477" lon="11.9549643"><ele>268.59999999999997</ele><time>2026-04-19T14:24:25.12Z</time></trkpt><trkpt lat="43.3448085" lon="11.9551288"><ele>269.0</ele><time>2026-04-19T14:24:27.12Z</time></trkpt><trkpt lat="43.3448525" lon="11.9552947"><ele>269.0</ele><time>2026-04-19T14:24:29.12Z</time></trkpt><trkpt lat="43.3448756" lon="11.9553787"><ele>269.0</ele><time>2026-04-19T14:24:30.119Z</time></trkpt><trkpt lat="43.3449183" lon="11.9555406"><ele>269.0</ele><time>2026-04-19T14:24:32.12Z</time></trkpt><trkpt lat="43.3449438" lon="11.9556257"><ele>269.0</ele><time>2026-04-19T14:24:33.12Z</time></trkpt><trkpt lat="43.3449853" lon="11.9557733"><ele>269.0</ele><time>2026-04-19T14:24:35.12Z</time></trkpt><trkpt lat="43.3450228" lon="11.9559281"><ele>269.2</ele><time>2026-04-19T14:24:37.12Z</time></trkpt><trkpt lat="43.3450371" lon="11.9560128"><ele>269.4</ele><time>2026-04-19T14:24:38.119Z</time></trkpt><trkpt lat="43.3450764" lon="11.9561758"><ele>269.6</ele><time>2026-04-19T14:24:40.12Z</time></trkpt><trkpt lat="43.3450977" lon="11.956259"><ele>269.8</ele><time>2026-04-19T14:24:41.119Z</time></trkpt><trkpt lat="43.3451395" lon="11.9564227"><ele>270.0</ele><time>2026-04-19T14:24:43.119Z</time></trkpt><trkpt lat="43.3451828" lon="11.95658"><ele>270.0</ele><time>2026-04-19T14:24:45.12Z</time></trkpt><trkpt lat="43.345219" lon="11.9567467"><ele>270.0</ele><time>2026-04-19T14:24:47.119Z</time></trkpt><trkpt lat="43.3452568" lon="11.9568992"><ele>270.0</ele><time>2026-04-19T14:24:49.119Z</time></trkpt><trkpt lat="43.3452891" lon="11.9570586"><ele>270.0</ele><time>2026-04-19T14:24:51.12Z</time></trkpt><trkpt lat="43.3453075" lon="11.957142"><ele>270.0</ele><time>2026-04-19T14:24:52.12Z</time></trkpt><trkpt lat="43.3453406" lon="11.9572956"><ele>270.0</ele><time>2026-04-19T14:24:54.12Z</time></trkpt><trkpt lat="43.34538" lon="11.9574562"><ele>270.0</ele><time>2026-04-19T14:24:56.119Z</time></trkpt><trkpt lat="43.3454179" lon="11.9576165"><ele>270.0</ele><time>2026-04-19T14:24:58.12Z</time></trkpt><trkpt lat="43.3454602" lon="11.957776"><ele>270.0</ele><time>2026-04-19T14:25:00.12Z</time></trkpt><trkpt lat="43.345502" lon="11.9579356"><ele>270.0</ele><time>2026-04-19T14:25:02.12Z</time></trkpt><trkpt lat="43.3455367" lon="11.9580945"><ele>270.0</ele><time>2026-04-19T14:25:04.12Z</time></trkpt><trkpt lat="43.3455778" lon="11.9582534"><ele>270.0</ele><time>2026-04-19T14:25:06.119Z</time></trkpt><trkpt lat="43.3456165" lon="11.9584123"><ele>270.0</ele><time>2026-04-19T14:25:08.12Z</time></trkpt><trkpt lat="43.3456585" lon="11.9585675"><ele>270.0</ele><time>2026-04-19T14:25:10.119Z</time></trkpt><trkpt lat="43.3457" lon="11.9587189"><ele>270.0</ele><time>2026-04-19T14:25:12.12Z</time></trkpt><trkpt lat="43.3457384" lon="11.9588756"><ele>270.0</ele><time>2026-04-19T14:25:14.119Z</time></trkpt><trkpt lat="43.3457778" lon="11.9590264"><ele>270.0</ele><time>2026-04-19T14:25:16.119Z</time></trkpt><trkpt lat="43.3458195" lon="11.9591778"><ele>270.2</ele><time>2026-04-19T14:25:18.12Z</time></trkpt><trkpt lat="43.3458563" lon="11.9593241"><ele>270.4</ele><time>2026-04-19T14:25:20.12Z</time></trkpt><trkpt lat="43.3458923" lon="11.95946"><ele>270.6</ele><time>2026-04-19T14:25:22.12Z</time></trkpt><trkpt lat="43.3459203" lon="11.9595748"><ele>270.8</ele><time>2026-04-19T14:25:24.119Z</time></trkpt><trkpt lat="43.3459559" lon="11.9596884"><ele>271.0</ele><time>2026-04-19T14:25:26.12Z</time></trkpt><trkpt lat="43.3459943" lon="11.9597977"><ele>271.0</ele><time>2026-04-19T14:25:28.12Z</time></trkpt><trkpt lat="43.3460338" lon="11.9599015"><ele>271.0</ele><time>2026-04-19T14:25:30.12Z</time></trkpt><trkpt lat="43.3460632" lon="11.9599936"><ele>271.0</ele><time>2026-04-19T14:25:32.12Z</time></trkpt><trkpt lat="43.346086" lon="11.9600748"><ele>271.0</ele><time>2026-04-19T14:25:35.118Z</time></trkpt><trkpt lat="43.3460734" lon="11.9603277"><ele>271.0</ele><time>2026-04-19T14:26:04.119Z</time></trkpt><trkpt lat="43.3459671" lon="11.9603406"><ele>271.3333333333333</ele><time>2026-04-19T14:26:15.118Z</time></trkpt><trkpt lat="43.345893" lon="11.9603493"><ele>271.66666666666663</ele><time>2026-04-19T14:26:19.118Z</time></trkpt><trkpt lat="43.345848" lon="11.9604294"><ele>272.0</ele><time>2026-04-19T14:26:22.119Z</time></trkpt><trkpt lat="43.3458887" lon="11.9605287"><ele>272.3333333333333</ele><time>2026-04-19T14:26:25.119Z</time></trkpt><trkpt lat="43.3459239" lon="11.960611"><ele>272.6666666666667</ele><time>2026-04-19T14:26:27.119Z</time></trkpt><trkpt lat="43.3459625" lon="11.9606979"><ele>273.0</ele><time>2026-04-19T14:26:29.118Z</time></trkpt><trkpt lat="43.3460094" lon="11.9607876"><ele>273.0</ele><time>2026-04-19T14:26:31.119Z</time></trkpt><trkpt lat="43.3460612" lon="11.9608779"><ele>273.0</ele><time>2026-04-19T14:26:33.118Z</time></trkpt><trkpt lat="43.3461117" lon="11.9609726"><ele>273.0</ele><time>2026-04-19T14:26:35.119Z</time></trkpt><trkpt lat="43.3461649" lon="11.9610736"><ele>273.0</ele><time>2026-04-19T14:26:37.119Z</time></trkpt><trkpt lat="43.346218" lon="11.9611731"><ele>273.0</ele><time>2026-04-19T14:26:39.118Z</time></trkpt><trkpt lat="43.3462743" lon="11.9612751"><ele>273.0</ele><time>2026-04-19T14:26:41.119Z</time></trkpt><trkpt lat="43.3463241" lon="11.9613715"><ele>273.0</ele><time>2026-04-19T14:26:43.119Z</time></trkpt><trkpt lat="43.3463757" lon="11.961469"><ele>273.0</ele><time>2026-04-19T14:26:45.119Z</time></trkpt><trkpt lat="43.346436" lon="11.961568"><ele>273.0</ele><time>2026-04-19T14:26:47.118Z</time></trkpt><trkpt lat="43.3464865" lon="11.9616718"><ele>273.0</ele><time>2026-04-19T14:26:49.119Z</time></trkpt><trkpt lat="43.3465385" lon="11.9617763"><ele>273.0</ele><time>2026-04-19T14:26:51.118Z</time></trkpt><trkpt lat="43.3465918" lon="11.9618696"><ele>272.8</ele><time>2026-04-19T14:26:53.119Z</time></trkpt><trkpt lat="43.3466429" lon="11.9619765"><ele>272.6</ele><time>2026-04-19T14:26:55.118Z</time></trkpt><trkpt lat="43.346695" lon="11.9620856"><ele>272.4</ele><time>2026-04-19T14:26:57.119Z</time></trkpt><trkpt lat="43.3467455" lon="11.9621987"><ele>272.2</ele><time>2026-04-19T14:26:59.119Z</time></trkpt><trkpt lat="43.3467968" lon="11.9623155"><ele>272.0</ele><time>2026-04-19T14:27:01.119Z</time></trkpt><trkpt lat="43.3468479" lon="11.9624246"><ele>271.8</ele><time>2026-04-19T14:27:03.118Z</time></trkpt><trkpt lat="43.3468984" lon="11.9625426"><ele>271.6</ele><time>2026-04-19T14:27:05.119Z</time></trkpt><trkpt lat="43.3469508" lon="11.9626527"><ele>271.40000000000003</ele><time>2026-04-19T14:27:07.118Z</time></trkpt><trkpt lat="43.3470038" lon="11.9627667"><ele>271.2</ele><time>2026-04-19T14:27:09.118Z</time></trkpt><trkpt lat="43.3470562" lon="11.9628736"><ele>271.0</ele><time>2026-04-19T14:27:11.119Z</time></trkpt><trkpt lat="43.3471114" lon="11.9629876"><ele>271.0</ele><time>2026-04-19T14:27:13.119Z</time></trkpt><trkpt lat="43.3471632" lon="11.9631045"><ele>271.0</ele><time>2026-04-19T14:27:15.118Z</time></trkpt><trkpt lat="43.3472191" lon="11.9632257"><ele>271.0</ele><time>2026-04-19T14:27:17.119Z</time></trkpt><trkpt lat="43.3472726" lon="11.9633334"><ele>271.0</ele><time>2026-04-19T14:27:19.119Z</time></trkpt><trkpt lat="43.347324" lon="11.9634284"><ele>271.0</ele><time>2026-04-19T14:27:21.119Z</time></trkpt><trkpt lat="43.347363" lon="11.9635074"><ele>271.5</ele><time>2026-04-19T14:27:23.119Z</time></trkpt><trkpt lat="43.3473979" lon="11.9635826"><ele>272.0</ele><time>2026-04-19T14:27:25.119Z</time></trkpt><trkpt lat="43.3474394" lon="11.9636681"><ele>272.5</ele><time>2026-04-19T14:27:27.118Z</time></trkpt><trkpt lat="43.3474851" lon="11.9637605"><ele>273.0</ele><time>2026-04-19T14:27:29.119Z</time></trkpt><trkpt lat="43.34753" lon="11.9638543"><ele>273.5</ele><time>2026-04-19T14:27:31.119Z</time></trkpt><trkpt lat="43.3475833" lon="11.9639482"><ele>274.0</ele><time>2026-04-19T14:27:33.119Z</time></trkpt><trkpt lat="43.3476273" lon="11.9640465"><ele>274.0</ele><time>2026-04-19T14:27:35.118Z</time></trkpt><trkpt lat="43.3476735" lon="11.9641468"><ele>274.0</ele><time>2026-04-19T14:27:37.119Z</time></trkpt><trkpt lat="43.3477256" lon="11.9642469"><ele>274.0</ele><time>2026-04-19T14:27:39.118Z</time></trkpt><trkpt lat="43.3477865" lon="11.96435"><ele>274.0</ele><time>2026-04-19T14:27:41.119Z</time></trkpt><trkpt lat="43.3478419" lon="11.9644549"><ele>274.0</ele><time>2026-04-19T14:27:43.119Z</time></trkpt><trkpt lat="43.3478997" lon="11.9645536"><ele>274.0</ele><time>2026-04-19T14:27:45.118Z</time></trkpt><trkpt lat="43.3479559" lon="11.9646488"><ele>274.0</ele><time>2026-04-19T14:27:47.118Z</time></trkpt><trkpt lat="43.3480075" lon="11.9647497"><ele>274.0</ele><time>2026-04-19T14:27:49.119Z</time></trkpt><trkpt lat="43.3480667" lon="11.9648575"><ele>274.0</ele><time>2026-04-19T14:27:51.119Z</time></trkpt><trkpt lat="43.3481332" lon="11.9649664"><ele>274.0</ele><time>2026-04-19T14:27:53.118Z</time></trkpt><trkpt lat="43.3481883" lon="11.9650763"><ele>274.59999999999997</ele><time>2026-04-19T14:27:55.118Z</time></trkpt><trkpt lat="43.3482473" lon="11.9651916"><ele>275.2</ele><time>2026-04-19T14:27:57.118Z</time></trkpt><trkpt lat="43.3483069" lon="11.9653057"><ele>275.79999999999995</ele><time>2026-04-19T14:27:59.118Z</time></trkpt><trkpt lat="43.348363" lon="11.9654259"><ele>276.4</ele><time>2026-04-19T14:28:01.118Z</time></trkpt><trkpt lat="43.3484218" lon="11.9655459"><ele>277.0</ele><time>2026-04-19T14:28:03.118Z</time></trkpt><trkpt lat="43.3484778" lon="11.9656792"><ele>277.0</ele><time>2026-04-19T14:28:05.119Z</time></trkpt><trkpt lat="43.3485384" lon="11.9658079"><ele>277.0</ele><time>2026-04-19T14:28:07.119Z</time></trkpt><trkpt lat="43.3485995" lon="11.965945"><ele>277.0</ele><time>2026-04-19T14:28:09.119Z</time></trkpt><trkpt lat="43.3486507" lon="11.9660783"><ele>277.0</ele><time>2026-04-19T14:28:11.118Z</time></trkpt><trkpt lat="43.3487123" lon="11.9662034"><ele>277.0</ele><time>2026-04-19T14:28:13.119Z</time></trkpt><trkpt lat="43.348773" lon="11.9663309"><ele>276.8</ele><time>2026-04-19T14:28:15.119Z</time></trkpt><trkpt lat="43.3488237" lon="11.9664537"><ele>276.6</ele><time>2026-04-19T14:28:17.119Z</time></trkpt><trkpt lat="43.348873" lon="11.9665642"><ele>276.40000000000003</ele><time>2026-04-19T14:28:19.119Z</time></trkpt><trkpt lat="43.3489242" lon="11.9666778"><ele>276.2</ele><time>2026-04-19T14:28:21.118Z</time></trkpt><trkpt lat="43.34898" lon="11.9667988"><ele>276.0</ele><time>2026-04-19T14:28:23.119Z</time></trkpt><trkpt lat="43.3490324" lon="11.9669306"><ele>276.3333333333333</ele><time>2026-04-19T14:28:25.119Z</time></trkpt><trkpt lat="43.3490893" lon="11.9670545"><ele>276.6666666666667</ele><time>2026-04-19T14:28:27.119Z</time></trkpt><trkpt lat="43.3491413" lon="11.9671852"><ele>277.0</ele><time>2026-04-19T14:28:29.118Z</time></trkpt><trkpt lat="43.3491926" lon="11.9672949"><ele>277.33333333333337</ele><time>2026-04-19T14:28:31.119Z</time></trkpt><trkpt lat="43.349238" lon="11.9673696"><ele>277.6666666666667</ele><time>2026-04-19T14:28:33.118Z</time></trkpt><trkpt lat="43.3492682" lon="11.967449"><ele>278.0</ele><time>2026-04-19T14:28:35.118Z</time></trkpt><trkpt lat="43.3493004" lon="11.9675511"><ele>278.0</ele><time>2026-04-19T14:28:37.119Z</time></trkpt><trkpt lat="43.3493317" lon="11.96768"><ele>278.0</ele><time>2026-04-19T14:28:39.119Z</time></trkpt><trkpt lat="43.3493626" lon="11.9678137"><ele>278.0</ele><time>2026-04-19T14:28:41.119Z</time></trkpt><trkpt lat="43.3493879" lon="11.9679623"><ele>278.0</ele><time>2026-04-19T14:28:43.118Z</time></trkpt><trkpt lat="43.3494065" lon="11.9681051"><ele>278.0</ele><time>2026-04-19T14:28:45.118Z</time></trkpt><trkpt lat="43.3494272" lon="11.9682512"><ele>277.8</ele><time>2026-04-19T14:28:47.119Z</time></trkpt><trkpt lat="43.3494486" lon="11.9683974"><ele>277.6</ele><time>2026-04-19T14:28:49.118Z</time></trkpt><trkpt lat="43.3494645" lon="11.9685406"><ele>277.4</ele><time>2026-04-19T14:28:51.118Z</time></trkpt><trkpt lat="43.3494858" lon="11.9686832"><ele>277.2</ele><time>2026-04-19T14:28:53.118Z</time></trkpt><trkpt lat="43.3495087" lon="11.9688237"><ele>277.0</ele><time>2026-04-19T14:28:55.119Z</time></trkpt><trkpt lat="43.3495286" lon="11.9689663"><ele>277.0</ele><time>2026-04-19T14:28:57.119Z</time></trkpt><trkpt lat="43.3495493" lon="11.9691108"><ele>277.0</ele><time>2026-04-19T14:28:59.119Z</time></trkpt><trkpt lat="43.3495699" lon="11.9692571"><ele>277.0</ele><time>2026-04-19T14:29:01.119Z</time></trkpt><trkpt lat="43.3495916" lon="11.9694035"><ele>277.0</ele><time>2026-04-19T14:29:03.119Z</time></trkpt><trkpt lat="43.3496091" lon="11.9695455"><ele>277.0</ele><time>2026-04-19T14:29:05.118Z</time></trkpt><trkpt lat="43.3496356" lon="11.9696942"><ele>277.0</ele><time>2026-04-19T14:29:07.118Z</time></trkpt><trkpt lat="43.3496492" lon="11.9698361"><ele>277.0</ele><time>2026-04-19T14:29:09.119Z</time></trkpt><trkpt lat="43.3496653" lon="11.9699787"><ele>277.0</ele><time>2026-04-19T14:29:11.119Z</time></trkpt><trkpt lat="43.349682" lon="11.9701288"><ele>277.0</ele><time>2026-04-19T14:29:13.119Z</time></trkpt><trkpt lat="43.3496897" lon="11.9702766"><ele>277.0</ele><time>2026-04-19T14:29:15.119Z</time></trkpt><trkpt lat="43.3496857" lon="11.97043"><ele>277.0</ele><time>2026-04-19T14:29:17.118Z</time></trkpt><trkpt lat="43.3496874" lon="11.9705842"><ele>277.0</ele><time>2026-04-19T14:29:19.119Z</time></trkpt><trkpt lat="43.3496942" lon="11.9707362"><ele>277.0</ele><time>2026-04-19T14:29:21.119Z</time></trkpt><trkpt lat="43.3496953" lon="11.9708829"><ele>277.0</ele><time>2026-04-19T14:29:23.119Z</time></trkpt><trkpt lat="43.3496968" lon="11.9710298"><ele>277.0</ele><time>2026-04-19T14:29:25.118Z</time></trkpt><trkpt lat="43.3497048" lon="11.9711758"><ele>277.6</ele><time>2026-04-19T14:29:27.118Z</time></trkpt><trkpt lat="43.3497088" lon="11.9713198"><ele>278.2</ele><time>2026-04-19T14:29:29.118Z</time></trkpt><trkpt lat="43.349715" lon="11.9714654"><ele>278.8</ele><time>2026-04-19T14:29:31.119Z</time></trkpt><trkpt lat="43.349718" lon="11.9716093"><ele>279.4</ele><time>2026-04-19T14:29:33.118Z</time></trkpt><trkpt lat="43.3497218" lon="11.9717538"><ele>280.0</ele><time>2026-04-19T14:29:35.119Z</time></trkpt><trkpt lat="43.3497282" lon="11.9719034"><ele>280.2</ele><time>2026-04-19T14:29:37.119Z</time></trkpt><trkpt lat="43.349731" lon="11.9720491"><ele>280.4</ele><time>2026-04-19T14:29:39.119Z</time></trkpt><trkpt lat="43.3497352" lon="11.972202"><ele>280.6</ele><time>2026-04-19T14:29:41.118Z</time></trkpt><trkpt lat="43.3497416" lon="11.9723497"><ele>280.8</ele><time>2026-04-19T14:29:43.119Z</time></trkpt><trkpt lat="43.349744" lon="11.9725025"><ele>281.0</ele><time>2026-04-19T14:29:45.119Z</time></trkpt><trkpt lat="43.3497442" lon="11.9726563"><ele>281.0</ele><time>2026-04-19T14:29:47.119Z</time></trkpt><trkpt lat="43.3497496" lon="11.97281"><ele>281.0</ele><time>2026-04-19T14:29:49.119Z</time></trkpt><trkpt lat="43.3497536" lon="11.9729576"><ele>281.0</ele><time>2026-04-19T14:29:51.119Z</time></trkpt><trkpt lat="43.3497556" lon="11.9731135"><ele>281.0</ele><time>2026-04-19T14:29:53.118Z</time></trkpt><trkpt lat="43.3497567" lon="11.9732726"><ele>281.0</ele><time>2026-04-19T14:29:55.118Z</time></trkpt><trkpt lat="43.3497536" lon="11.9734338"><ele>281.25</ele><time>2026-04-19T14:29:57.118Z</time></trkpt><trkpt lat="43.3497426" lon="11.9735954"><ele>281.5</ele><time>2026-04-19T14:29:59.119Z</time></trkpt><trkpt lat="43.3497407" lon="11.9737491"><ele>281.75</ele><time>2026-04-19T14:30:01.119Z</time></trkpt><trkpt lat="43.3497383" lon="11.9739013"><ele>282.0</ele><time>2026-04-19T14:30:03.118Z</time></trkpt><trkpt lat="43.3497401" lon="11.9740604"><ele>282.6</ele><time>2026-04-19T14:30:05.119Z</time></trkpt><trkpt lat="43.349734" lon="11.9742128"><ele>283.2</ele><time>2026-04-19T14:30:07.118Z</time></trkpt><trkpt lat="43.3497349" lon="11.9743666"><ele>283.8</ele><time>2026-04-19T14:30:09.118Z</time></trkpt><trkpt lat="43.3497331" lon="11.9745222"><ele>284.4</ele><time>2026-04-19T14:30:11.118Z</time></trkpt><trkpt lat="43.3497352" lon="11.9746726"><ele>285.0</ele><time>2026-04-19T14:30:13.119Z</time></trkpt><trkpt lat="43.34974" lon="11.9748195"><ele>285.0</ele><time>2026-04-19T14:30:15.119Z</time></trkpt><trkpt lat="43.3497519" lon="11.9749714"><ele>285.0</ele><time>2026-04-19T14:30:17.119Z</time></trkpt><trkpt lat="43.3497601" lon="11.9751201"><ele>285.0</ele><time>2026-04-19T14:30:19.118Z</time></trkpt><trkpt lat="43.3497656" lon="11.9752684"><ele>285.0</ele><time>2026-04-19T14:30:21.119Z</time></trkpt><trkpt lat="43.3497603" lon="11.9754138"><ele>285.0</ele><time>2026-04-19T14:30:23.119Z</time></trkpt><trkpt lat="43.3497652" lon="11.9755456"><ele>285.0</ele><time>2026-04-19T14:30:25.119Z</time></trkpt><trkpt lat="43.3497788" lon="11.9756894"><ele>285.0</ele><time>2026-04-19T14:30:27.119Z</time></trkpt><trkpt lat="43.3498011" lon="11.9758468"><ele>285.0</ele><time>2026-04-19T14:30:29.119Z</time></trkpt><trkpt lat="43.349823" lon="11.9759304"><ele>285.0</ele><time>2026-04-19T14:30:30.118Z</time></trkpt><trkpt lat="43.3498587" lon="11.9760721"><ele>285.0</ele><time>2026-04-19T14:30:32.118Z</time></trkpt><trkpt lat="43.3498981" lon="11.976194"><ele>284.6</ele><time>2026-04-19T14:30:34.119Z</time></trkpt><trkpt lat="43.3499417" lon="11.9763175"><ele>284.2</ele><time>2026-04-19T14:30:36.119Z</time></trkpt><trkpt lat="43.3499582" lon="11.9764475"><ele>283.8</ele><time>2026-04-19T14:30:38.118Z</time></trkpt><trkpt lat="43.3499841" lon="11.9766007"><ele>283.4</ele><time>2026-04-19T14:30:40.119Z</time></trkpt><trkpt lat="43.3500169" lon="11.9767595"><ele>283.0</ele><time>2026-04-19T14:30:42.119Z</time></trkpt><trkpt lat="43.3500494" lon="11.9769226"><ele>282.75</ele><time>2026-04-19T14:30:44.118Z</time></trkpt><trkpt lat="43.3500832" lon="11.9770842"><ele>282.5</ele><time>2026-04-19T14:30:46.119Z</time></trkpt><trkpt lat="43.3501106" lon="11.977232"><ele>282.25</ele><time>2026-04-19T14:30:48.119Z</time></trkpt><trkpt lat="43.3501447" lon="11.9773769"><ele>282.0</ele><time>2026-04-19T14:30:50.119Z</time></trkpt><trkpt lat="43.3501793" lon="11.9775144"><ele>282.2</ele><time>2026-04-19T14:30:52.119Z</time></trkpt><trkpt lat="43.3502143" lon="11.9776515"><ele>282.4</ele><time>2026-04-19T14:30:54.118Z</time></trkpt><trkpt lat="43.3502319" lon="11.9777842"><ele>282.6</ele><time>2026-04-19T14:30:56.119Z</time></trkpt><trkpt lat="43.35026" lon="11.97791"><ele>282.8</ele><time>2026-04-19T14:30:58.118Z</time></trkpt><trkpt lat="43.3502849" lon="11.9780445"><ele>283.0</ele><time>2026-04-19T14:31:00.119Z</time></trkpt><trkpt lat="43.3503017" lon="11.9781777"><ele>283.0</ele><time>2026-04-19T14:31:02.119Z</time></trkpt><trkpt lat="43.3503126" lon="11.9783147"><ele>283.0</ele><time>2026-04-19T14:31:04.118Z</time></trkpt><trkpt lat="43.350323" lon="11.9784508"><ele>283.0</ele><time>2026-04-19T14:31:06.118Z</time></trkpt><trkpt lat="43.3503311" lon="11.9785809"><ele>283.0</ele><time>2026-04-19T14:31:08.118Z</time></trkpt><trkpt lat="43.3503402" lon="11.9787184"><ele>283.0</ele><time>2026-04-19T14:31:10.119Z</time></trkpt><trkpt lat="43.3503521" lon="11.9788496"><ele>283.4</ele><time>2026-04-19T14:31:12.118Z</time></trkpt><trkpt lat="43.350367" lon="11.9789762"><ele>283.8</ele><time>2026-04-19T14:31:14.119Z</time></trkpt><trkpt lat="43.3503818" lon="11.9791099"><ele>284.2</ele><time>2026-04-19T14:31:16.119Z</time></trkpt><trkpt lat="43.3503883" lon="11.9792398"><ele>284.6</ele><time>2026-04-19T14:31:18.119Z</time></trkpt><trkpt lat="43.3503991" lon="11.9793684"><ele>285.0</ele><time>2026-04-19T14:31:20.119Z</time></trkpt><trkpt lat="43.3504162" lon="11.9795111"><ele>285.0</ele><time>2026-04-19T14:31:22.119Z</time></trkpt><trkpt lat="43.3504265" lon="11.9796523"><ele>285.0</ele><time>2026-04-19T14:31:24.118Z</time></trkpt><trkpt lat="43.3504406" lon="11.9797909"><ele>285.0</ele><time>2026-04-19T14:31:26.119Z</time></trkpt><trkpt lat="43.3504546" lon="11.9799268"><ele>285.0</ele><time>2026-04-19T14:31:28.118Z</time></trkpt><trkpt lat="43.3504715" lon="11.9800688"><ele>285.0</ele><time>2026-04-19T14:31:30.119Z</time></trkpt><trkpt lat="43.3504908" lon="11.9802106"><ele>285.0</ele><time>2026-04-19T14:31:32.119Z</time></trkpt><trkpt lat="43.3505127" lon="11.9803446"><ele>285.0</ele><time>2026-04-19T14:31:34.119Z</time></trkpt><trkpt lat="43.3505375" lon="11.980482"><ele>285.0</ele><time>2026-04-19T14:31:36.118Z</time></trkpt><trkpt lat="43.3505599" lon="11.9806294"><ele>285.0</ele><time>2026-04-19T14:31:38.119Z</time></trkpt><trkpt lat="43.3506031" lon="11.9807671"><ele>285.0</ele><time>2026-04-19T14:31:40.119Z</time></trkpt><trkpt lat="43.3506378" lon="11.9808871"><ele>285.4</ele><time>2026-04-19T14:31:42.119Z</time></trkpt><trkpt lat="43.3506714" lon="11.9810085"><ele>285.8</ele><time>2026-04-19T14:31:44.119Z</time></trkpt><trkpt lat="43.3507057" lon="11.9811408"><ele>286.2</ele><time>2026-04-19T14:31:46.119Z</time></trkpt><trkpt lat="43.3507352" lon="11.9812675"><ele>286.6</ele><time>2026-04-19T14:31:48.119Z</time></trkpt><trkpt lat="43.3507768" lon="11.981391"><ele>287.0</ele><time>2026-04-19T14:31:50.118Z</time></trkpt><trkpt lat="43.3508161" lon="11.9815108"><ele>287.0</ele><time>2026-04-19T14:31:52.119Z</time></trkpt><trkpt lat="43.3508534" lon="11.9816413"><ele>287.0</ele><time>2026-04-19T14:31:54.119Z</time></trkpt><trkpt lat="43.3508911" lon="11.9817697"><ele>287.0</ele><time>2026-04-19T14:31:56.119Z</time></trkpt><trkpt lat="43.3509363" lon="11.9818999"><ele>287.0</ele><time>2026-04-19T14:31:58.119Z</time></trkpt><trkpt lat="43.3509815" lon="11.982031"><ele>287.0</ele><time>2026-04-19T14:32:00.119Z</time></trkpt><trkpt lat="43.351024" lon="11.9821626"><ele>287.2</ele><time>2026-04-19T14:32:02.119Z</time></trkpt><trkpt lat="43.351074" lon="11.9822917"><ele>287.4</ele><time>2026-04-19T14:32:04.119Z</time></trkpt><trkpt lat="43.3511225" lon="11.982424"><ele>287.6</ele><time>2026-04-19T14:32:06.119Z</time></trkpt><trkpt lat="43.3511747" lon="11.982557"><ele>287.8</ele><time>2026-04-19T14:32:08.118Z</time></trkpt><trkpt lat="43.351222" lon="11.9826931"><ele>288.0</ele><time>2026-04-19T14:32:10.119Z</time></trkpt><trkpt lat="43.3512732" lon="11.9828206"><ele>288.2</ele><time>2026-04-19T14:32:12.119Z</time></trkpt><trkpt lat="43.3513203" lon="11.9829515"><ele>288.4</ele><time>2026-04-19T14:32:14.12Z</time></trkpt><trkpt lat="43.3513747" lon="11.9830845"><ele>288.59999999999997</ele><time>2026-04-19T14:32:16.12Z</time></trkpt><trkpt lat="43.3514257" lon="11.9832199"><ele>288.8</ele><time>2026-04-19T14:32:18.12Z</time></trkpt><trkpt lat="43.3514721" lon="11.983346"><ele>289.0</ele><time>2026-04-19T14:32:20.12Z</time></trkpt><trkpt lat="43.3515213" lon="11.9834766"><ele>289.2</ele><time>2026-04-19T14:32:22.119Z</time></trkpt><trkpt lat="43.35157" lon="11.9836055"><ele>289.4</ele><time>2026-04-19T14:32:24.119Z</time></trkpt><trkpt lat="43.3516161" lon="11.9837378"><ele>289.6</ele><time>2026-04-19T14:32:26.119Z</time></trkpt><trkpt lat="43.3516657" lon="11.9838748"><ele>289.8</ele><time>2026-04-19T14:32:28.119Z</time></trkpt><trkpt lat="43.351717" lon="11.9840132"><ele>290.0</ele><time>2026-04-19T14:32:30.12Z</time></trkpt><trkpt lat="43.3517704" lon="11.9841467"><ele>290.2</ele><time>2026-04-19T14:32:32.12Z</time></trkpt><trkpt lat="43.3518238" lon="11.9842716"><ele>290.4</ele><time>2026-04-19T14:32:34.119Z</time></trkpt><trkpt lat="43.3518738" lon="11.9843943"><ele>290.6</ele><time>2026-04-19T14:32:36.119Z</time></trkpt><trkpt lat="43.3519209" lon="11.984511"><ele>290.8</ele><time>2026-04-19T14:32:38.119Z</time></trkpt><trkpt lat="43.3519721" lon="11.9846252"><ele>291.0</ele><time>2026-04-19T14:32:40.12Z</time></trkpt><trkpt lat="43.3520225" lon="11.9847504"><ele>291.0</ele><time>2026-04-19T14:32:42.12Z</time></trkpt><trkpt lat="43.3520794" lon="11.9848602"><ele>291.0</ele><time>2026-04-19T14:32:44.12Z</time></trkpt><trkpt lat="43.3521271" lon="11.984975"><ele>291.0</ele><time>2026-04-19T14:32:46.119Z</time></trkpt><trkpt lat="43.3521718" lon="11.985088"><ele>291.0</ele><time>2026-04-19T14:32:48.12Z</time></trkpt><trkpt lat="43.3522214" lon="11.9852058"><ele>291.0</ele><time>2026-04-19T14:32:50.12Z</time></trkpt><trkpt lat="43.3522678" lon="11.9853268"><ele>291.2</ele><time>2026-04-19T14:32:52.119Z</time></trkpt><trkpt lat="43.3523159" lon="11.9854518"><ele>291.40000000000003</ele><time>2026-04-19T14:32:54.119Z</time></trkpt><trkpt lat="43.3523722" lon="11.9855578"><ele>291.6</ele><time>2026-04-19T14:32:56.12Z</time></trkpt><trkpt lat="43.3524255" lon="11.9856593"><ele>291.8</ele><time>2026-04-19T14:32:58.119Z</time></trkpt><trkpt lat="43.3524756" lon="11.9857671"><ele>292.0</ele><time>2026-04-19T14:33:00.12Z</time></trkpt><trkpt lat="43.3525213" lon="11.9858759"><ele>292.0</ele><time>2026-04-19T14:33:02.12Z</time></trkpt><trkpt lat="43.3525681" lon="11.9859698"><ele>292.0</ele><time>2026-04-19T14:33:04.12Z</time></trkpt><trkpt lat="43.3526085" lon="11.9860628"><ele>292.0</ele><time>2026-04-19T14:33:07.119Z</time></trkpt><trkpt lat="43.3526459" lon="11.9861442"><ele>292.0</ele><time>2026-04-19T14:33:11.119Z</time></trkpt><trkpt lat="43.3526855" lon="11.9862156"><ele>292.0</ele><time>2026-04-19T14:33:13.12Z</time></trkpt><trkpt lat="43.3527301" lon="11.9863079"><ele>292.0</ele><time>2026-04-19T14:33:15.12Z</time></trkpt><trkpt lat="43.3527797" lon="11.9864103"><ele>292.0</ele><time>2026-04-19T14:33:17.12Z</time></trkpt><trkpt lat="43.352827" lon="11.9865156"><ele>292.0</ele><time>2026-04-19T14:33:19.12Z</time></trkpt><trkpt lat="43.3528873" lon="11.986622"><ele>292.0</ele><time>2026-04-19T14:33:21.119Z</time></trkpt><trkpt lat="43.3529289" lon="11.9867268"><ele>292.0</ele><time>2026-04-19T14:33:23.12Z</time></trkpt><trkpt lat="43.3529683" lon="11.9868163"><ele>292.0</ele><time>2026-04-19T14:33:25.119Z</time></trkpt><trkpt lat="43.353021" lon="11.9869167"><ele>292.0</ele><time>2026-04-19T14:33:28.12Z</time></trkpt><trkpt lat="43.3530621" lon="11.9869994"><ele>292.3333333333333</ele><time>2026-04-19T14:33:30.12Z</time></trkpt><trkpt lat="43.3531018" lon="11.9870989"><ele>292.66666666666663</ele><time>2026-04-19T14:33:32.119Z</time></trkpt><trkpt lat="43.3531437" lon="11.9872059"><ele>293.0</ele><time>2026-04-19T14:33:34.12Z</time></trkpt><trkpt lat="43.3531942" lon="11.9873088"><ele>293.3333333333333</ele><time>2026-04-19T14:33:36.12Z</time></trkpt><trkpt lat="43.3532421" lon="11.9874129"><ele>293.6666666666667</ele><time>2026-04-19T14:33:38.119Z</time></trkpt><trkpt lat="43.35329" lon="11.987526"><ele>294.0</ele><time>2026-04-19T14:33:40.12Z</time></trkpt><trkpt lat="43.3533376" lon="11.9876442"><ele>294.0</ele><time>2026-04-19T14:33:42.119Z</time></trkpt><trkpt lat="43.3533889" lon="11.9877587"><ele>294.0</ele><time>2026-04-19T14:33:44.119Z</time></trkpt><trkpt lat="43.3534439" lon="11.987876"><ele>294.0</ele><time>2026-04-19T14:33:46.12Z</time></trkpt><trkpt lat="43.3534933" lon="11.9879967"><ele>294.0</ele><time>2026-04-19T14:33:48.12Z</time></trkpt><trkpt lat="43.3535447" lon="11.9881117"><ele>294.0</ele><time>2026-04-19T14:33:50.12Z</time></trkpt><trkpt lat="43.3535898" lon="11.9882407"><ele>293.8</ele><time>2026-04-19T14:33:52.12Z</time></trkpt><trkpt lat="43.3536352" lon="11.9883655"><ele>293.59999999999997</ele><time>2026-04-19T14:33:54.12Z</time></trkpt><trkpt lat="43.3536797" lon="11.9884828"><ele>293.4</ele><time>2026-04-19T14:33:56.119Z</time></trkpt><trkpt lat="43.3537295" lon="11.9886039"><ele>293.2</ele><time>2026-04-19T14:33:58.12Z</time></trkpt><trkpt lat="43.3537775" lon="11.9887246"><ele>293.0</ele><time>2026-04-19T14:34:00.12Z</time></trkpt><trkpt lat="43.353821" lon="11.9888426"><ele>293.0</ele><time>2026-04-19T14:34:02.12Z</time></trkpt><trkpt lat="43.3538708" lon="11.9889609"><ele>293.0</ele><time>2026-04-19T14:34:04.12Z</time></trkpt><trkpt lat="43.3539158" lon="11.9890788"><ele>293.0</ele><time>2026-04-19T14:34:06.12Z</time></trkpt><trkpt lat="43.3539618" lon="11.9891964"><ele>293.0</ele><time>2026-04-19T14:34:08.119Z</time></trkpt><trkpt lat="43.3540036" lon="11.9893017"><ele>293.0</ele><time>2026-04-19T14:34:10.119Z</time></trkpt><trkpt lat="43.3540572" lon="11.9894191"><ele>293.6</ele><time>2026-04-19T14:34:12.119Z</time></trkpt><trkpt lat="43.354111" lon="11.9895353"><ele>294.20000000000005</ele><time>2026-04-19T14:34:14.119Z</time></trkpt><trkpt lat="43.354158" lon="11.9896534"><ele>294.8</ele><time>2026-04-19T14:34:16.119Z</time></trkpt><trkpt lat="43.3542019" lon="11.9897641"><ele>295.40000000000003</ele><time>2026-04-19T14:34:18.119Z</time></trkpt><trkpt lat="43.3542416" lon="11.9898739"><ele>296.0</ele><time>2026-04-19T14:34:20.12Z</time></trkpt><trkpt lat="43.3542797" lon="11.9899834"><ele>296.6</ele><time>2026-04-19T14:34:22.12Z</time></trkpt><trkpt lat="43.3543253" lon="11.990094"><ele>297.20000000000005</ele><time>2026-04-19T14:34:24.12Z</time></trkpt><trkpt lat="43.3543786" lon="11.9902059"><ele>297.79999999999995</ele><time>2026-04-19T14:34:26.12Z</time></trkpt><trkpt lat="43.3544252" lon="11.9903194"><ele>298.4</ele><time>2026-04-19T14:34:28.12Z</time></trkpt><trkpt lat="43.3544642" lon="11.9904258"><ele>299.0</ele><time>2026-04-19T14:34:30.12Z</time></trkpt><trkpt lat="43.3545136" lon="11.9905297"><ele>299.0</ele><time>2026-04-19T14:34:32.12Z</time></trkpt><trkpt lat="43.3545573" lon="11.990641"><ele>299.0</ele><time>2026-04-19T14:34:34.12Z</time></trkpt><trkpt lat="43.3546014" lon="11.9907452"><ele>299.0</ele><time>2026-04-19T14:34:36.12Z</time></trkpt><trkpt lat="43.3546471" lon="11.9908544"><ele>299.0</ele><time>2026-04-19T14:34:38.12Z</time></trkpt><trkpt lat="43.3546895" lon="11.9909677"><ele>299.0</ele><time>2026-04-19T14:34:40.119Z</time></trkpt><trkpt lat="43.3547327" lon="11.991079"><ele>299.0</ele><time>2026-04-19T14:34:42.12Z</time></trkpt><trkpt lat="43.3547768" lon="11.9911882"><ele>299.0</ele><time>2026-04-19T14:34:44.12Z</time></trkpt><trkpt lat="43.35483" lon="11.9913005"><ele>299.0</ele><time>2026-04-19T14:34:46.119Z</time></trkpt><trkpt lat="43.354874" lon="11.9914174"><ele>299.0</ele><time>2026-04-19T14:34:48.12Z</time></trkpt><trkpt lat="43.354919" lon="11.9915316"><ele>299.0</ele><time>2026-04-19T14:34:50.12Z</time></trkpt><trkpt lat="43.3549623" lon="11.9916397"><ele>299.5</ele><time>2026-04-19T14:34:52.119Z</time></trkpt><trkpt lat="43.3550083" lon="11.9917502"><ele>300.0</ele><time>2026-04-19T14:34:54.12Z</time></trkpt><trkpt lat="43.3550489" lon="11.9918537"><ele>300.5</ele><time>2026-04-19T14:34:56.119Z</time></trkpt><trkpt lat="43.355094" lon="11.9919564"><ele>301.0</ele><time>2026-04-19T14:34:58.12Z</time></trkpt><trkpt lat="43.3551353" lon="11.9920537"><ele>301.5</ele><time>2026-04-19T14:35:00.12Z</time></trkpt><trkpt lat="43.3551811" lon="11.9921517"><ele>302.0</ele><time>2026-04-19T14:35:02.12Z</time></trkpt><trkpt lat="43.3552274" lon="11.9922532"><ele>302.0</ele><time>2026-04-19T14:35:04.12Z</time></trkpt><trkpt lat="43.3552681" lon="11.9923616"><ele>302.0</ele><time>2026-04-19T14:35:06.119Z</time></trkpt><trkpt lat="43.3552656" lon="11.9924917"><ele>302.0</ele><time>2026-04-19T14:35:08.119Z</time></trkpt><trkpt lat="43.3552217" lon="11.992626"><ele>302.0</ele><time>2026-04-19T14:35:10.119Z</time></trkpt><trkpt lat="43.3551812" lon="11.9927644"><ele>302.0</ele><time>2026-04-19T14:35:12.119Z</time></trkpt><trkpt lat="43.355164" lon="11.9929131"><ele>302.4</ele><time>2026-04-19T14:35:14.119Z</time></trkpt><trkpt lat="43.3551483" lon="11.9930628"><ele>302.79999999999995</ele><time>2026-04-19T14:35:16.12Z</time></trkpt><trkpt lat="43.3551264" lon="11.9932184"><ele>303.2</ele><time>2026-04-19T14:35:18.119Z</time></trkpt><trkpt lat="43.3551047" lon="11.9933796"><ele>303.59999999999997</ele><time>2026-04-19T14:35:20.12Z</time></trkpt><trkpt lat="43.3550353" lon="11.9934845"><ele>304.0</ele><time>2026-04-19T14:35:22.12Z</time></trkpt><trkpt lat="43.3549171" lon="11.9934747"><ele>304.0</ele><time>2026-04-19T14:35:24.119Z</time></trkpt><trkpt lat="43.3548062" lon="11.9934247"><ele>304.0</ele><time>2026-04-19T14:35:26.119Z</time></trkpt><trkpt lat="43.3546839" lon="11.9934159"><ele>304.0</ele><time>2026-04-19T14:35:28.12Z</time></trkpt><trkpt lat="43.3545592" lon="11.9934023"><ele>304.0</ele><time>2026-04-19T14:35:30.119Z</time></trkpt><trkpt lat="43.3544959" lon="11.9933802"><ele>304.0</ele><time>2026-04-19T14:35:31.12Z</time></trkpt><trkpt lat="43.3544353" lon="11.9933492"><ele>303.7142857142857</ele><time>2026-04-19T14:35:32.119Z</time></trkpt><trkpt lat="43.3543734" lon="11.9933215"><ele>303.42857142857144</ele><time>2026-04-19T14:35:33.12Z</time></trkpt><trkpt lat="43.3542563" lon="11.9932601"><ele>303.14285714285717</ele><time>2026-04-19T14:35:35.119Z</time></trkpt><trkpt lat="43.3542009" lon="11.9932171"><ele>302.8571428571429</ele><time>2026-04-19T14:35:36.12Z</time></trkpt><trkpt lat="43.3541446" lon="11.993175"><ele>302.57142857142856</ele><time>2026-04-19T14:35:37.12Z</time></trkpt><trkpt lat="43.3540897" lon="11.9931296"><ele>302.28571428571433</ele><time>2026-04-19T14:35:38.12Z</time></trkpt><trkpt lat="43.3540332" lon="11.9930814"><ele>302.0</ele><time>2026-04-19T14:35:39.12Z</time></trkpt><trkpt lat="43.3539369" lon="11.9929857"><ele>302.2</ele><time>2026-04-19T14:35:41.119Z</time></trkpt><trkpt lat="43.3538378" lon="11.9928921"><ele>302.4</ele><time>2026-04-19T14:35:43.12Z</time></trkpt><trkpt lat="43.3537462" lon="11.9927935"><ele>302.6</ele><time>2026-04-19T14:35:45.12Z</time></trkpt><trkpt lat="43.3536679" lon="11.9926857"><ele>302.8</ele><time>2026-04-19T14:35:47.12Z</time></trkpt><trkpt lat="43.3536129" lon="11.9925976"><ele>303.0</ele><time>2026-04-19T14:35:49.119Z</time></trkpt><trkpt lat="43.3535571" lon="11.9924929"><ele>303.0</ele><time>2026-04-19T14:35:51.12Z</time></trkpt><trkpt lat="43.3535323" lon="11.9923339"><ele>303.0</ele><time>2026-04-19T14:35:53.12Z</time></trkpt><trkpt lat="43.3535262" lon="11.992227"><ele>303.0</ele><time>2026-04-19T14:35:54.12Z</time></trkpt><trkpt lat="43.3535106" lon="11.9921179"><ele>303.0</ele><time>2026-04-19T14:35:55.12Z</time></trkpt><trkpt lat="43.353484" lon="11.9920156"><ele>303.0</ele><time>2026-04-19T14:35:56.119Z</time></trkpt><trkpt lat="43.3534428" lon="11.9919104"><ele>303.0</ele><time>2026-04-19T14:35:57.12Z</time></trkpt><trkpt lat="43.3533974" lon="11.9918182"><ele>303.0</ele><time>2026-04-19T14:35:58.12Z</time></trkpt><trkpt lat="43.3533423" lon="11.9917264"><ele>303.0</ele><time>2026-04-19T14:35:59.12Z</time></trkpt><trkpt lat="43.3532839" lon="11.9916382"><ele>303.0</ele><time>2026-04-19T14:36:00.12Z</time></trkpt><trkpt lat="43.353221" lon="11.9915615"><ele>303.0</ele><time>2026-04-19T14:36:01.12Z</time></trkpt><trkpt lat="43.3531604" lon="11.9914873"><ele>303.0</ele><time>2026-04-19T14:36:02.12Z</time></trkpt><trkpt lat="43.3531039" lon="11.9914056"><ele>303.0</ele><time>2026-04-19T14:36:03.12Z</time></trkpt><trkpt lat="43.3530449" lon="11.9913311"><ele>303.0</ele><time>2026-04-19T14:36:04.119Z</time></trkpt><trkpt lat="43.3529834" lon="11.9912633"><ele>303.0</ele><time>2026-04-19T14:36:05.12Z</time></trkpt><trkpt lat="43.3529226" lon="11.9911944"><ele>303.0</ele><time>2026-04-19T14:36:06.12Z</time></trkpt><trkpt lat="43.3528642" lon="11.9911227"><ele>303.0</ele><time>2026-04-19T14:36:07.12Z</time></trkpt><trkpt lat="43.3528091" lon="11.9910495"><ele>303.0</ele><time>2026-04-19T14:36:08.12Z</time></trkpt><trkpt lat="43.3527579" lon="11.9909808"><ele>303.0</ele><time>2026-04-19T14:36:09.12Z</time></trkpt><trkpt lat="43.3527033" lon="11.990908"><ele>303.0</ele><time>2026-04-19T14:36:10.12Z</time></trkpt><trkpt lat="43.3526484" lon="11.9908415"><ele>303.0</ele><time>2026-04-19T14:36:11.119Z</time></trkpt><trkpt lat="43.3525962" lon="11.9907765"><ele>303.0</ele><time>2026-04-19T14:36:12.12Z</time></trkpt><trkpt lat="43.3525415" lon="11.9907104"><ele>303.0</ele><time>2026-04-19T14:36:13.12Z</time></trkpt><trkpt lat="43.3524876" lon="11.9906473"><ele>303.0</ele><time>2026-04-19T14:36:14.119Z</time></trkpt><trkpt lat="43.3524338" lon="11.9905845"><ele>303.0</ele><time>2026-04-19T14:36:15.12Z</time></trkpt><trkpt lat="43.3523798" lon="11.9905212"><ele>303.0</ele><time>2026-04-19T14:36:16.12Z</time></trkpt><trkpt lat="43.3523285" lon="11.9904568"><ele>303.14285714285717</ele><time>2026-04-19T14:36:17.12Z</time></trkpt><trkpt lat="43.3522757" lon="11.9903927"><ele>303.2857142857143</ele><time>2026-04-19T14:36:18.119Z</time></trkpt><trkpt lat="43.3522197" lon="11.9903316"><ele>303.42857142857144</ele><time>2026-04-19T14:36:19.12Z</time></trkpt><trkpt lat="43.352167" lon="11.9902739"><ele>303.57142857142856</ele><time>2026-04-19T14:36:20.119Z</time></trkpt><trkpt lat="43.3521159" lon="11.9902138"><ele>303.7142857142857</ele><time>2026-04-19T14:36:21.12Z</time></trkpt><trkpt lat="43.3520612" lon="11.9901614"><ele>303.85714285714283</ele><time>2026-04-19T14:36:22.119Z</time></trkpt><trkpt lat="43.3520035" lon="11.9901081"><ele>304.0</ele><time>2026-04-19T14:36:23.119Z</time></trkpt><trkpt lat="43.3519456" lon="11.9900607"><ele>304.0</ele><time>2026-04-19T14:36:24.119Z</time></trkpt><trkpt lat="43.3518864" lon="11.9900131"><ele>304.0</ele><time>2026-04-19T14:36:25.119Z</time></trkpt><trkpt lat="43.3518295" lon="11.9899605"><ele>304.0</ele><time>2026-04-19T14:36:26.12Z</time></trkpt><trkpt lat="43.3517687" lon="11.9899119"><ele>304.0</ele><time>2026-04-19T14:36:27.12Z</time></trkpt><trkpt lat="43.351712" lon="11.9898625"><ele>304.0</ele><time>2026-04-19T14:36:28.12Z</time></trkpt><trkpt lat="43.3516523" lon="11.9898161"><ele>304.0</ele><time>2026-04-19T14:36:29.12Z</time></trkpt><trkpt lat="43.3515956" lon="11.9897653"><ele>304.0</ele><time>2026-04-19T14:36:30.12Z</time></trkpt><trkpt lat="43.3515381" lon="11.9897141"><ele>303.5</ele><time>2026-04-19T14:36:31.12Z</time></trkpt><trkpt lat="43.3514803" lon="11.9896616"><ele>303.0</ele><time>2026-04-19T14:36:32.12Z</time></trkpt><trkpt lat="43.3514238" lon="11.9896157"><ele>302.5</ele><time>2026-04-19T14:36:33.12Z</time></trkpt><trkpt lat="43.3513687" lon="11.9895701"><ele>302.0</ele><time>2026-04-19T14:36:34.12Z</time></trkpt><trkpt lat="43.35127" lon="11.9894746"><ele>301.5</ele><time>2026-04-19T14:36:36.12Z</time></trkpt><trkpt lat="43.35119" lon="11.9893513"><ele>301.0</ele><time>2026-04-19T14:36:38.119Z</time></trkpt><trkpt lat="43.3511485" lon="11.9892783"><ele>301.0</ele><time>2026-04-19T14:36:39.119Z</time></trkpt><trkpt lat="43.3511146" lon="11.9891951"><ele>301.0</ele><time>2026-04-19T14:36:40.119Z</time></trkpt><trkpt lat="43.3510842" lon="11.9891088"><ele>301.0</ele><time>2026-04-19T14:36:41.12Z</time></trkpt><trkpt lat="43.3510454" lon="11.9890267"><ele>301.0</ele><time>2026-04-19T14:36:42.12Z</time></trkpt><trkpt lat="43.3509881" lon="11.9889648"><ele>301.0</ele><time>2026-04-19T14:36:43.12Z</time></trkpt><trkpt lat="43.3509247" lon="11.9889214"><ele>301.0</ele><time>2026-04-19T14:36:44.12Z</time></trkpt><trkpt lat="43.35086" lon="11.9888822"><ele>301.0</ele><time>2026-04-19T14:36:45.12Z</time></trkpt><trkpt lat="43.350798" lon="11.9888506"><ele>300.66666666666663</ele><time>2026-04-19T14:36:46.119Z</time></trkpt><trkpt lat="43.3507361" lon="11.988826"><ele>300.3333333333333</ele><time>2026-04-19T14:36:47.12Z</time></trkpt><trkpt lat="43.350673" lon="11.9888036"><ele>300.0</ele><time>2026-04-19T14:36:48.12Z</time></trkpt><trkpt lat="43.3506118" lon="11.9887809"><ele>299.6666666666667</ele><time>2026-04-19T14:36:49.12Z</time></trkpt><trkpt lat="43.3505501" lon="11.9887597"><ele>299.33333333333337</ele><time>2026-04-19T14:36:50.119Z</time></trkpt><trkpt lat="43.3504396" lon="11.9887176"><ele>299.0</ele><time>2026-04-19T14:36:52.12Z</time></trkpt><trkpt lat="43.3503436" lon="11.9886561"><ele>299.0</ele><time>2026-04-19T14:36:54.12Z</time></trkpt><trkpt lat="43.3502671" lon="11.9885701"><ele>299.0</ele><time>2026-04-19T14:36:56.119Z</time></trkpt><trkpt lat="43.3501935" lon="11.988493"><ele>299.0</ele><time>2026-04-19T14:36:58.119Z</time></trkpt><trkpt lat="43.3501431" lon="11.9883936"><ele>299.0</ele><time>2026-04-19T14:37:00.12Z</time></trkpt><trkpt lat="43.350103" lon="11.9882737"><ele>299.0</ele><time>2026-04-19T14:37:02.119Z</time></trkpt><trkpt lat="43.3500711" lon="11.9881575"><ele>298.6666666666667</ele><time>2026-04-19T14:37:04.12Z</time></trkpt><trkpt lat="43.350029" lon="11.9880371"><ele>298.33333333333337</ele><time>2026-04-19T14:37:06.119Z</time></trkpt><trkpt lat="43.3499744" lon="11.9878979"><ele>298.0</ele><time>2026-04-19T14:37:08.12Z</time></trkpt><trkpt lat="43.3499458" lon="11.9878153"><ele>297.6666666666667</ele><time>2026-04-19T14:37:09.119Z</time></trkpt><trkpt lat="43.3499145" lon="11.9877221"><ele>297.3333333333333</ele><time>2026-04-19T14:37:10.119Z</time></trkpt><trkpt lat="43.3498861" lon="11.9876235"><ele>297.0</ele><time>2026-04-19T14:37:11.119Z</time></trkpt><trkpt lat="43.3498706" lon="11.9875227"><ele>296.8333333333333</ele><time>2026-04-19T14:37:12.12Z</time></trkpt><trkpt lat="43.3498601" lon="11.9874209"><ele>296.6666666666667</ele><time>2026-04-19T14:37:13.119Z</time></trkpt><trkpt lat="43.3498517" lon="11.987323"><ele>296.5</ele><time>2026-04-19T14:37:14.119Z</time></trkpt><trkpt lat="43.349842" lon="11.9872279"><ele>296.33333333333337</ele><time>2026-04-19T14:37:15.12Z</time></trkpt><trkpt lat="43.3498345" lon="11.9871342"><ele>296.1666666666667</ele><time>2026-04-19T14:37:16.12Z</time></trkpt><trkpt lat="43.3498268" lon="11.9870458"><ele>296.0</ele><time>2026-04-19T14:37:17.119Z</time></trkpt><trkpt lat="43.3498028" lon="11.9868776"><ele>296.0</ele><time>2026-04-19T14:37:19.12Z</time></trkpt><trkpt lat="43.3497828" lon="11.9867936"><ele>296.0</ele><time>2026-04-19T14:37:20.119Z</time></trkpt><trkpt lat="43.3497618" lon="11.9867032"><ele>296.0</ele><time>2026-04-19T14:37:21.12Z</time></trkpt><trkpt lat="43.3497351" lon="11.9866104"><ele>296.0</ele><time>2026-04-19T14:37:22.12Z</time></trkpt><trkpt lat="43.3497032" lon="11.986516"><ele>296.0</ele><time>2026-04-19T14:37:23.12Z</time></trkpt><trkpt lat="43.3496764" lon="11.9864216"><ele>296.0</ele><time>2026-04-19T14:37:24.12Z</time></trkpt><trkpt lat="43.3496536" lon="11.9863241"><ele>296.0</ele><time>2026-04-19T14:37:25.119Z</time></trkpt><trkpt lat="43.349634" lon="11.9862287"><ele>296.0</ele><time>2026-04-19T14:37:26.12Z</time></trkpt><trkpt lat="43.3496088" lon="11.9861304"><ele>296.0</ele><time>2026-04-19T14:37:27.119Z</time></trkpt><trkpt lat="43.3495834" lon="11.9860312"><ele>296.0</ele><time>2026-04-19T14:37:28.12Z</time></trkpt><trkpt lat="43.3495583" lon="11.9859332"><ele>296.0</ele><time>2026-04-19T14:37:29.12Z</time></trkpt><trkpt lat="43.3495347" lon="11.9858311"><ele>296.0</ele><time>2026-04-19T14:37:30.119Z</time></trkpt><trkpt lat="43.3495171" lon="11.9857316"><ele>296.0</ele><time>2026-04-19T14:37:31.119Z</time></trkpt><trkpt lat="43.3495003" lon="11.9856314"><ele>296.0</ele><time>2026-04-19T14:37:32.119Z</time></trkpt><trkpt lat="43.3494816" lon="11.9855289"><ele>296.0</ele><time>2026-04-19T14:37:33.12Z</time></trkpt><trkpt lat="43.3494618" lon="11.9854285"><ele>296.0</ele><time>2026-04-19T14:37:34.12Z</time></trkpt><trkpt lat="43.3494399" lon="11.9853346"><ele>296.0</ele><time>2026-04-19T14:37:35.12Z</time></trkpt><trkpt lat="43.3494152" lon="11.9852439"><ele>296.0</ele><time>2026-04-19T14:37:36.12Z</time></trkpt><trkpt lat="43.3493881" lon="11.9851492"><ele>296.0</ele><time>2026-04-19T14:37:37.12Z</time></trkpt><trkpt lat="43.3493621" lon="11.9850581"><ele>296.0</ele><time>2026-04-19T14:37:38.12Z</time></trkpt><trkpt lat="43.3493381" lon="11.9849668"><ele>295.14285714285717</ele><time>2026-04-19T14:37:39.119Z</time></trkpt><trkpt lat="43.3493193" lon="11.9848721"><ele>294.2857142857143</ele><time>2026-04-19T14:37:40.119Z</time></trkpt><trkpt lat="43.3493074" lon="11.9847799"><ele>293.42857142857144</ele><time>2026-04-19T14:37:41.12Z</time></trkpt><trkpt lat="43.3492986" lon="11.9846894"><ele>292.57142857142856</ele><time>2026-04-19T14:37:42.119Z</time></trkpt><trkpt lat="43.3492915" lon="11.9845985"><ele>291.7142857142857</ele><time>2026-04-19T14:37:43.119Z</time></trkpt><trkpt lat="43.3492866" lon="11.9845092"><ele>290.8571428571429</ele><time>2026-04-19T14:37:44.12Z</time></trkpt><trkpt lat="43.3492831" lon="11.98442"><ele>290.0</ele><time>2026-04-19T14:37:45.12Z</time></trkpt><trkpt lat="43.3492796" lon="11.984332"><ele>290.0</ele><time>2026-04-19T14:37:46.12Z</time></trkpt><trkpt lat="43.3492804" lon="11.984244"><ele>290.0</ele><time>2026-04-19T14:37:47.12Z</time></trkpt><trkpt lat="43.3492771" lon="11.9840874"><ele>290.0</ele><time>2026-04-19T14:37:49.119Z</time></trkpt><trkpt lat="43.3492692" lon="11.9839715"><ele>290.0</ele><time>2026-04-19T14:37:51.12Z</time></trkpt><trkpt lat="43.3492568" lon="11.9838711"><ele>290.0</ele><time>2026-04-19T14:37:53.12Z</time></trkpt><trkpt lat="43.3492358" lon="11.9837282"><ele>290.0</ele><time>2026-04-19T14:37:55.12Z</time></trkpt><trkpt lat="43.3492155" lon="11.9836376"><ele>290.0</ele><time>2026-04-19T14:37:56.119Z</time></trkpt><trkpt lat="43.3491955" lon="11.9835411"><ele>290.0</ele><time>2026-04-19T14:37:57.119Z</time></trkpt><trkpt lat="43.3491744" lon="11.9834328"><ele>290.0</ele><time>2026-04-19T14:37:58.12Z</time></trkpt><trkpt lat="43.3491533" lon="11.9833216"><ele>290.0</ele><time>2026-04-19T14:37:59.12Z</time></trkpt><trkpt lat="43.3491261" lon="11.9831993"><ele>290.0</ele><time>2026-04-19T14:38:00.119Z</time></trkpt><trkpt lat="43.3490967" lon="11.9830854"><ele>290.0</ele><time>2026-04-19T14:38:01.12Z</time></trkpt><trkpt lat="43.3490598" lon="11.982976"><ele>289.6666666666667</ele><time>2026-04-19T14:38:02.119Z</time></trkpt><trkpt lat="43.3490204" lon="11.9828657"><ele>289.33333333333337</ele><time>2026-04-19T14:38:03.12Z</time></trkpt><trkpt lat="43.3489774" lon="11.9827549"><ele>289.0</ele><time>2026-04-19T14:38:04.12Z</time></trkpt><trkpt lat="43.3489293" lon="11.9826518"><ele>288.6666666666667</ele><time>2026-04-19T14:38:05.119Z</time></trkpt><trkpt lat="43.3488831" lon="11.9825487"><ele>288.3333333333333</ele><time>2026-04-19T14:38:06.119Z</time></trkpt><trkpt lat="43.3488406" lon="11.9824404"><ele>288.0</ele><time>2026-04-19T14:38:07.12Z</time></trkpt><trkpt lat="43.3488032" lon="11.9823306"><ele>287.8333333333333</ele><time>2026-04-19T14:38:08.119Z</time></trkpt><trkpt lat="43.348773" lon="11.9822217"><ele>287.6666666666667</ele><time>2026-04-19T14:38:09.119Z</time></trkpt><trkpt lat="43.3487493" lon="11.982109"><ele>287.5</ele><time>2026-04-19T14:38:10.119Z</time></trkpt><trkpt lat="43.348728" lon="11.9819985"><ele>287.33333333333337</ele><time>2026-04-19T14:38:11.119Z</time></trkpt><trkpt lat="43.3487056" lon="11.9818986"><ele>287.1666666666667</ele><time>2026-04-19T14:38:12.12Z</time></trkpt><trkpt lat="43.3486727" lon="11.9817995"><ele>287.0</ele><time>2026-04-19T14:38:13.119Z</time></trkpt><trkpt lat="43.348633" lon="11.9817039"><ele>286.7142857142857</ele><time>2026-04-19T14:38:14.119Z</time></trkpt><trkpt lat="43.3485886" lon="11.9816171"><ele>286.42857142857144</ele><time>2026-04-19T14:38:15.12Z</time></trkpt><trkpt lat="43.3485393" lon="11.9815343"><ele>286.1428571428571</ele><time>2026-04-19T14:38:16.12Z</time></trkpt><trkpt lat="43.3484925" lon="11.9814545"><ele>285.8571428571429</ele><time>2026-04-19T14:38:17.119Z</time></trkpt><trkpt lat="43.3484477" lon="11.9813763"><ele>285.57142857142856</ele><time>2026-04-19T14:38:18.12Z</time></trkpt><trkpt lat="43.3484008" lon="11.9813004"><ele>285.2857142857143</ele><time>2026-04-19T14:38:19.119Z</time></trkpt><trkpt lat="43.3483578" lon="11.981223"><ele>285.0</ele><time>2026-04-19T14:38:20.119Z</time></trkpt><trkpt lat="43.3483178" lon="11.9811445"><ele>285.0</ele><time>2026-04-19T14:38:21.12Z</time></trkpt><trkpt lat="43.3482751" lon="11.9810622"><ele>285.0</ele><time>2026-04-19T14:38:22.12Z</time></trkpt><trkpt lat="43.3482359" lon="11.9809824"><ele>285.0</ele><time>2026-04-19T14:38:23.12Z</time></trkpt><trkpt lat="43.3481952" lon="11.9809015"><ele>285.0</ele><time>2026-04-19T14:38:24.12Z</time></trkpt><trkpt lat="43.3481549" lon="11.9808233"><ele>285.0</ele><time>2026-04-19T14:38:25.119Z</time></trkpt><trkpt lat="43.3481146" lon="11.9807442"><ele>285.0</ele><time>2026-04-19T14:38:26.119Z</time></trkpt><trkpt lat="43.3480744" lon="11.9806689"><ele>285.0</ele><time>2026-04-19T14:38:27.119Z</time></trkpt><trkpt lat="43.3480304" lon="11.9805973"><ele>285.0</ele><time>2026-04-19T14:38:28.12Z</time></trkpt><trkpt lat="43.3479882" lon="11.9805276"><ele>285.0</ele><time>2026-04-19T14:38:29.12Z</time></trkpt><trkpt lat="43.3479448" lon="11.9804601"><ele>285.0</ele><time>2026-04-19T14:38:30.12Z</time></trkpt><trkpt lat="43.3478971" lon="11.9803954"><ele>285.0</ele><time>2026-04-19T14:38:31.12Z</time></trkpt><trkpt lat="43.3478073" lon="11.9802691"><ele>285.0</ele><time>2026-04-19T14:38:33.119Z</time></trkpt><trkpt lat="43.3477594" lon="11.9802058"><ele>285.0</ele><time>2026-04-19T14:38:34.12Z</time></trkpt><trkpt lat="43.3477202" lon="11.9801359"><ele>285.0</ele><time>2026-04-19T14:38:35.12Z</time></trkpt><trkpt lat="43.3476765" lon="11.9800631"><ele>285.0</ele><time>2026-04-19T14:38:36.119Z</time></trkpt><trkpt lat="43.3476344" lon="11.9799915"><ele>285.0</ele><time>2026-04-19T14:38:37.12Z</time></trkpt><trkpt lat="43.3475932" lon="11.9799194"><ele>285.0</ele><time>2026-04-19T14:38:38.12Z</time></trkpt><trkpt lat="43.3475519" lon="11.9798489"><ele>285.0</ele><time>2026-04-19T14:38:39.119Z</time></trkpt><trkpt lat="43.3475146" lon="11.9797659"><ele>285.0</ele><time>2026-04-19T14:38:40.119Z</time></trkpt><trkpt lat="43.3474829" lon="11.9796868"><ele>285.0</ele><time>2026-04-19T14:38:41.12Z</time></trkpt><trkpt lat="43.3474502" lon="11.9796055"><ele>285.0</ele><time>2026-04-19T14:38:42.119Z</time></trkpt><trkpt lat="43.347418" lon="11.9795283"><ele>285.0</ele><time>2026-04-19T14:38:43.119Z</time></trkpt><trkpt lat="43.3473837" lon="11.9794526"><ele>285.0</ele><time>2026-04-19T14:38:44.119Z</time></trkpt><trkpt lat="43.3473194" lon="11.9793068"><ele>285.0</ele><time>2026-04-19T14:38:46.12Z</time></trkpt><trkpt lat="43.347256" lon="11.9791615"><ele>285.0</ele><time>2026-04-19T14:38:48.119Z</time></trkpt><trkpt lat="43.3472259" lon="11.979085"><ele>285.0</ele><time>2026-04-19T14:38:49.12Z</time></trkpt><trkpt lat="43.3471633" lon="11.9789413"><ele>285.4</ele><time>2026-04-19T14:38:51.119Z</time></trkpt><trkpt lat="43.3471052" lon="11.9787964"><ele>285.8</ele><time>2026-04-19T14:38:53.12Z</time></trkpt><trkpt lat="43.3470464" lon="11.9786818"><ele>286.2</ele><time>2026-04-19T14:38:55.119Z</time></trkpt><trkpt lat="43.3469949" lon="11.97858"><ele>286.6</ele><time>2026-04-19T14:38:57.12Z</time></trkpt><trkpt lat="43.3469488" lon="11.9784956"><ele>287.0</ele><time>2026-04-19T14:38:59.12Z</time></trkpt><trkpt lat="43.346903" lon="11.9784103"><ele>287.0</ele><time>2026-04-19T14:39:01.12Z</time></trkpt><trkpt lat="43.3468499" lon="11.97829"><ele>287.0</ele><time>2026-04-19T14:39:03.119Z</time></trkpt><trkpt lat="43.346795" lon="11.9781598"><ele>287.0</ele><time>2026-04-19T14:39:05.12Z</time></trkpt><trkpt lat="43.3467234" lon="11.9780249"><ele>287.0</ele><time>2026-04-19T14:39:07.119Z</time></trkpt><trkpt lat="43.3466873" lon="11.9779517"><ele>287.0</ele><time>2026-04-19T14:39:08.12Z</time></trkpt><trkpt lat="43.346651" lon="11.9778795"><ele>287.0</ele><time>2026-04-19T14:39:09.119Z</time></trkpt><trkpt lat="43.346613" lon="11.9778063"><ele>287.0</ele><time>2026-04-19T14:39:10.119Z</time></trkpt><trkpt lat="43.3465515" lon="11.977656"><ele>287.0</ele><time>2026-04-19T14:39:12.12Z</time></trkpt><trkpt lat="43.3465007" lon="11.9775063"><ele>287.0</ele><time>2026-04-19T14:39:14.12Z</time></trkpt><trkpt lat="43.3464563" lon="11.9773555"><ele>287.0</ele><time>2026-04-19T14:39:16.12Z</time></trkpt><trkpt lat="43.346401" lon="11.9771994"><ele>286.7142857142857</ele><time>2026-04-19T14:39:18.12Z</time></trkpt><trkpt lat="43.3463725" lon="11.9771197"><ele>286.42857142857144</ele><time>2026-04-19T14:39:19.12Z</time></trkpt><trkpt lat="43.3463488" lon="11.9770357"><ele>286.1428571428571</ele><time>2026-04-19T14:39:20.12Z</time></trkpt><trkpt lat="43.3463278" lon="11.9769511"><ele>285.8571428571429</ele><time>2026-04-19T14:39:21.12Z</time></trkpt><trkpt lat="43.3463083" lon="11.9768638"><ele>285.57142857142856</ele><time>2026-04-19T14:39:22.12Z</time></trkpt><trkpt lat="43.3462916" lon="11.9767759"><ele>285.2857142857143</ele><time>2026-04-19T14:39:23.12Z</time></trkpt><trkpt lat="43.3462754" lon="11.9766905"><ele>285.0</ele><time>2026-04-19T14:39:24.12Z</time></trkpt><trkpt lat="43.346259" lon="11.976602"><ele>285.0</ele><time>2026-04-19T14:39:25.12Z</time></trkpt><trkpt lat="43.3462402" lon="11.9765177"><ele>285.0</ele><time>2026-04-19T14:39:26.119Z</time></trkpt><trkpt lat="43.3462036" lon="11.9763537"><ele>285.0</ele><time>2026-04-19T14:39:28.119Z</time></trkpt><trkpt lat="43.3461598" lon="11.976193"><ele>285.0</ele><time>2026-04-19T14:39:30.12Z</time></trkpt><trkpt lat="43.3461073" lon="11.9760396"><ele>285.0</ele><time>2026-04-19T14:39:32.12Z</time></trkpt><trkpt lat="43.3460388" lon="11.9758997"><ele>285.25</ele><time>2026-04-19T14:39:34.119Z</time></trkpt><trkpt lat="43.3459641" lon="11.9757701"><ele>285.5</ele><time>2026-04-19T14:39:36.12Z</time></trkpt><trkpt lat="43.3458913" lon="11.9756286"><ele>285.75</ele><time>2026-04-19T14:39:38.119Z</time></trkpt><trkpt lat="43.3458235" lon="11.9754914"><ele>286.0</ele><time>2026-04-19T14:39:40.119Z</time></trkpt><trkpt lat="43.3457478" lon="11.9753522"><ele>286.0</ele><time>2026-04-19T14:39:42.12Z</time></trkpt><trkpt lat="43.3457007" lon="11.9752883"><ele>286.0</ele><time>2026-04-19T14:39:43.12Z</time></trkpt><trkpt lat="43.3456087" lon="11.9751726"><ele>286.0</ele><time>2026-04-19T14:39:45.119Z</time></trkpt><trkpt lat="43.3455537" lon="11.9751195"><ele>286.0</ele><time>2026-04-19T14:39:46.119Z</time></trkpt><trkpt lat="43.3455007" lon="11.9750672"><ele>286.0</ele><time>2026-04-19T14:39:47.119Z</time></trkpt><trkpt lat="43.3454471" lon="11.9750151"><ele>286.0</ele><time>2026-04-19T14:39:48.119Z</time></trkpt><trkpt lat="43.345396" lon="11.9749645"><ele>286.2</ele><time>2026-04-19T14:39:49.12Z</time></trkpt><trkpt lat="43.3453428" lon="11.9749115"><ele>286.40000000000003</ele><time>2026-04-19T14:39:50.12Z</time></trkpt><trkpt lat="43.3452413" lon="11.9748077"><ele>286.6</ele><time>2026-04-19T14:39:52.119Z</time></trkpt><trkpt lat="43.3451482" lon="11.9747108"><ele>286.8</ele><time>2026-04-19T14:39:54.12Z</time></trkpt><trkpt lat="43.3450555" lon="11.9746004"><ele>287.0</ele><time>2026-04-19T14:39:56.12Z</time></trkpt><trkpt lat="43.3449896" lon="11.9744594"><ele>287.0</ele><time>2026-04-19T14:39:58.12Z</time></trkpt><trkpt lat="43.344956" lon="11.9743116"><ele>287.0</ele><time>2026-04-19T14:40:00.119Z</time></trkpt><trkpt lat="43.3449384" lon="11.9741653"><ele>287.0</ele><time>2026-04-19T14:40:02.119Z</time></trkpt><trkpt lat="43.344914" lon="11.9740072"><ele>287.0</ele><time>2026-04-19T14:40:04.119Z</time></trkpt><trkpt lat="43.3448932" lon="11.9739236"><ele>287.0</ele><time>2026-04-19T14:40:05.119Z</time></trkpt><trkpt lat="43.3448645" lon="11.9738453"><ele>287.14285714285717</ele><time>2026-04-19T14:40:06.119Z</time></trkpt><trkpt lat="43.3448371" lon="11.9737643"><ele>287.2857142857143</ele><time>2026-04-19T14:40:07.12Z</time></trkpt><trkpt lat="43.3448068" lon="11.9736817"><ele>287.42857142857144</ele><time>2026-04-19T14:40:08.119Z</time></trkpt><trkpt lat="43.3447732" lon="11.9736009"><ele>287.57142857142856</ele><time>2026-04-19T14:40:09.119Z</time></trkpt><trkpt lat="43.3447367" lon="11.9735212"><ele>287.7142857142857</ele><time>2026-04-19T14:40:10.12Z</time></trkpt><trkpt lat="43.3447057" lon="11.9734422"><ele>287.8571428571429</ele><time>2026-04-19T14:40:11.12Z</time></trkpt><trkpt lat="43.3446771" lon="11.9733618"><ele>288.0</ele><time>2026-04-19T14:40:12.119Z</time></trkpt><trkpt lat="43.3446499" lon="11.9732786"><ele>288.8571428571429</ele><time>2026-04-19T14:40:13.12Z</time></trkpt><trkpt lat="43.3446315" lon="11.9731957"><ele>289.7142857142857</ele><time>2026-04-19T14:40:14.12Z</time></trkpt><trkpt lat="43.3446117" lon="11.9731091"><ele>290.57142857142856</ele><time>2026-04-19T14:40:15.119Z</time></trkpt><trkpt lat="43.3445913" lon="11.9730233"><ele>291.42857142857144</ele><time>2026-04-19T14:40:16.119Z</time></trkpt><trkpt lat="43.3445717" lon="11.9729392"><ele>292.2857142857143</ele><time>2026-04-19T14:40:17.119Z</time></trkpt><trkpt lat="43.344555" lon="11.9728506"><ele>293.14285714285717</ele><time>2026-04-19T14:40:18.119Z</time></trkpt><trkpt lat="43.344537" lon="11.9727672"><ele>294.0</ele><time>2026-04-19T14:40:19.119Z</time></trkpt><trkpt lat="43.3445148" lon="11.9726828"><ele>292.5</ele><time>2026-04-19T14:40:20.119Z</time></trkpt><trkpt lat="43.3444808" lon="11.9725193"><ele>291.0</ele><time>2026-04-19T14:40:22.12Z</time></trkpt><trkpt lat="43.3444407" lon="11.9723622"><ele>289.5</ele><time>2026-04-19T14:40:24.12Z</time></trkpt><trkpt lat="43.3444009" lon="11.972205"><ele>288.0</ele><time>2026-04-19T14:40:26.12Z</time></trkpt><trkpt lat="43.3443501" lon="11.9720498"><ele>288.0</ele><time>2026-04-19T14:40:28.119Z</time></trkpt><trkpt lat="43.344326" lon="11.9719677"><ele>288.0</ele><time>2026-04-19T14:40:29.12Z</time></trkpt><trkpt lat="43.3443025" lon="11.9718834"><ele>288.0</ele><time>2026-04-19T14:40:30.12Z</time></trkpt><trkpt lat="43.3442548" lon="11.9717233"><ele>288.0</ele><time>2026-04-19T14:40:32.12Z</time></trkpt><trkpt lat="43.3442281" lon="11.971641"><ele>288.0</ele><time>2026-04-19T14:40:33.12Z</time></trkpt><trkpt lat="43.3441676" lon="11.9714887"><ele>288.0</ele><time>2026-04-19T14:40:35.12Z</time></trkpt><trkpt lat="43.3441354" lon="11.9714105"><ele>288.0</ele><time>2026-04-19T14:40:36.119Z</time></trkpt><trkpt lat="43.344081" lon="11.971257"><ele>288.0</ele><time>2026-04-19T14:40:38.119Z</time></trkpt><trkpt lat="43.3440439" lon="11.9710978"><ele>288.0</ele><time>2026-04-19T14:40:40.119Z</time></trkpt><trkpt lat="43.344007" lon="11.9709221"><ele>288.0</ele><time>2026-04-19T14:40:42.119Z</time></trkpt><trkpt lat="43.3439918" lon="11.9708242"><ele>286.8571428571429</ele><time>2026-04-19T14:40:43.12Z</time></trkpt><trkpt lat="43.3439746" lon="11.97073"><ele>285.7142857142857</ele><time>2026-04-19T14:40:44.119Z</time></trkpt><trkpt lat="43.3439613" lon="11.9706344"><ele>284.57142857142856</ele><time>2026-04-19T14:40:45.12Z</time></trkpt><trkpt lat="43.3439497" lon="11.9705351"><ele>283.42857142857144</ele><time>2026-04-19T14:40:46.119Z</time></trkpt><trkpt lat="43.343944" lon="11.9704361"><ele>282.2857142857143</ele><time>2026-04-19T14:40:47.12Z</time></trkpt><trkpt lat="43.3439399" lon="11.9703377"><ele>281.14285714285717</ele><time>2026-04-19T14:40:48.12Z</time></trkpt><trkpt lat="43.3439373" lon="11.9702362"><ele>280.0</ele><time>2026-04-19T14:40:49.12Z</time></trkpt><trkpt lat="43.3439344" lon="11.9701367"><ele>280.0</ele><time>2026-04-19T14:40:50.119Z</time></trkpt><trkpt lat="43.3439291" lon="11.9700333"><ele>280.0</ele><time>2026-04-19T14:40:51.119Z</time></trkpt><trkpt lat="43.343921" lon="11.9699331"><ele>280.0</ele><time>2026-04-19T14:40:52.12Z</time></trkpt><trkpt lat="43.3439101" lon="11.9698352"><ele>280.0</ele><time>2026-04-19T14:40:53.119Z</time></trkpt><trkpt lat="43.3438953" lon="11.9697405"><ele>280.0</ele><time>2026-04-19T14:40:54.12Z</time></trkpt><trkpt lat="43.3438778" lon="11.9696504"><ele>280.0</ele><time>2026-04-19T14:40:55.12Z</time></trkpt><trkpt lat="43.3438606" lon="11.9695599"><ele>280.0</ele><time>2026-04-19T14:40:56.12Z</time></trkpt><trkpt lat="43.3438399" lon="11.9694731"><ele>279.85714285714283</ele><time>2026-04-19T14:40:57.12Z</time></trkpt><trkpt lat="43.343818" lon="11.9693844"><ele>279.7142857142857</ele><time>2026-04-19T14:40:58.12Z</time></trkpt><trkpt lat="43.3437968" lon="11.9692992"><ele>279.57142857142856</ele><time>2026-04-19T14:40:59.12Z</time></trkpt><trkpt lat="43.3437749" lon="11.9692145"><ele>279.42857142857144</ele><time>2026-04-19T14:41:00.119Z</time></trkpt><trkpt lat="43.343751" lon="11.9691272"><ele>279.2857142857143</ele><time>2026-04-19T14:41:01.12Z</time></trkpt><trkpt lat="43.3437315" lon="11.96904"><ele>279.1428571428571</ele><time>2026-04-19T14:41:02.119Z</time></trkpt><trkpt lat="43.3437141" lon="11.9689557"><ele>279.0</ele><time>2026-04-19T14:41:03.12Z</time></trkpt><trkpt lat="43.3436975" lon="11.968868"><ele>279.0</ele><time>2026-04-19T14:41:04.12Z</time></trkpt><trkpt lat="43.3436836" lon="11.9687823"><ele>279.0</ele><time>2026-04-19T14:41:05.12Z</time></trkpt><trkpt lat="43.3436725" lon="11.9686963"><ele>279.0</ele><time>2026-04-19T14:41:06.119Z</time></trkpt><trkpt lat="43.3436613" lon="11.9686111"><ele>279.0</ele><time>2026-04-19T14:41:07.12Z</time></trkpt><trkpt lat="43.3436536" lon="11.9685232"><ele>279.0</ele><time>2026-04-19T14:41:08.12Z</time></trkpt><trkpt lat="43.3436412" lon="11.9684366"><ele>279.0</ele><time>2026-04-19T14:41:09.119Z</time></trkpt><trkpt lat="43.3436308" lon="11.968351"><ele>279.0</ele><time>2026-04-19T14:41:10.12Z</time></trkpt><trkpt lat="43.343618" lon="11.9682656"><ele>279.0</ele><time>2026-04-19T14:41:11.12Z</time></trkpt><trkpt lat="43.3436037" lon="11.9681786"><ele>278.8333333333333</ele><time>2026-04-19T14:41:12.119Z</time></trkpt><trkpt lat="43.3435855" lon="11.9680934"><ele>278.6666666666667</ele><time>2026-04-19T14:41:13.119Z</time></trkpt><trkpt lat="43.3435477" lon="11.9679304"><ele>278.5</ele><time>2026-04-19T14:41:15.119Z</time></trkpt><trkpt lat="43.3435338" lon="11.9678443"><ele>278.33333333333337</ele><time>2026-04-19T14:41:16.12Z</time></trkpt><trkpt lat="43.3435043" lon="11.9676836"><ele>278.1666666666667</ele><time>2026-04-19T14:41:18.119Z</time></trkpt><trkpt lat="43.3434926" lon="11.967598"><ele>278.0</ele><time>2026-04-19T14:41:19.12Z</time></trkpt><trkpt lat="43.3434805" lon="11.9675123"><ele>277.85714285714283</ele><time>2026-04-19T14:41:20.119Z</time></trkpt><trkpt lat="43.3434665" lon="11.9674222"><ele>277.7142857142857</ele><time>2026-04-19T14:41:21.12Z</time></trkpt><trkpt lat="43.3434452" lon="11.967333"><ele>277.57142857142856</ele><time>2026-04-19T14:41:22.12Z</time></trkpt><trkpt lat="43.3434254" lon="11.9672438"><ele>277.42857142857144</ele><time>2026-04-19T14:41:23.119Z</time></trkpt><trkpt lat="43.3434046" lon="11.9671567"><ele>277.2857142857143</ele><time>2026-04-19T14:41:24.119Z</time></trkpt><trkpt lat="43.3433811" lon="11.9670671"><ele>277.1428571428571</ele><time>2026-04-19T14:41:25.119Z</time></trkpt><trkpt lat="43.3433575" lon="11.9669808"><ele>277.0</ele><time>2026-04-19T14:41:26.12Z</time></trkpt><trkpt lat="43.3433321" lon="11.9668908"><ele>277.0</ele><time>2026-04-19T14:41:27.119Z</time></trkpt><trkpt lat="43.3433059" lon="11.9668058"><ele>277.0</ele><time>2026-04-19T14:41:28.12Z</time></trkpt><trkpt lat="43.3432852" lon="11.9667194"><ele>277.0</ele><time>2026-04-19T14:41:29.12Z</time></trkpt><trkpt lat="43.3432639" lon="11.9666353"><ele>277.0</ele><time>2026-04-19T14:41:30.12Z</time></trkpt><trkpt lat="43.3432411" lon="11.9665533"><ele>277.0</ele><time>2026-04-19T14:41:31.12Z</time></trkpt><trkpt lat="43.3432214" lon="11.966467"><ele>277.0</ele><time>2026-04-19T14:41:32.12Z</time></trkpt><trkpt lat="43.3431999" lon="11.9663791"><ele>277.0</ele><time>2026-04-19T14:41:33.12Z</time></trkpt><trkpt lat="43.3431769" lon="11.9662931"><ele>276.8333333333333</ele><time>2026-04-19T14:41:34.119Z</time></trkpt><trkpt lat="43.3431485" lon="11.9662107"><ele>276.66666666666663</ele><time>2026-04-19T14:41:35.12Z</time></trkpt><trkpt lat="43.3431191" lon="11.9661273"><ele>276.5</ele><time>2026-04-19T14:41:36.12Z</time></trkpt><trkpt lat="43.3430904" lon="11.9660452"><ele>276.3333333333333</ele><time>2026-04-19T14:41:37.119Z</time></trkpt><trkpt lat="43.3430614" lon="11.9659632"><ele>276.1666666666667</ele><time>2026-04-19T14:41:38.12Z</time></trkpt><trkpt lat="43.3430211" lon="11.9658017"><ele>276.0</ele><time>2026-04-19T14:41:40.12Z</time></trkpt><trkpt lat="43.3429824" lon="11.9656378"><ele>276.0</ele><time>2026-04-19T14:41:42.12Z</time></trkpt><trkpt lat="43.3429551" lon="11.9655575"><ele>276.0</ele><time>2026-04-19T14:41:43.12Z</time></trkpt><trkpt lat="43.3429285" lon="11.9654786"><ele>276.0</ele><time>2026-04-19T14:41:44.12Z</time></trkpt><trkpt lat="43.342901" lon="11.9653979"><ele>276.0</ele><time>2026-04-19T14:41:45.119Z</time></trkpt><trkpt lat="43.3428701" lon="11.9653191"><ele>276.0</ele><time>2026-04-19T14:41:46.12Z</time></trkpt><trkpt lat="43.3428049" lon="11.9651607"><ele>276.0</ele><time>2026-04-19T14:41:48.12Z</time></trkpt><trkpt lat="43.3427722" lon="11.96508"><ele>275.8333333333333</ele><time>2026-04-19T14:41:49.119Z</time></trkpt><trkpt lat="43.3427451" lon="11.9650003"><ele>275.6666666666667</ele><time>2026-04-19T14:41:50.12Z</time></trkpt><trkpt lat="43.3427143" lon="11.96492"><ele>275.5</ele><time>2026-04-19T14:41:51.119Z</time></trkpt><trkpt lat="43.3426587" lon="11.964767"><ele>275.33333333333337</ele><time>2026-04-19T14:41:53.119Z</time></trkpt><trkpt lat="43.3426138" lon="11.964609"><ele>275.1666666666667</ele><time>2026-04-19T14:41:55.12Z</time></trkpt><trkpt lat="43.3425942" lon="11.9645257"><ele>275.0</ele><time>2026-04-19T14:41:56.12Z</time></trkpt><trkpt lat="43.3425698" lon="11.9644444"><ele>275.0</ele><time>2026-04-19T14:41:57.12Z</time></trkpt><trkpt lat="43.3425489" lon="11.9643627"><ele>275.0</ele><time>2026-04-19T14:41:58.12Z</time></trkpt><trkpt lat="43.3425285" lon="11.9642802"><ele>275.0</ele><time>2026-04-19T14:41:59.119Z</time></trkpt><trkpt lat="43.3425083" lon="11.9641982"><ele>275.0</ele><time>2026-04-19T14:42:00.119Z</time></trkpt><trkpt lat="43.3424925" lon="11.9641143"><ele>275.0</ele><time>2026-04-19T14:42:01.119Z</time></trkpt><trkpt lat="43.3424831" lon="11.9640279"><ele>275.0</ele><time>2026-04-19T14:42:02.12Z</time></trkpt><trkpt lat="43.3424722" lon="11.9639426"><ele>275.0</ele><time>2026-04-19T14:42:03.12Z</time></trkpt><trkpt lat="43.3424473" lon="11.9637707"><ele>274.75</ele><time>2026-04-19T14:42:05.119Z</time></trkpt><trkpt lat="43.342429" lon="11.9636005"><ele>274.5</ele><time>2026-04-19T14:42:07.119Z</time></trkpt><trkpt lat="43.3424102" lon="11.9634398"><ele>274.25</ele><time>2026-04-19T14:42:09.12Z</time></trkpt><trkpt lat="43.3423892" lon="11.9632738"><ele>274.0</ele><time>2026-04-19T14:42:11.12Z</time></trkpt><trkpt lat="43.3423636" lon="11.9631116"><ele>274.0</ele><time>2026-04-19T14:42:13.12Z</time></trkpt><trkpt lat="43.3423382" lon="11.9629479"><ele>274.0</ele><time>2026-04-19T14:42:15.12Z</time></trkpt><trkpt lat="43.342307" lon="11.9627849"><ele>274.0</ele><time>2026-04-19T14:42:17.12Z</time></trkpt><trkpt lat="43.3422748" lon="11.9626401"><ele>274.0</ele><time>2026-04-19T14:42:19.12Z</time></trkpt><trkpt lat="43.3422383" lon="11.962511"><ele>274.3333333333333</ele><time>2026-04-19T14:42:21.119Z</time></trkpt><trkpt lat="43.3422059" lon="11.962395"><ele>274.66666666666663</ele><time>2026-04-19T14:42:23.12Z</time></trkpt><trkpt lat="43.3421684" lon="11.9622458"><ele>275.0</ele><time>2026-04-19T14:42:25.119Z</time></trkpt><trkpt lat="43.3421473" lon="11.962158"><ele>275.3333333333333</ele><time>2026-04-19T14:42:26.12Z</time></trkpt><trkpt lat="43.3421179" lon="11.9620757"><ele>275.6666666666667</ele><time>2026-04-19T14:42:27.12Z</time></trkpt><trkpt lat="43.3420816" lon="11.9619917"><ele>276.0</ele><time>2026-04-19T14:42:28.12Z</time></trkpt><trkpt lat="43.3420423" lon="11.9619126"><ele>276.0</ele><time>2026-04-19T14:42:29.119Z</time></trkpt><trkpt lat="43.3420015" lon="11.9618359"><ele>276.0</ele><time>2026-04-19T14:42:30.12Z</time></trkpt><trkpt lat="43.3419578" lon="11.9617653"><ele>276.0</ele><time>2026-04-19T14:42:31.119Z</time></trkpt><trkpt lat="43.3419063" lon="11.9616937"><ele>276.0</ele><time>2026-04-19T14:42:32.12Z</time></trkpt><trkpt lat="43.3418612" lon="11.9616278"><ele>276.0</ele><time>2026-04-19T14:42:33.12Z</time></trkpt><trkpt lat="43.341819" lon="11.9615552"><ele>276.0</ele><time>2026-04-19T14:42:34.119Z</time></trkpt><trkpt lat="43.341773" lon="11.9614835"><ele>276.0</ele><time>2026-04-19T14:42:35.12Z</time></trkpt><trkpt lat="43.3417291" lon="11.9614207"><ele>275.57142857142856</ele><time>2026-04-19T14:42:36.119Z</time></trkpt><trkpt lat="43.34169" lon="11.9613492"><ele>275.14285714285717</ele><time>2026-04-19T14:42:37.12Z</time></trkpt><trkpt lat="43.3416521" lon="11.9612745"><ele>274.7142857142857</ele><time>2026-04-19T14:42:38.119Z</time></trkpt><trkpt lat="43.3416114" lon="11.9611914"><ele>274.2857142857143</ele><time>2026-04-19T14:42:39.12Z</time></trkpt><trkpt lat="43.341577" lon="11.9611052"><ele>273.8571428571429</ele><time>2026-04-19T14:42:40.12Z</time></trkpt><trkpt lat="43.341534" lon="11.9610079"><ele>273.42857142857144</ele><time>2026-04-19T14:42:41.12Z</time></trkpt><trkpt lat="43.3414984" lon="11.9609187"><ele>273.0</ele><time>2026-04-19T14:42:42.12Z</time></trkpt><trkpt lat="43.3414655" lon="11.9608237"><ele>272.7142857142857</ele><time>2026-04-19T14:42:43.119Z</time></trkpt><trkpt lat="43.3414421" lon="11.9607266"><ele>272.42857142857144</ele><time>2026-04-19T14:42:44.12Z</time></trkpt><trkpt lat="43.3414244" lon="11.9606317"><ele>272.1428571428571</ele><time>2026-04-19T14:42:45.12Z</time></trkpt><trkpt lat="43.3414177" lon="11.9605329"><ele>271.8571428571429</ele><time>2026-04-19T14:42:46.12Z</time></trkpt><trkpt lat="43.3414136" lon="11.9604303"><ele>271.57142857142856</ele><time>2026-04-19T14:42:47.12Z</time></trkpt><trkpt lat="43.3414089" lon="11.960333"><ele>271.2857142857143</ele><time>2026-04-19T14:42:48.12Z</time></trkpt><trkpt lat="43.3414051" lon="11.9602341"><ele>271.0</ele><time>2026-04-19T14:42:49.12Z</time></trkpt><trkpt lat="43.3414017" lon="11.9601371"><ele>271.0</ele><time>2026-04-19T14:42:50.12Z</time></trkpt><trkpt lat="43.3414007" lon="11.9600362"><ele>271.0</ele><time>2026-04-19T14:42:51.119Z</time></trkpt><trkpt lat="43.3413958" lon="11.9599407"><ele>271.0</ele><time>2026-04-19T14:42:52.12Z</time></trkpt><trkpt lat="43.3413857" lon="11.9598471"><ele>271.0</ele><time>2026-04-19T14:42:53.119Z</time></trkpt><trkpt lat="43.3413783" lon="11.9597587"><ele>271.0</ele><time>2026-04-19T14:42:54.12Z</time></trkpt><trkpt lat="43.3413666" lon="11.9596688"><ele>271.0</ele><time>2026-04-19T14:42:55.12Z</time></trkpt><trkpt lat="43.3413667" lon="11.9595781"><ele>271.0</ele><time>2026-04-19T14:42:56.12Z</time></trkpt><trkpt lat="43.341372" lon="11.9594902"><ele>270.85714285714283</ele><time>2026-04-19T14:42:57.119Z</time></trkpt><trkpt lat="43.3413903" lon="11.9594011"><ele>270.7142857142857</ele><time>2026-04-19T14:42:58.12Z</time></trkpt><trkpt lat="43.3414145" lon="11.9593135"><ele>270.57142857142856</ele><time>2026-04-19T14:42:59.12Z</time></trkpt><trkpt lat="43.3414403" lon="11.9592298"><ele>270.42857142857144</ele><time>2026-04-19T14:43:00.12Z</time></trkpt><trkpt lat="43.3414727" lon="11.9591477"><ele>270.2857142857143</ele><time>2026-04-19T14:43:01.119Z</time></trkpt><trkpt lat="43.3415093" lon="11.9590713"><ele>270.1428571428571</ele><time>2026-04-19T14:43:02.119Z</time></trkpt><trkpt lat="43.3415413" lon="11.958993"><ele>270.0</ele><time>2026-04-19T14:43:03.12Z</time></trkpt><trkpt lat="43.3415996" lon="11.9588394"><ele>270.0</ele><time>2026-04-19T14:43:05.119Z</time></trkpt><trkpt lat="43.3416377" lon="11.958674"><ele>270.0</ele><time>2026-04-19T14:43:07.119Z</time></trkpt><trkpt lat="43.3416653" lon="11.9585113"><ele>270.0</ele><time>2026-04-19T14:43:09.12Z</time></trkpt><trkpt lat="43.3416836" lon="11.9583368"><ele>270.0</ele><time>2026-04-19T14:43:11.12Z</time></trkpt><trkpt lat="43.3416911" lon="11.9582479"><ele>270.0</ele><time>2026-04-19T14:43:12.12Z</time></trkpt><trkpt lat="43.3416952" lon="11.9581594"><ele>269.4</ele><time>2026-04-19T14:43:13.119Z</time></trkpt><trkpt lat="43.3417007" lon="11.9580727"><ele>268.8</ele><time>2026-04-19T14:43:14.12Z</time></trkpt><trkpt lat="43.3417083" lon="11.9579008"><ele>268.2</ele><time>2026-04-19T14:43:16.12Z</time></trkpt><trkpt lat="43.3417109" lon="11.9577286"><ele>267.6</ele><time>2026-04-19T14:43:18.119Z</time></trkpt><trkpt lat="43.3417177" lon="11.9575583"><ele>267.0</ele><time>2026-04-19T14:43:20.119Z</time></trkpt><trkpt lat="43.3417301" lon="11.9573916"><ele>267.0</ele><time>2026-04-19T14:43:22.119Z</time></trkpt><trkpt lat="43.3417494" lon="11.9572239"><ele>267.0</ele><time>2026-04-19T14:43:24.12Z</time></trkpt><trkpt lat="43.3417565" lon="11.9571372"><ele>267.0</ele><time>2026-04-19T14:43:25.12Z</time></trkpt><trkpt lat="43.3417681" lon="11.956969"><ele>267.0</ele><time>2026-04-19T14:43:27.119Z</time></trkpt><trkpt lat="43.3417663" lon="11.9568824"><ele>267.0</ele><time>2026-04-19T14:43:28.119Z</time></trkpt><trkpt lat="43.3417676" lon="11.9567938"><ele>267.0</ele><time>2026-04-19T14:43:29.12Z</time></trkpt><trkpt lat="43.341762" lon="11.9566257"><ele>267.0</ele><time>2026-04-19T14:43:31.12Z</time></trkpt><trkpt lat="43.3417499" lon="11.95646"><ele>267.0</ele><time>2026-04-19T14:43:33.12Z</time></trkpt><trkpt lat="43.3417619" lon="11.956297"><ele>267.0</ele><time>2026-04-19T14:43:35.119Z</time></trkpt><trkpt lat="43.3418021" lon="11.9561394"><ele>267.0</ele><time>2026-04-19T14:43:37.119Z</time></trkpt><trkpt lat="43.3418397" lon="11.9559759"><ele>267.0</ele><time>2026-04-19T14:43:39.12Z</time></trkpt><trkpt lat="43.3418674" lon="11.955812"><ele>267.0</ele><time>2026-04-19T14:43:41.12Z</time></trkpt><trkpt lat="43.3418761" lon="11.9556485"><ele>267.0</ele><time>2026-04-19T14:43:43.119Z</time></trkpt><trkpt lat="43.3418591" lon="11.9554822"><ele>267.0</ele><time>2026-04-19T14:43:45.119Z</time></trkpt><trkpt lat="43.3418107" lon="11.9553325"><ele>267.0</ele><time>2026-04-19T14:43:47.119Z</time></trkpt><trkpt lat="43.3417465" lon="11.955193"><ele>267.0</ele><time>2026-04-19T14:43:49.12Z</time></trkpt><trkpt lat="43.3416746" lon="11.9550663"><ele>267.0</ele><time>2026-04-19T14:43:51.119Z</time></trkpt><trkpt lat="43.3416027" lon="11.9549368"><ele>267.0</ele><time>2026-04-19T14:43:53.12Z</time></trkpt><trkpt lat="43.3415322" lon="11.9548084"><ele>267.0</ele><time>2026-04-19T14:43:55.119Z</time></trkpt><trkpt lat="43.34146" lon="11.9546911"><ele>267.0</ele><time>2026-04-19T14:43:57.12Z</time></trkpt><trkpt lat="43.3413891" lon="11.9545722"><ele>267.0</ele><time>2026-04-19T14:43:59.12Z</time></trkpt><trkpt lat="43.3413174" lon="11.9544523"><ele>267.0</ele><time>2026-04-19T14:44:01.12Z</time></trkpt><trkpt lat="43.3412507" lon="11.9543282"><ele>267.0</ele><time>2026-04-19T14:44:03.119Z</time></trkpt><trkpt lat="43.3411771" lon="11.9542096"><ele>267.5</ele><time>2026-04-19T14:44:05.119Z</time></trkpt><trkpt lat="43.3410994" lon="11.9540997"><ele>268.0</ele><time>2026-04-19T14:44:07.119Z</time></trkpt><trkpt lat="43.3410045" lon="11.9539976"><ele>268.5</ele><time>2026-04-19T14:44:09.12Z</time></trkpt><trkpt lat="43.3409101" lon="11.9538987"><ele>269.0</ele><time>2026-04-19T14:44:11.119Z</time></trkpt><trkpt lat="43.3408223" lon="11.9537941"><ele>269.0</ele><time>2026-04-19T14:44:13.12Z</time></trkpt><trkpt lat="43.3407322" lon="11.9536971"><ele>269.0</ele><time>2026-04-19T14:44:15.119Z</time></trkpt><trkpt lat="43.340658" lon="11.9536136"><ele>269.0</ele><time>2026-04-19T14:44:17.119Z</time></trkpt><trkpt lat="43.3405938" lon="11.9535312"><ele>269.0</ele><time>2026-04-19T14:44:19.119Z</time></trkpt><trkpt lat="43.340548" lon="11.9534688"><ele>269.0</ele><time>2026-04-19T14:44:21.12Z</time></trkpt><trkpt lat="43.3404881" lon="11.9533737"><ele>269.33333333333337</ele><time>2026-04-19T14:44:24.12Z</time></trkpt><trkpt lat="43.3404323" lon="11.9532765"><ele>269.6666666666667</ele><time>2026-04-19T14:44:26.12Z</time></trkpt><trkpt lat="43.3403588" lon="11.9531428"><ele>270.0</ele><time>2026-04-19T14:44:28.12Z</time></trkpt><trkpt lat="43.3403109" lon="11.953074"><ele>270.3333333333333</ele><time>2026-04-19T14:44:29.12Z</time></trkpt><trkpt lat="43.340265" lon="11.9530009"><ele>270.66666666666663</ele><time>2026-04-19T14:44:30.119Z</time></trkpt><trkpt lat="43.3402184" lon="11.9529244"><ele>271.0</ele><time>2026-04-19T14:44:31.12Z</time></trkpt><trkpt lat="43.3401731" lon="11.9528461"><ele>271.0</ele><time>2026-04-19T14:44:32.12Z</time></trkpt><trkpt lat="43.3401256" lon="11.9527632"><ele>271.0</ele><time>2026-04-19T14:44:33.12Z</time></trkpt><trkpt lat="43.3400854" lon="11.9526758"><ele>271.0</ele><time>2026-04-19T14:44:34.12Z</time></trkpt><trkpt lat="43.3400453" lon="11.9525871"><ele>271.0</ele><time>2026-04-19T14:44:35.119Z</time></trkpt><trkpt lat="43.3400054" lon="11.9524974"><ele>271.0</ele><time>2026-04-19T14:44:36.12Z</time></trkpt><trkpt lat="43.3399634" lon="11.9523998"><ele>271.0</ele><time>2026-04-19T14:44:37.12Z</time></trkpt><trkpt lat="43.3399308" lon="11.9523091"><ele>270.42857142857144</ele><time>2026-04-19T14:44:38.119Z</time></trkpt><trkpt lat="43.3399" lon="11.9522196"><ele>269.8571428571429</ele><time>2026-04-19T14:44:39.12Z</time></trkpt><trkpt lat="43.3398725" lon="11.9521329"><ele>269.28571428571433</ele><time>2026-04-19T14:44:40.12Z</time></trkpt><trkpt lat="43.3398435" lon="11.9520443"><ele>268.7142857142857</ele><time>2026-04-19T14:44:41.12Z</time></trkpt><trkpt lat="43.3398134" lon="11.9519556"><ele>268.14285714285717</ele><time>2026-04-19T14:44:42.119Z</time></trkpt><trkpt lat="43.3397811" lon="11.951869"><ele>267.5714285714286</ele><time>2026-04-19T14:44:43.119Z</time></trkpt><trkpt lat="43.3397483" lon="11.9517844"><ele>267.0</ele><time>2026-04-19T14:44:44.12Z</time></trkpt><trkpt lat="43.3397158" lon="11.9516979"><ele>266.7142857142857</ele><time>2026-04-19T14:44:45.12Z</time></trkpt><trkpt lat="43.3396818" lon="11.9516134"><ele>266.42857142857144</ele><time>2026-04-19T14:44:46.12Z</time></trkpt><trkpt lat="43.3396477" lon="11.9515294"><ele>266.1428571428571</ele><time>2026-04-19T14:44:47.119Z</time></trkpt><trkpt lat="43.3396141" lon="11.9514491"><ele>265.8571428571429</ele><time>2026-04-19T14:44:48.12Z</time></trkpt><trkpt lat="43.3395814" lon="11.9513664"><ele>265.57142857142856</ele><time>2026-04-19T14:44:49.119Z</time></trkpt><trkpt lat="43.3395475" lon="11.9512832"><ele>265.2857142857143</ele><time>2026-04-19T14:44:50.119Z</time></trkpt><trkpt lat="43.3395116" lon="11.9512021"><ele>265.0</ele><time>2026-04-19T14:44:51.12Z</time></trkpt><trkpt lat="43.3394795" lon="11.951117"><ele>264.99999999999994</ele><time>2026-04-19T14:44:52.12Z</time></trkpt><trkpt lat="43.3394452" lon="11.9510335"><ele>265.0</ele><time>2026-04-19T14:44:53.12Z</time></trkpt><trkpt lat="43.3394172" lon="11.9509475"><ele>265.0</ele><time>2026-04-19T14:44:54.12Z</time></trkpt><trkpt lat="43.3393844" lon="11.950864"><ele>265.0</ele><time>2026-04-19T14:44:55.12Z</time></trkpt><trkpt lat="43.3393494" lon="11.9507776"><ele>265.0</ele><time>2026-04-19T14:44:56.12Z</time></trkpt><trkpt lat="43.3393145" lon="11.9506931"><ele>264.99999999999994</ele><time>2026-04-19T14:44:57.119Z</time></trkpt><trkpt lat="43.3392815" lon="11.9506114"><ele>265.0</ele><time>2026-04-19T14:44:58.119Z</time></trkpt><trkpt lat="43.3392455" lon="11.9505229"><ele>264.85714285714283</ele><time>2026-04-19T14:44:59.119Z</time></trkpt><trkpt lat="43.3392095" lon="11.950436"><ele>264.7142857142857</ele><time>2026-04-19T14:45:00.12Z</time></trkpt><trkpt lat="43.3391758" lon="11.9503515"><ele>264.57142857142856</ele><time>2026-04-19T14:45:01.12Z</time></trkpt><trkpt lat="43.3391431" lon="11.950269"><ele>264.42857142857144</ele><time>2026-04-19T14:45:02.12Z</time></trkpt><trkpt lat="43.3391104" lon="11.9501861"><ele>264.2857142857143</ele><time>2026-04-19T14:45:03.119Z</time></trkpt><trkpt lat="43.3390786" lon="11.9500996"><ele>264.1428571428571</ele><time>2026-04-19T14:45:04.119Z</time></trkpt><trkpt lat="43.3390434" lon="11.950017"><ele>264.0</ele><time>2026-04-19T14:45:05.119Z</time></trkpt><trkpt lat="43.3390046" lon="11.9499379"><ele>264.0</ele><time>2026-04-19T14:45:06.12Z</time></trkpt><trkpt lat="43.3389653" lon="11.9498571"><ele>264.0</ele><time>2026-04-19T14:45:07.119Z</time></trkpt><trkpt lat="43.3389278" lon="11.9497763"><ele>264.0</ele><time>2026-04-19T14:45:08.12Z</time></trkpt><trkpt lat="43.3388877" lon="11.9496971"><ele>264.0</ele><time>2026-04-19T14:45:09.119Z</time></trkpt><trkpt lat="43.3388496" lon="11.9496219"><ele>264.0</ele><time>2026-04-19T14:45:10.119Z</time></trkpt><trkpt lat="43.3388168" lon="11.9495468"><ele>264.0</ele><time>2026-04-19T14:45:11.119Z</time></trkpt><trkpt lat="43.3387785" lon="11.9494717"><ele>264.0</ele><time>2026-04-19T14:45:12.119Z</time></trkpt><trkpt lat="43.3387418" lon="11.9493949"><ele>264.2</ele><time>2026-04-19T14:45:13.12Z</time></trkpt><trkpt lat="43.3387139" lon="11.949313"><ele>264.4</ele><time>2026-04-19T14:45:14.12Z</time></trkpt><trkpt lat="43.3386939" lon="11.9491495"><ele>264.6</ele><time>2026-04-19T14:45:16.119Z</time></trkpt><trkpt lat="43.3387106" lon="11.9489986"><ele>264.8</ele><time>2026-04-19T14:45:18.12Z</time></trkpt><trkpt lat="43.3387605" lon="11.9488508"><ele>265.0</ele><time>2026-04-19T14:45:20.12Z</time></trkpt><trkpt lat="43.3388227" lon="11.9487056"><ele>265.1428571428571</ele><time>2026-04-19T14:45:22.12Z</time></trkpt><trkpt lat="43.3388582" lon="11.9486325"><ele>265.2857142857143</ele><time>2026-04-19T14:45:23.12Z</time></trkpt><trkpt lat="43.3388912" lon="11.9485553"><ele>265.42857142857144</ele><time>2026-04-19T14:45:24.119Z</time></trkpt><trkpt lat="43.3389266" lon="11.9484805"><ele>265.57142857142856</ele><time>2026-04-19T14:45:25.119Z</time></trkpt><trkpt lat="43.3389623" lon="11.948403"><ele>265.7142857142857</ele><time>2026-04-19T14:45:26.12Z</time></trkpt><trkpt lat="43.3389976" lon="11.9483249"><ele>265.85714285714283</ele><time>2026-04-19T14:45:27.119Z</time></trkpt><trkpt lat="43.3390312" lon="11.9482509"><ele>266.0</ele><time>2026-04-19T14:45:28.119Z</time></trkpt><trkpt lat="43.3390616" lon="11.9481729"><ele>266.0</ele><time>2026-04-19T14:45:29.12Z</time></trkpt><trkpt lat="43.3391231" lon="11.9480305"><ele>266.0</ele><time>2026-04-19T14:45:31.12Z</time></trkpt><trkpt lat="43.3391779" lon="11.9478856"><ele>266.0</ele><time>2026-04-19T14:45:33.12Z</time></trkpt><trkpt lat="43.3392281" lon="11.9477378"><ele>266.0</ele><time>2026-04-19T14:45:35.12Z</time></trkpt><trkpt lat="43.3392619" lon="11.9475947"><ele>265.6666666666667</ele><time>2026-04-19T14:45:37.119Z</time></trkpt><trkpt lat="43.3393003" lon="11.9474664"><ele>265.33333333333337</ele><time>2026-04-19T14:45:39.119Z</time></trkpt><trkpt lat="43.3393506" lon="11.9473342"><ele>265.0</ele><time>2026-04-19T14:45:41.12Z</time></trkpt><trkpt lat="43.3393814" lon="11.9472583"><ele>264.6666666666667</ele><time>2026-04-19T14:45:42.12Z</time></trkpt><trkpt lat="43.3394106" lon="11.9471705"><ele>264.3333333333333</ele><time>2026-04-19T14:45:43.12Z</time></trkpt><trkpt lat="43.3394434" lon="11.9470743"><ele>264.0</ele><time>2026-04-19T14:45:44.119Z</time></trkpt><trkpt lat="43.3394772" lon="11.9469719"><ele>264.0</ele><time>2026-04-19T14:45:45.119Z</time></trkpt><trkpt lat="43.3395115" lon="11.9468706"><ele>264.0</ele><time>2026-04-19T14:45:46.12Z</time></trkpt><trkpt lat="43.3395459" lon="11.9467614"><ele>264.0</ele><time>2026-04-19T14:45:47.119Z</time></trkpt><trkpt lat="43.3395797" lon="11.946655"><ele>264.0</ele><time>2026-04-19T14:45:48.12Z</time></trkpt><trkpt lat="43.3396149" lon="11.9465519"><ele>264.0</ele><time>2026-04-19T14:45:49.12Z</time></trkpt><trkpt lat="43.3396491" lon="11.9464502"><ele>264.0</ele><time>2026-04-19T14:45:50.119Z</time></trkpt><trkpt lat="43.3396855" lon="11.9463488"><ele>263.8333333333333</ele><time>2026-04-19T14:45:51.119Z</time></trkpt><trkpt lat="43.3397199" lon="11.9462453"><ele>263.6666666666667</ele><time>2026-04-19T14:45:52.12Z</time></trkpt><trkpt lat="43.3397524" lon="11.946142"><ele>263.5</ele><time>2026-04-19T14:45:53.119Z</time></trkpt><trkpt lat="43.3397848" lon="11.9460446"><ele>263.33333333333337</ele><time>2026-04-19T14:45:54.12Z</time></trkpt><trkpt lat="43.3398176" lon="11.945946"><ele>263.1666666666667</ele><time>2026-04-19T14:45:55.119Z</time></trkpt><trkpt lat="43.3398495" lon="11.9458488"><ele>263.0</ele><time>2026-04-19T14:45:56.12Z</time></trkpt><trkpt lat="43.3398779" lon="11.9457574"><ele>263.0</ele><time>2026-04-19T14:45:57.119Z</time></trkpt><trkpt lat="43.3399025" lon="11.9456634"><ele>263.0</ele><time>2026-04-19T14:45:58.119Z</time></trkpt><trkpt lat="43.3399259" lon="11.9455724"><ele>263.0</ele><time>2026-04-19T14:45:59.119Z</time></trkpt><trkpt lat="43.3399515" lon="11.9454859"><ele>263.0</ele><time>2026-04-19T14:46:00.12Z</time></trkpt><trkpt lat="43.3399777" lon="11.9454017"><ele>263.0</ele><time>2026-04-19T14:46:01.12Z</time></trkpt><trkpt lat="43.340003" lon="11.9453168"><ele>263.0</ele><time>2026-04-19T14:46:02.12Z</time></trkpt><trkpt lat="43.3400283" lon="11.9452301"><ele>263.0</ele><time>2026-04-19T14:46:03.12Z</time></trkpt><trkpt lat="43.3400519" lon="11.9451446"><ele>263.0</ele><time>2026-04-19T14:46:04.12Z</time></trkpt><trkpt lat="43.3400753" lon="11.9450588"><ele>263.0</ele><time>2026-04-19T14:46:05.119Z</time></trkpt><trkpt lat="43.3400954" lon="11.9449683"><ele>263.0</ele><time>2026-04-19T14:46:06.119Z</time></trkpt><trkpt lat="43.3401166" lon="11.9448814"><ele>263.0</ele><time>2026-04-19T14:46:07.12Z</time></trkpt><trkpt lat="43.340139" lon="11.9447948"><ele>263.0</ele><time>2026-04-19T14:46:08.12Z</time></trkpt><trkpt lat="43.3401593" lon="11.9447112"><ele>263.0</ele><time>2026-04-19T14:46:09.12Z</time></trkpt><trkpt lat="43.3401784" lon="11.9446256"><ele>263.0</ele><time>2026-04-19T14:46:10.119Z</time></trkpt><trkpt lat="43.3401976" lon="11.9445403"><ele>263.2</ele><time>2026-04-19T14:46:11.12Z</time></trkpt><trkpt lat="43.3402174" lon="11.944458"><ele>263.4</ele><time>2026-04-19T14:46:12.119Z</time></trkpt><trkpt lat="43.3402457" lon="11.9442927"><ele>263.59999999999997</ele><time>2026-04-19T14:46:14.12Z</time></trkpt><trkpt lat="43.3402603" lon="11.9442057"><ele>263.8</ele><time>2026-04-19T14:46:15.119Z</time></trkpt><trkpt lat="43.3402963" lon="11.9440465"><ele>264.0</ele><time>2026-04-19T14:46:17.119Z</time></trkpt><trkpt lat="43.3403346" lon="11.943887"><ele>263.5</ele><time>2026-04-19T14:46:19.119Z</time></trkpt><trkpt lat="43.3403957" lon="11.9437515"><ele>263.0</ele><time>2026-04-19T14:46:21.12Z</time></trkpt><trkpt lat="43.3404794" lon="11.9436293"><ele>262.5</ele><time>2026-04-19T14:46:23.119Z</time></trkpt><trkpt lat="43.3405784" lon="11.9435321"><ele>262.0</ele><time>2026-04-19T14:46:25.12Z</time></trkpt><trkpt lat="43.3406833" lon="11.9434385"><ele>262.25</ele><time>2026-04-19T14:46:27.12Z</time></trkpt><trkpt lat="43.3407851" lon="11.9433467"><ele>262.5</ele><time>2026-04-19T14:46:29.12Z</time></trkpt><trkpt lat="43.340875" lon="11.9432421"><ele>262.75</ele><time>2026-04-19T14:46:31.12Z</time></trkpt><trkpt lat="43.3409445" lon="11.9431106"><ele>263.0</ele><time>2026-04-19T14:46:33.12Z</time></trkpt><trkpt lat="43.3409914" lon="11.9429708"><ele>263.0</ele><time>2026-04-19T14:46:35.119Z</time></trkpt><trkpt lat="43.3410346" lon="11.9428269"><ele>263.0</ele><time>2026-04-19T14:46:37.12Z</time></trkpt><trkpt lat="43.3410779" lon="11.9426804"><ele>263.0</ele><time>2026-04-19T14:46:39.12Z</time></trkpt><trkpt lat="43.3411202" lon="11.9425364"><ele>263.0</ele><time>2026-04-19T14:46:41.12Z</time></trkpt><trkpt lat="43.3411555" lon="11.9423911"><ele>262.8</ele><time>2026-04-19T14:46:43.12Z</time></trkpt><trkpt lat="43.3412" lon="11.9422529"><ele>262.6</ele><time>2026-04-19T14:46:45.12Z</time></trkpt><trkpt lat="43.3412469" lon="11.9421097"><ele>262.4</ele><time>2026-04-19T14:46:47.119Z</time></trkpt><trkpt lat="43.3412897" lon="11.9419691"><ele>262.2</ele><time>2026-04-19T14:46:49.12Z</time></trkpt><trkpt lat="43.3413328" lon="11.9418346"><ele>262.0</ele><time>2026-04-19T14:46:51.12Z</time></trkpt><trkpt lat="43.3413647" lon="11.941717"><ele>262.3333333333333</ele><time>2026-04-19T14:46:53.12Z</time></trkpt><trkpt lat="43.3413913" lon="11.9416104"><ele>262.66666666666663</ele><time>2026-04-19T14:46:55.12Z</time></trkpt><trkpt lat="43.341404" lon="11.9414667"><ele>263.0</ele><time>2026-04-19T14:46:57.12Z</time></trkpt><trkpt lat="43.3414105" lon="11.9413799"><ele>263.3333333333333</ele><time>2026-04-19T14:46:58.119Z</time></trkpt><trkpt lat="43.3414149" lon="11.9412918"><ele>263.6666666666667</ele><time>2026-04-19T14:46:59.119Z</time></trkpt><trkpt lat="43.3414212" lon="11.941197"><ele>264.0</ele><time>2026-04-19T14:47:00.119Z</time></trkpt><trkpt lat="43.3414231" lon="11.9410989"><ele>264.0</ele><time>2026-04-19T14:47:01.119Z</time></trkpt><trkpt lat="43.3414196" lon="11.941002"><ele>264.0</ele><time>2026-04-19T14:47:02.12Z</time></trkpt><trkpt lat="43.3414218" lon="11.9409054"><ele>264.0</ele><time>2026-04-19T14:47:03.119Z</time></trkpt><trkpt lat="43.3414261" lon="11.9408086"><ele>264.0</ele><time>2026-04-19T14:47:04.12Z</time></trkpt><trkpt lat="43.3414348" lon="11.9407153"><ele>264.0</ele><time>2026-04-19T14:47:05.119Z</time></trkpt><trkpt lat="43.3414463" lon="11.9406225"><ele>264.0</ele><time>2026-04-19T14:47:06.119Z</time></trkpt><trkpt lat="43.3414588" lon="11.940529"><ele>264.0</ele><time>2026-04-19T14:47:07.119Z</time></trkpt><trkpt lat="43.3414709" lon="11.9404369"><ele>264.1428571428571</ele><time>2026-04-19T14:47:08.119Z</time></trkpt><trkpt lat="43.3414908" lon="11.9403491"><ele>264.2857142857143</ele><time>2026-04-19T14:47:09.119Z</time></trkpt><trkpt lat="43.3415147" lon="11.9402569"><ele>264.42857142857144</ele><time>2026-04-19T14:47:10.12Z</time></trkpt><trkpt lat="43.3415361" lon="11.9401682"><ele>264.57142857142856</ele><time>2026-04-19T14:47:11.119Z</time></trkpt><trkpt lat="43.3415653" lon="11.9400845"><ele>264.7142857142857</ele><time>2026-04-19T14:47:12.12Z</time></trkpt><trkpt lat="43.341592" lon="11.9400009"><ele>264.85714285714283</ele><time>2026-04-19T14:47:13.119Z</time></trkpt><trkpt lat="43.3416233" lon="11.9399212"><ele>265.0</ele><time>2026-04-19T14:47:14.12Z</time></trkpt><trkpt lat="43.3416575" lon="11.939846"><ele>265.0</ele><time>2026-04-19T14:47:15.12Z</time></trkpt><trkpt lat="43.3416965" lon="11.9397723"><ele>265.0</ele><time>2026-04-19T14:47:16.12Z</time></trkpt><trkpt lat="43.3417353" lon="11.9397016"><ele>265.0</ele><time>2026-04-19T14:47:17.12Z</time></trkpt><trkpt lat="43.3418097" lon="11.9395569"><ele>265.0</ele><time>2026-04-19T14:47:19.12Z</time></trkpt><trkpt lat="43.3418489" lon="11.939487"><ele>265.0</ele><time>2026-04-19T14:47:20.12Z</time></trkpt><trkpt lat="43.3418842" lon="11.9394113"><ele>265.0</ele><time>2026-04-19T14:47:21.12Z</time></trkpt><trkpt lat="43.3419198" lon="11.9393358"><ele>264.99999999999994</ele><time>2026-04-19T14:47:22.119Z</time></trkpt><trkpt lat="43.3419552" lon="11.9392593"><ele>265.0</ele><time>2026-04-19T14:47:23.12Z</time></trkpt><trkpt lat="43.3419899" lon="11.9391785"><ele>265.0</ele><time>2026-04-19T14:47:24.119Z</time></trkpt><trkpt lat="43.3420218" lon="11.9390945"><ele>265.0</ele><time>2026-04-19T14:47:25.119Z</time></trkpt><trkpt lat="43.3420512" lon="11.9390115"><ele>265.0</ele><time>2026-04-19T14:47:26.12Z</time></trkpt><trkpt lat="43.3420752" lon="11.938923"><ele>264.99999999999994</ele><time>2026-04-19T14:47:27.12Z</time></trkpt><trkpt lat="43.3420961" lon="11.9388301"><ele>265.0</ele><time>2026-04-19T14:47:28.12Z</time></trkpt><trkpt lat="43.3421134" lon="11.9387359"><ele>264.71428571428567</ele><time>2026-04-19T14:47:29.119Z</time></trkpt><trkpt lat="43.3421298" lon="11.9386425"><ele>264.42857142857144</ele><time>2026-04-19T14:47:30.12Z</time></trkpt><trkpt lat="43.3421464" lon="11.938546"><ele>264.1428571428571</ele><time>2026-04-19T14:47:31.12Z</time></trkpt><trkpt lat="43.3421607" lon="11.938454"><ele>263.85714285714283</ele><time>2026-04-19T14:47:32.12Z</time></trkpt><trkpt lat="43.3421735" lon="11.9383615"><ele>263.57142857142856</ele><time>2026-04-19T14:47:33.12Z</time></trkpt><trkpt lat="43.3421834" lon="11.9382669"><ele>263.2857142857143</ele><time>2026-04-19T14:47:34.12Z</time></trkpt><trkpt lat="43.3421946" lon="11.9381759"><ele>263.0</ele><time>2026-04-19T14:47:35.12Z</time></trkpt><trkpt lat="43.3422044" lon="11.9380859"><ele>263.1666666666667</ele><time>2026-04-19T14:47:36.12Z</time></trkpt><trkpt lat="43.3422163" lon="11.9379936"><ele>263.33333333333337</ele><time>2026-04-19T14:47:37.12Z</time></trkpt><trkpt lat="43.3422299" lon="11.9379051"><ele>263.5</ele><time>2026-04-19T14:47:38.119Z</time></trkpt><trkpt lat="43.3422444" lon="11.9378158"><ele>263.6666666666667</ele><time>2026-04-19T14:47:39.12Z</time></trkpt><trkpt lat="43.342262" lon="11.9377318"><ele>263.8333333333333</ele><time>2026-04-19T14:47:40.119Z</time></trkpt><trkpt lat="43.3423033" lon="11.9375691"><ele>264.0</ele><time>2026-04-19T14:47:42.119Z</time></trkpt><trkpt lat="43.3423517" lon="11.9374068"><ele>264.25</ele><time>2026-04-19T14:47:44.119Z</time></trkpt><trkpt lat="43.3424024" lon="11.9372534"><ele>264.5</ele><time>2026-04-19T14:47:46.12Z</time></trkpt><trkpt lat="43.3424522" lon="11.9371098"><ele>264.75</ele><time>2026-04-19T14:47:48.119Z</time></trkpt><trkpt lat="43.3424973" lon="11.9369654"><ele>265.0</ele><time>2026-04-19T14:47:50.12Z</time></trkpt><trkpt lat="43.3425371" lon="11.9368198"><ele>265.2</ele><time>2026-04-19T14:47:52.12Z</time></trkpt><trkpt lat="43.3425766" lon="11.9366755"><ele>265.4</ele><time>2026-04-19T14:47:54.12Z</time></trkpt><trkpt lat="43.3426092" lon="11.9365299"><ele>265.6</ele><time>2026-04-19T14:47:56.119Z</time></trkpt><trkpt lat="43.3426319" lon="11.9363818"><ele>265.8</ele><time>2026-04-19T14:47:58.12Z</time></trkpt><trkpt lat="43.3426328" lon="11.9362382"><ele>266.0</ele><time>2026-04-19T14:48:00.12Z</time></trkpt><trkpt lat="43.3426424" lon="11.9360969"><ele>266.0</ele><time>2026-04-19T14:48:02.12Z</time></trkpt><trkpt lat="43.3426684" lon="11.9359622"><ele>266.0</ele><time>2026-04-19T14:48:04.12Z</time></trkpt><trkpt lat="43.3427205" lon="11.9358517"><ele>266.0</ele><time>2026-04-19T14:48:06.12Z</time></trkpt><trkpt lat="43.3427995" lon="11.9358025"><ele>266.0</ele><time>2026-04-19T14:48:08.119Z</time></trkpt><trkpt lat="43.3428917" lon="11.9358228"><ele>266.0</ele><time>2026-04-19T14:48:10.119Z</time></trkpt><trkpt lat="43.3429841" lon="11.9358636"><ele>266.8</ele><time>2026-04-19T14:48:12.12Z</time></trkpt><trkpt lat="43.3430774" lon="11.935847"><ele>267.6</ele><time>2026-04-19T14:48:14.12Z</time></trkpt><trkpt lat="43.3431637" lon="11.9358189"><ele>268.4</ele><time>2026-04-19T14:48:16.12Z</time></trkpt><trkpt lat="43.3432535" lon="11.9357768"><ele>269.2</ele><time>2026-04-19T14:48:18.12Z</time></trkpt><trkpt lat="43.3433581" lon="11.9357351"><ele>270.0</ele><time>2026-04-19T14:48:20.12Z</time></trkpt><trkpt lat="43.3434613" lon="11.9356829"><ele>270.0</ele><time>2026-04-19T14:48:22.119Z</time></trkpt><trkpt lat="43.3435498" lon="11.935658"><ele>270.0</ele><time>2026-04-19T14:48:24.12Z</time></trkpt><trkpt lat="43.3436109" lon="11.9356076"><ele>270.0</ele><time>2026-04-19T14:48:27.119Z</time></trkpt><trkpt lat="43.3436496" lon="11.9355357"><ele>270.0</ele><time>2026-04-19T14:48:29.119Z</time></trkpt><trkpt lat="43.3436618" lon="11.9354208"><ele>270.0</ele><time>2026-04-19T14:48:31.12Z</time></trkpt><trkpt lat="43.3436721" lon="11.9352948"><ele>270.0</ele><time>2026-04-19T14:48:33.119Z</time></trkpt><trkpt lat="43.3436878" lon="11.9351836"><ele>270.0</ele><time>2026-04-19T14:48:35.12Z</time></trkpt><trkpt lat="43.3437018" lon="11.9350642"><ele>270.0</ele><time>2026-04-19T14:48:37.119Z</time></trkpt><trkpt lat="43.3437215" lon="11.9349495"><ele>270.0</ele><time>2026-04-19T14:48:39.12Z</time></trkpt><trkpt lat="43.3437372" lon="11.9348306"><ele>270.0</ele><time>2026-04-19T14:48:41.119Z</time></trkpt><trkpt lat="43.3437535" lon="11.9347019"><ele>270.0</ele><time>2026-04-19T14:48:43.119Z</time></trkpt><trkpt lat="43.343768" lon="11.9345758"><ele>270.0</ele><time>2026-04-19T14:48:45.12Z</time></trkpt><trkpt lat="43.343783" lon="11.9344552"><ele>269.4</ele><time>2026-04-19T14:48:47.12Z</time></trkpt><trkpt lat="43.3437884" lon="11.9343357"><ele>268.8</ele><time>2026-04-19T14:48:49.119Z</time></trkpt><trkpt lat="43.3437949" lon="11.9342107"><ele>268.2</ele><time>2026-04-19T14:48:51.12Z</time></trkpt><trkpt lat="43.3438086" lon="11.9340787"><ele>267.6</ele><time>2026-04-19T14:48:53.12Z</time></trkpt><trkpt lat="43.3438107" lon="11.9339531"><ele>267.0</ele><time>2026-04-19T14:48:55.12Z</time></trkpt><trkpt lat="43.3438112" lon="11.9338285"><ele>266.8</ele><time>2026-04-19T14:48:57.119Z</time></trkpt><trkpt lat="43.3438098" lon="11.9337051"><ele>266.6</ele><time>2026-04-19T14:48:59.119Z</time></trkpt><trkpt lat="43.3438084" lon="11.933582"><ele>266.40000000000003</ele><time>2026-04-19T14:49:01.12Z</time></trkpt><trkpt lat="43.3437973" lon="11.9334574"><ele>266.2</ele><time>2026-04-19T14:49:03.12Z</time></trkpt><trkpt lat="43.3437902" lon="11.933329"><ele>266.0</ele><time>2026-04-19T14:49:05.119Z</time></trkpt><trkpt lat="43.343782" lon="11.9332113"><ele>266.0</ele><time>2026-04-19T14:49:07.12Z</time></trkpt><trkpt lat="43.3437665" lon="11.9330903"><ele>266.0</ele><time>2026-04-19T14:49:09.12Z</time></trkpt><trkpt lat="43.3437542" lon="11.9329752"><ele>266.0</ele><time>2026-04-19T14:49:11.12Z</time></trkpt><trkpt lat="43.3437401" lon="11.9328539"><ele>266.0</ele><time>2026-04-19T14:49:13.119Z</time></trkpt><trkpt lat="43.3437351" lon="11.9327255"><ele>266.0</ele><time>2026-04-19T14:49:15.12Z</time></trkpt><trkpt lat="43.3437314" lon="11.932603"><ele>266.0</ele><time>2026-04-19T14:49:17.12Z</time></trkpt><trkpt lat="43.3437351" lon="11.9324697"><ele>266.2</ele><time>2026-04-19T14:49:19.12Z</time></trkpt><trkpt lat="43.3437429" lon="11.9323439"><ele>266.40000000000003</ele><time>2026-04-19T14:49:21.119Z</time></trkpt><trkpt lat="43.3437586" lon="11.9322194"><ele>266.6</ele><time>2026-04-19T14:49:23.119Z</time></trkpt><trkpt lat="43.3437637" lon="11.9320949"><ele>266.8</ele><time>2026-04-19T14:49:25.12Z</time></trkpt><trkpt lat="43.3437704" lon="11.9319722"><ele>267.0</ele><time>2026-04-19T14:49:27.12Z</time></trkpt><trkpt lat="43.343781" lon="11.9318521"><ele>267.0</ele><time>2026-04-19T14:49:29.119Z</time></trkpt><trkpt lat="43.3437961" lon="11.9317337"><ele>267.0</ele><time>2026-04-19T14:49:31.12Z</time></trkpt><trkpt lat="43.3438112" lon="11.9316197"><ele>267.0</ele><time>2026-04-19T14:49:33.12Z</time></trkpt><trkpt lat="43.3438247" lon="11.9314982"><ele>267.0</ele><time>2026-04-19T14:49:35.12Z</time></trkpt><trkpt lat="43.3438465" lon="11.9313791"><ele>267.0</ele><time>2026-04-19T14:49:37.12Z</time></trkpt><trkpt lat="43.3438835" lon="11.9312651"><ele>267.0</ele><time>2026-04-19T14:49:39.119Z</time></trkpt><trkpt lat="43.3439237" lon="11.9311692"><ele>267.8333333333333</ele><time>2026-04-19T14:49:41.12Z</time></trkpt><trkpt lat="43.3439628" lon="11.9310803"><ele>268.6666666666667</ele><time>2026-04-19T14:49:43.12Z</time></trkpt><trkpt lat="43.344" lon="11.9310012"><ele>269.5</ele><time>2026-04-19T14:49:45.119Z</time></trkpt><trkpt lat="43.3440642" lon="11.9309073"><ele>270.33333333333337</ele><time>2026-04-19T14:49:48.12Z</time></trkpt><trkpt lat="43.3441073" lon="11.930839"><ele>271.1666666666667</ele><time>2026-04-19T14:49:50.12Z</time></trkpt><trkpt lat="43.3441509" lon="11.9307282"><ele>272.0</ele><time>2026-04-19T14:49:52.12Z</time></trkpt><trkpt lat="43.3441926" lon="11.9306263"><ele>272.0</ele><time>2026-04-19T14:49:54.119Z</time></trkpt><trkpt lat="43.3442181" lon="11.9305193"><ele>272.0</ele><time>2026-04-19T14:49:56.12Z</time></trkpt><trkpt lat="43.3442288" lon="11.9303934"><ele>272.0</ele><time>2026-04-19T14:49:58.119Z</time></trkpt><trkpt lat="43.3442013" lon="11.930263"><ele>272.0</ele><time>2026-04-19T14:50:00.12Z</time></trkpt><trkpt lat="43.3441466" lon="11.9301326"><ele>272.0</ele><time>2026-04-19T14:50:02.119Z</time></trkpt><trkpt lat="43.3440884" lon="11.9300029"><ele>271.75</ele><time>2026-04-19T14:50:04.119Z</time></trkpt><trkpt lat="43.3440252" lon="11.9298659"><ele>271.5</ele><time>2026-04-19T14:50:06.12Z</time></trkpt><trkpt lat="43.3439591" lon="11.9297293"><ele>271.25</ele><time>2026-04-19T14:50:08.12Z</time></trkpt><trkpt lat="43.3439007" lon="11.929577"><ele>271.0</ele><time>2026-04-19T14:50:10.12Z</time></trkpt><trkpt lat="43.343836" lon="11.9294324"><ele>270.7142857142857</ele><time>2026-04-19T14:50:12.12Z</time></trkpt><trkpt lat="43.3438012" lon="11.9293582"><ele>270.42857142857144</ele><time>2026-04-19T14:50:13.12Z</time></trkpt><trkpt lat="43.3437655" lon="11.9292797"><ele>270.14285714285717</ele><time>2026-04-19T14:50:14.119Z</time></trkpt><trkpt lat="43.3437257" lon="11.9292067"><ele>269.8571428571429</ele><time>2026-04-19T14:50:15.12Z</time></trkpt><trkpt lat="43.3436856" lon="11.9291353"><ele>269.5714285714286</ele><time>2026-04-19T14:50:16.12Z</time></trkpt><trkpt lat="43.3436416" lon="11.9290651"><ele>269.2857142857143</ele><time>2026-04-19T14:50:17.12Z</time></trkpt><trkpt lat="43.3435977" lon="11.9289931"><ele>269.0</ele><time>2026-04-19T14:50:18.119Z</time></trkpt><trkpt lat="43.3435487" lon="11.928928"><ele>269.0</ele><time>2026-04-19T14:50:19.119Z</time></trkpt><trkpt lat="43.3434966" lon="11.9288606"><ele>269.0</ele><time>2026-04-19T14:50:20.12Z</time></trkpt><trkpt lat="43.3434471" lon="11.9287936"><ele>269.0</ele><time>2026-04-19T14:50:21.12Z</time></trkpt><trkpt lat="43.3434032" lon="11.9287273"><ele>269.0</ele><time>2026-04-19T14:50:22.119Z</time></trkpt><trkpt lat="43.34336" lon="11.9286604"><ele>269.0</ele><time>2026-04-19T14:50:23.119Z</time></trkpt><trkpt lat="43.3432758" lon="11.9285334"><ele>269.0</ele><time>2026-04-19T14:50:25.119Z</time></trkpt><trkpt lat="43.3431985" lon="11.9284021"><ele>268.8</ele><time>2026-04-19T14:50:27.12Z</time></trkpt><trkpt lat="43.3431142" lon="11.9282741"><ele>268.59999999999997</ele><time>2026-04-19T14:50:29.119Z</time></trkpt><trkpt lat="43.3430735" lon="11.9282039"><ele>268.4</ele><time>2026-04-19T14:50:30.119Z</time></trkpt><trkpt lat="43.343033" lon="11.9281366"><ele>268.2</ele><time>2026-04-19T14:50:31.12Z</time></trkpt><trkpt lat="43.3429521" lon="11.9280153"><ele>268.0</ele><time>2026-04-19T14:50:33.119Z</time></trkpt><trkpt lat="43.3428698" lon="11.9278898"><ele>268.0</ele><time>2026-04-19T14:50:35.119Z</time></trkpt><trkpt lat="43.3427956" lon="11.9277647"><ele>268.0</ele><time>2026-04-19T14:50:37.12Z</time></trkpt><trkpt lat="43.3427184" lon="11.9276523"><ele>268.0</ele><time>2026-04-19T14:50:39.119Z</time></trkpt><trkpt lat="43.3426395" lon="11.9275427"><ele>268.0</ele><time>2026-04-19T14:50:41.119Z</time></trkpt><trkpt lat="43.3425676" lon="11.9274263"><ele>268.8333333333333</ele><time>2026-04-19T14:50:43.119Z</time></trkpt><trkpt lat="43.3425026" lon="11.9273154"><ele>269.66666666666663</ele><time>2026-04-19T14:50:45.12Z</time></trkpt><trkpt lat="43.3424318" lon="11.9272205"><ele>270.5</ele><time>2026-04-19T14:50:47.12Z</time></trkpt><trkpt lat="43.3423761" lon="11.9271266"><ele>271.3333333333333</ele><time>2026-04-19T14:50:49.12Z</time></trkpt><trkpt lat="43.3423278" lon="11.9270416"><ele>272.1666666666667</ele><time>2026-04-19T14:50:51.12Z</time></trkpt><trkpt lat="43.3422794" lon="11.926958"><ele>273.0</ele><time>2026-04-19T14:50:53.119Z</time></trkpt><trkpt lat="43.342238" lon="11.9268801"><ele>273.3333333333333</ele><time>2026-04-19T14:50:55.12Z</time></trkpt><trkpt lat="43.3422068" lon="11.9267654"><ele>273.6666666666667</ele><time>2026-04-19T14:50:58.12Z</time></trkpt><trkpt lat="43.3422017" lon="11.9266472"><ele>274.0</ele><time>2026-04-19T14:51:01.119Z</time></trkpt><trkpt lat="43.3422113" lon="11.9265322"><ele>274.33333333333337</ele><time>2026-04-19T14:51:04.12Z</time></trkpt><trkpt lat="43.3422306" lon="11.9264153"><ele>274.6666666666667</ele><time>2026-04-19T14:51:07.12Z</time></trkpt><trkpt lat="43.3422563" lon="11.9262915"><ele>275.0</ele><time>2026-04-19T14:51:10.12Z</time></trkpt><trkpt lat="43.342278" lon="11.926175"><ele>275.0</ele><time>2026-04-19T14:51:13.12Z</time></trkpt><trkpt lat="43.3423121" lon="11.9260604"><ele>275.0</ele><time>2026-04-19T14:51:16.119Z</time></trkpt><trkpt lat="43.3423383" lon="11.9259588"><ele>275.0</ele><time>2026-04-19T14:51:19.119Z</time></trkpt><trkpt lat="43.342364" lon="11.9258621"><ele>275.0</ele><time>2026-04-19T14:51:22.119Z</time></trkpt><trkpt lat="43.3423872" lon="11.9257672"><ele>275.0</ele><time>2026-04-19T14:51:25.119Z</time></trkpt><trkpt lat="43.3424097" lon="11.9256766"><ele>275.0</ele><time>2026-04-19T14:51:28.12Z</time></trkpt><trkpt lat="43.3424333" lon="11.9255863"><ele>275.7142857142857</ele><time>2026-04-19T14:51:31.119Z</time></trkpt><trkpt lat="43.3424581" lon="11.9254967"><ele>276.42857142857144</ele><time>2026-04-19T14:51:34.12Z</time></trkpt><trkpt lat="43.3424814" lon="11.9254095"><ele>277.1428571428571</ele><time>2026-04-19T14:51:37.12Z</time></trkpt><trkpt lat="43.3425012" lon="11.9253152"><ele>277.8571428571429</ele><time>2026-04-19T14:51:40.12Z</time></trkpt><trkpt lat="43.3425269" lon="11.9252343"><ele>278.57142857142856</ele><time>2026-04-19T14:51:43.12Z</time></trkpt><trkpt lat="43.342572" lon="11.925164"><ele>279.2857142857143</ele><time>2026-04-19T14:51:46.12Z</time></trkpt><trkpt lat="43.3426114" lon="11.9250804"><ele>280.0</ele><time>2026-04-19T14:51:49.12Z</time></trkpt><trkpt lat="43.3426551" lon="11.9250143"><ele>281.42857142857144</ele><time>2026-04-19T14:51:52.119Z</time></trkpt><trkpt lat="43.342705" lon="11.9249512"><ele>282.8571428571429</ele><time>2026-04-19T14:51:55.119Z</time></trkpt><trkpt lat="43.3427762" lon="11.9249012"><ele>284.2857142857143</ele><time>2026-04-19T14:51:59.12Z</time></trkpt><trkpt lat="43.3428415" lon="11.9248719"><ele>285.7142857142857</ele><time>2026-04-19T14:52:02.12Z</time></trkpt><trkpt lat="43.3429171" lon="11.9248404"><ele>287.14285714285717</ele><time>2026-04-19T14:52:05.12Z</time></trkpt><trkpt lat="43.342993" lon="11.9248175"><ele>288.57142857142856</ele><time>2026-04-19T14:52:08.119Z</time></trkpt><trkpt lat="43.3430644" lon="11.9247826"><ele>290.0</ele><time>2026-04-19T14:52:11.12Z</time></trkpt><trkpt lat="43.3431331" lon="11.9247528"><ele>290.0</ele><time>2026-04-19T14:52:14.119Z</time></trkpt><trkpt lat="43.3431988" lon="11.9247248"><ele>290.0</ele><time>2026-04-19T14:52:17.12Z</time></trkpt><trkpt lat="43.3432623" lon="11.9247071"><ele>290.0</ele><time>2026-04-19T14:52:20.119Z</time></trkpt><trkpt lat="43.3433313" lon="11.9246741"><ele>290.0</ele><time>2026-04-19T14:52:23.12Z</time></trkpt><trkpt lat="43.3433999" lon="11.9246536"><ele>290.0</ele><time>2026-04-19T14:52:26.119Z</time></trkpt><trkpt lat="43.3434711" lon="11.9246455"><ele>290.0</ele><time>2026-04-19T14:52:29.119Z</time></trkpt><trkpt lat="43.3435388" lon="11.9246251"><ele>290.0</ele><time>2026-04-19T14:52:32.12Z</time></trkpt><trkpt lat="43.3436178" lon="11.9246041"><ele>290.0</ele><time>2026-04-19T14:52:35.119Z</time></trkpt><trkpt lat="43.3436996" lon="11.9245916"><ele>290.0</ele><time>2026-04-19T14:52:38.119Z</time></trkpt><trkpt lat="43.3437799" lon="11.9245686"><ele>290.0</ele><time>2026-04-19T14:52:41.12Z</time></trkpt><trkpt lat="43.3438352" lon="11.9245217"><ele>290.0</ele><time>2026-04-19T14:52:44.12Z</time></trkpt><trkpt lat="43.3438994" lon="11.9244944"><ele>290.0</ele><time>2026-04-19T14:52:47.119Z</time></trkpt><trkpt lat="43.3439635" lon="11.9244706"><ele>290.0</ele><time>2026-04-19T14:52:50.119Z</time></trkpt><trkpt lat="43.3440224" lon="11.92444"><ele>290.0</ele><time>2026-04-19T14:52:53.12Z</time></trkpt><trkpt lat="43.3440945" lon="11.9244125"><ele>290.7142857142857</ele><time>2026-04-19T14:52:56.12Z</time></trkpt><trkpt lat="43.3441593" lon="11.9243893"><ele>291.42857142857144</ele><time>2026-04-19T14:52:59.12Z</time></trkpt><trkpt lat="43.3442205" lon="11.9243518"><ele>292.14285714285717</ele><time>2026-04-19T14:53:02.119Z</time></trkpt><trkpt lat="43.3442941" lon="11.9243273"><ele>292.8571428571429</ele><time>2026-04-19T14:53:05.119Z</time></trkpt><trkpt lat="43.3443647" lon="11.9242937"><ele>293.57142857142856</ele><time>2026-04-19T14:53:08.12Z</time></trkpt><trkpt lat="43.3444259" lon="11.9242649"><ele>294.28571428571433</ele><time>2026-04-19T14:53:11.119Z</time></trkpt><trkpt lat="43.3444877" lon="11.9242207"><ele>295.0</ele><time>2026-04-19T14:53:14.119Z</time></trkpt><trkpt lat="43.344542" lon="11.9241675"><ele>296.5714285714286</ele><time>2026-04-19T14:53:17.12Z</time></trkpt><trkpt lat="43.3445961" lon="11.9241118"><ele>298.14285714285717</ele><time>2026-04-19T14:53:20.119Z</time></trkpt><trkpt lat="43.3446413" lon="11.9240399"><ele>299.7142857142857</ele><time>2026-04-19T14:53:23.119Z</time></trkpt><trkpt lat="43.3446699" lon="11.9239319"><ele>301.28571428571433</ele><time>2026-04-19T14:53:27.119Z</time></trkpt><trkpt lat="43.3446666" lon="11.9238362"><ele>302.8571428571429</ele><time>2026-04-19T14:53:30.12Z</time></trkpt><trkpt lat="43.3446527" lon="11.9237445"><ele>304.42857142857144</ele><time>2026-04-19T14:53:33.12Z</time></trkpt><trkpt lat="43.3446153" lon="11.9236701"><ele>306.0</ele><time>2026-04-19T14:53:36.12Z</time></trkpt><trkpt lat="43.3445603" lon="11.9236051"><ele>306.0</ele><time>2026-04-19T14:53:39.119Z</time></trkpt><trkpt lat="43.3445026" lon="11.9235402"><ele>306.0</ele><time>2026-04-19T14:53:42.119Z</time></trkpt><trkpt lat="43.3444423" lon="11.9234952"><ele>306.0</ele><time>2026-04-19T14:53:45.119Z</time></trkpt><trkpt lat="43.3443717" lon="11.9234632"><ele>306.0</ele><time>2026-04-19T14:53:48.12Z</time></trkpt><trkpt lat="43.3443075" lon="11.9234334"><ele>306.0</ele><time>2026-04-19T14:53:51.12Z</time></trkpt><trkpt lat="43.3442342" lon="11.9234211"><ele>306.0</ele><time>2026-04-19T14:53:54.119Z</time></trkpt><trkpt lat="43.3441622" lon="11.9234214"><ele>306.0</ele><time>2026-04-19T14:53:57.119Z</time></trkpt><trkpt lat="43.3440885" lon="11.9234137"><ele>308.3333333333333</ele><time>2026-04-19T14:54:00.119Z</time></trkpt><trkpt lat="43.3440233" lon="11.9233688"><ele>310.6666666666667</ele><time>2026-04-19T14:54:03.12Z</time></trkpt><trkpt lat="43.3440345" lon="11.9232727"><ele>313.0</ele><time>2026-04-19T14:54:07.12Z</time></trkpt><trkpt lat="43.3441038" lon="11.9232116"><ele>315.33333333333337</ele><time>2026-04-19T14:54:11.12Z</time></trkpt><trkpt lat="43.3441749" lon="11.9231882"><ele>317.6666666666667</ele><time>2026-04-19T14:54:14.12Z</time></trkpt><trkpt lat="43.3442505" lon="11.9231417"><ele>320.0</ele><time>2026-04-19T14:54:17.119Z</time></trkpt><trkpt lat="43.3443139" lon="11.9230828"><ele>320.0</ele><time>2026-04-19T14:54:20.119Z</time></trkpt><trkpt lat="43.34439" lon="11.9230116"><ele>320.0</ele><time>2026-04-19T14:54:23.119Z</time></trkpt><trkpt lat="43.3444551" lon="11.9229439"><ele>320.0</ele><time>2026-04-19T14:54:26.119Z</time></trkpt><trkpt lat="43.3445214" lon="11.9228815"><ele>320.0</ele><time>2026-04-19T14:54:29.12Z</time></trkpt><trkpt lat="43.3445532" lon="11.9227682"><ele>320.0</ele><time>2026-04-19T14:54:32.12Z</time></trkpt><trkpt lat="43.3445237" lon="11.9226782"><ele>320.0</ele><time>2026-04-19T14:54:34.12Z</time></trkpt><trkpt lat="43.3444753" lon="11.9225823"><ele>320.5</ele><time>2026-04-19T14:54:36.119Z</time></trkpt><trkpt lat="43.3444339" lon="11.9224851"><ele>321.0</ele><time>2026-04-19T14:54:38.119Z</time></trkpt><trkpt lat="43.3443896" lon="11.9223938"><ele>321.5</ele><time>2026-04-19T14:54:40.119Z</time></trkpt><trkpt lat="43.3443435" lon="11.9222952"><ele>322.0</ele><time>2026-04-19T14:54:42.12Z</time></trkpt><trkpt lat="43.344292" lon="11.9221973"><ele>322.5</ele><time>2026-04-19T14:54:44.12Z</time></trkpt><trkpt lat="43.3442398" lon="11.9221066"><ele>323.0</ele><time>2026-04-19T14:54:46.12Z</time></trkpt><trkpt lat="43.3441909" lon="11.9220088"><ele>323.0</ele><time>2026-04-19T14:54:48.12Z</time></trkpt><trkpt lat="43.3441405" lon="11.9219033"><ele>323.0</ele><time>2026-04-19T14:54:50.12Z</time></trkpt><trkpt lat="43.3440904" lon="11.9217867"><ele>323.0</ele><time>2026-04-19T14:54:52.12Z</time></trkpt><trkpt lat="43.3440322" lon="11.9216705"><ele>323.0</ele><time>2026-04-19T14:54:54.12Z</time></trkpt><trkpt lat="43.343973" lon="11.9215507"><ele>323.0</ele><time>2026-04-19T14:54:56.119Z</time></trkpt><trkpt lat="43.343935" lon="11.9214438"><ele>322.5</ele><time>2026-04-19T14:54:58.12Z</time></trkpt><trkpt lat="43.3439045" lon="11.92136"><ele>322.0</ele><time>2026-04-19T14:55:00.119Z</time></trkpt><trkpt lat="43.3438933" lon="11.92123"><ele>321.5</ele><time>2026-04-19T14:55:03.12Z</time></trkpt><trkpt lat="43.343926" lon="11.9211332"><ele>321.0</ele><time>2026-04-19T14:55:05.12Z</time></trkpt><trkpt lat="43.3439902" lon="11.9210722"><ele>320.5</ele><time>2026-04-19T14:55:07.119Z</time></trkpt><trkpt lat="43.3440557" lon="11.921035"><ele>320.0</ele><time>2026-04-19T14:55:09.119Z</time></trkpt><trkpt lat="43.3441222" lon="11.9210652"><ele>320.0</ele><time>2026-04-19T14:55:11.12Z</time></trkpt><trkpt lat="43.344139" lon="11.9211535"><ele>320.0</ele><time>2026-04-19T14:55:14.119Z</time></trkpt><trkpt lat="43.3441018" lon="11.9212288"><ele>320.0</ele><time>2026-04-19T14:55:18.12Z</time></trkpt><trkpt lat="43.3440775" lon="11.921309"><ele>320.0</ele><time>2026-04-19T14:55:22.12Z</time></trkpt><trkpt lat="43.3440957" lon="11.9212221"><ele>320.0</ele><time>2026-04-19T14:55:35.12Z</time></trkpt><trkpt lat="43.3441389" lon="11.9211433"><ele>320.0</ele><time>2026-04-19T14:55:38.12Z</time></trkpt><trkpt lat="43.3441899" lon="11.9210355"><ele>320.0</ele><time>2026-04-19T14:55:41.12Z</time></trkpt><trkpt lat="43.3442265" lon="11.9209515"><ele>320.0</ele><time>2026-04-19T14:55:43.12Z</time></trkpt><trkpt lat="43.3442876" lon="11.9207906"><ele>312.0</ele><time>2026-04-19T14:59:52.12Z</time></trkpt><trkpt lat="43.3443301" lon="11.9206884"><ele>312.0</ele><time>2026-04-19T14:59:56.12Z</time></trkpt><trkpt lat="43.3443679" lon="11.9206087"><ele>312.0</ele><time>2026-04-19T15:00:00.12Z</time></trkpt><trkpt lat="43.3444149" lon="11.9205504"><ele>312.0</ele><time>2026-04-19T15:00:06.119Z</time></trkpt></trkseg></trk></gpx>